     2              OBSERVATION DATA    GPS                 RINEX VERSION / TYPE
teqc 1997Jun30 19970702                                     PGM / RUN BY / DATE
                                                            COMMENT
BIT 2 OF LLI FLAGS DATA COLLECTED UNDER A-S CONDITION       COMMENT
BIT 2 OF LLI FLAGS DATA COLLECTED UNDER A-S CONDITION       COMMENT
Original Marker Name: HMCP                                  COMMENT
Campaign Name: HMC San Gabriel Valley 1993-1996             COMMENT
4-Character Station Name: HMCP                              COMMENT
6-Character Antenna Code: DMRCHT                            COMMENT
Vertical Measurement Point: BPA                             COMMENT
Vertical Offset to Rinex Ref. Point: 0.0000                 COMMENT
Radial Measurement Point: RRP                               COMMENT
Radial Offset to Rinex Ref. Point: 0.0000                   COMMENT
Antenna Height from Field Measurement: 0.0000 m             COMMENT
Additional Antenna Identification Info.:                    COMMENT
Turborogue and Ashtech Choke Ring                           COMMENT
Fixed antenna mounting on roof of Parsons                   COMMENT
building, HMC.                                              COMMENT
Original XYZ: -2458649.1280 -4680558.1511 3556471.8197      COMMENT
New XYZ position is based on association with SCEC monument COMMENT
E1D0R2C7+0011. Position of that monument is believed to be  COMMENT
valid to within 1 m horizontally; vertical accuracy         COMMENT
should be no worse than 3-times this value.                 COMMENT
                                                            COMMENT
Revised Rinex header created by UCSD GPS archive for        COMMENT
GSAC on 13-Apr-1999 (1999:103) 20:08:44 GMT                 COMMENT
For assistance contact dagnew@ucsd.edu or hjohnson@ucsd.edu COMMENT
                                                            COMMENT
HARVEY MUDD COLLEGE PHYSICS                                 MARKER NAME
MGB HARVEY MUDD COLLEGE                                     OBSERVER / AGENCY
T-262/263 TURBOROGUE SNR-8000 95.03.08                      REC # / TYPE / VERS
260/329 DORNE-MARGOL. TYPE T                                ANT # / TYPE
 -2458598.0000 -4680494.0000  3556451.0000                  APPROX POSITION XYZ
        0.0000        0.0000        0.0000                  ANTENNA: DELTA H/E/N
     1     1     0                                          WAVELENGTH FACT L1/2
     5    L1    L2    C1    P2    P1                        # / TYPES OF OBSERV
     0                                                      INTERVAL
  1996     4     6     0     0    0.000000                  TIME OF FIRST OBS
  1996     4     6    23    59   30.000000                  TIME OF LAST OBS
     0                                                      # OF SATELLITES
                                                            END OF HEADER
 96  4  6  0  0  0.0000000  0  8G 4G 6G 9G 5G20G 7G16G24
 -10276600.60744  -8007727.53944  22027900.9914   22027900.5804
  -1972889.15044  -1537313.62144  24383535.3154   24383537.5194
 -12944624.67644 -10086718.19344  22422188.3434   22422189.4024
 -23047521.37144 -17959096.55844  20692457.5454   20692457.1814
 -13408587.81744 -10448241.96644  22566786.0464   22566786.5964
  -3067185.78944                  24295901.0864
  -3306839.17944  -2576752.46044  23732192.6144   23732194.8734
 -20543946.48944 -16008253.75044  20451104.3364   20451104.6414
 96  4  6  0  0 30.0000000  0  8G 4G 6G 9G 5G20G 7G16G24
 -10196474.95944  -7945291.97244  22043148.1114   22043147.6414
  -2042593.94044  -1591628.98544  24370271.6034   24370272.5494
 -12866866.11044 -10026127.14244  22436985.2134   22436986.7964
 -23093627.11344 -17995023.10444  20683684.1784   20683683.7134
 -13498160.66944 -10518038.95144  22549740.7544   22549741.3124
  -2996929.23544                  24309269.5304
  -3401063.17944  -2650173.68744  23714262.6194   23714263.8494
 -20527361.65244 -15995330.49544  20454260.1634   20454260.2244
 96  4  6  0  1  0.0000000  0  8G 4G 6G 9G 5G20G 7G16G24
 -10116088.13744  -7882652.89944  22058445.6024   22058445.1974
  -2112238.95444  -1645897.75444  24357018.9584   24357021.0944
 -12788851.58844  -9965336.64744  22451830.9904   22451832.6544
 -23139339.44244 -18030643.09244  20674985.3314   20674984.9184
 -13587562.55144 -10587702.72844  22532727.4454   22532728.0284
  -2926647.55544  -2280499.13244  24322645.2654
  -3495230.42944  -2723550.72844  23696344.0164   23696349.1984
 -20510306.73044 -15982040.93844  20457505.8274   20457506.0254
 96  4  6  0  1 30.0000000  0  8G 4G 6G 9G 5G20G 7G16G24
 -10035418.19844  -7819793.19644  22073796.4274   22073796.0574
  -2181832.25044  -1700126.26844  24343775.2044   24343778.3664
 -12710565.34644  -9904334.42544  22466728.5414   22466729.4224
 -23184658.24944 -18065956.43644  20666361.3254   20666360.9134
 -13676775.34444 -10657219.15144  22515750.6554   22515751.1264
  -2856313.66944  -2225693.56744  24336028.9314
  -3589309.08744  -2796858.70944  23678440.9724   23678443.0264
 -20492752.23544 -15968362.10344  20460846.4064   20460846.4434
 96  4  6  0  2  0.0000000  0  8G 4G 6G 9G 5G20G 7G16G24
  -9954472.15044  -7756718.37144  22089199.4664   22089199.6394
  -2251402.84344  -1754337.04144  24330537.6474   24330538.1964
 -12632015.37344  -9843126.68644  22481676.5524   22481677.5924
 -23229609.13344 -18100983.09444  20657807.3444   20657806.8984
 -13765800.47444 -10726589.35544  22498810.4314   22498810.8864
  -2785934.17144                  24349422.2124
  -3683303.40144  -2870100.94944  23660554.2484   23660557.3524
 -20474694.57144 -15954291.18944  20464282.6614   20464282.6214
 96  4  6  0  2 30.0000000  0  8G 4G 6G 9G 5G20G 7G16G24
  -9873279.45744  -7693451.34144  22104650.5714   22104650.2624
  -2320975.88644  -1808549.75544  24317298.0654   24317300.4654
 -12553204.30944  -9781715.50044  22496674.0254   22496674.7854
 -23274212.04544 -18135738.60344  20649319.9854   20649319.7324
 -13854641.49944 -10795816.08644  22481904.2454   22481904.5544
  -2715526.35244  -2115989.14144  24362820.7564
  -3777222.40644  -2943284.52244  23642680.6774   23642683.4024
 -20456140.18944 -15939833.22344  20467813.3874   20467813.5034
 96  4  6  0  3  0.0000000  0  8G 4G 6G 9G 5G20G 7G16G24
  -9791852.92944  -7630002.10044  22120145.0714   22120144.8014
  -2390565.82844  -1862775.57044  24304054.5974   24304054.2094
 -12474128.94744  -9720098.36444  22511721.6984   22511722.1334
 -23318469.61644 -18170225.01044  20640897.9054   20640897.2544
 -13943292.21944 -10864894.53144  22465034.5314   22465035.2454
  -2645096.13444                  24376222.5174
  -3871066.81444  -3016409.93544  23624823.1514   23624826.8754
 -20437104.90544 -15925000.52944  20471435.7184   20471435.6884
 96  4  6  0  3 30.0000000  0  8G 4G 6G 9G 5G20G 7G16G24
  -9710167.07144  -7566350.78244  22135689.7164   22135689.3514
  -2460145.32844  -1916993.31644  24290815.7624   24290817.2434
 -12394771.48044  -9658261.40044  22526822.9504   22526823.9324
 -23362330.28544 -18204402.15444  20632551.3494   20632550.9984
 -14031723.18444 -10933801.75444  22448207.1414   22448207.5144
  -2574609.70644                  24389634.5114
  -3964828.46444  -3089470.91944  23606981.4404   23606983.0194
 -20417578.13344 -15909784.85644  20475151.4154   20475151.7744
 96  4  6  0  4  0.0000000  0  8G 4G 6G 9G 5G20G 7G16G24
  -9628228.52144  -7502502.56544  22151282.2764   22151281.6814
  -2529694.25244  -1971187.20644  24277579.5464   24277581.9874
 -12315131.77944  -9596204.53144  22541977.0934   22541978.6654
 -23405768.41844 -18238250.03844  20624285.3394   20624284.8984
 -14119933.54244 -11002537.08044  22431421.0444   22431421.8754
  -2504073.02144                  24403055.4494
  -4058518.76444  -3162476.26444  23589152.6944   23589155.9054
 -20397574.22544 -15894197.38544  20478958.1804   20478958.1204
 96  4  6  0  4 30.0000000  0  8G 4G 6G 9G 5G20G 7G16G24
  -9546037.00544  -7438457.22744  22166922.3594   22166921.7414
  -2599202.25444  -2025349.22144  24264352.8404   24264353.3314
 -12235224.68344  -9533939.29744  22557182.4854   22557184.9944
 -23448781.99444 -18271767.10744  20616100.5954   20616099.8914
 -14207940.27644 -11071113.72044  22414673.7044   22414673.9774
  -2433488.54044                  24416489.6024
  -4152138.56744  -3235426.70244  23571337.3914   23571340.0984
 -20377107.83944 -15878249.54644  20482852.7844   20482852.7674
 96  4  6  0  5  0.0000000  0  8G 4G 6G 9G 5G20G 7G16G24
  -9463556.80344  -7374186.94844  22182618.1164   22182617.8694
  -2668622.17944  -2079442.61344  24251142.4864   24251144.2324
 -12155029.51544  -9471449.60244  22572443.9324   22572445.9404
 -23491349.16544 -18304936.32444  20607999.9944   20607999.6414
 -14295719.84244 -11139513.36244  22397969.9344   22397970.5064
  -2362843.62544                  24429933.5324
  -4245666.67644  -3308305.69544  23553540.0634   23553543.2324
 -20356161.67744 -15861927.85144  20486838.8604   20486838.7374
 96  4  6  0  5 30.0000000  0  8G 4G 6G 9G 5G20G 7G16G24
  -9380805.30244  -7309705.25944  22198364.5534   22198364.4304
  -2737970.26444  -2133480.06544  24237945.9734   24237945.7004
 -12074577.11744  -9408759.45444  22587753.9344   22587755.1864
 -23533499.74344 -18337780.92244  20599978.9714   20599978.3424
 -14383303.56244 -11207760.38944  22381302.6044   22381303.0794
  -2292173.91144  -1786104.38344  24443382.0744
  -4339124.48144  -3381129.88944  23535754.8214   23535757.2444
 -20334756.18944 -15845248.24344  20490912.0184   20490912.1494
 96  4  6  0  7  0.0000000  0  2G 6G 7
        -0.46454         0.15954  24198417.7294   24198417.9284
        -0.83654                  24483730.7284
 96  4  6  0  7 30.0000000  0  3G 6G 7G 4
    -69170.62244    -53898.60644  24185254.6804   24185256.0304
     70701.90144                  24497185.6264
        -0.44154        -0.10154  22261833.7174   22261833.2524
 96  4  6  0  8  0.0000000  0  6G 6G16G24G 9G 7G 4
   -138318.31844   -107779.84544  24172096.1724   24172097.3434
        -0.31454         0.31354  23447072.1814   23447074.3194
        -0.64854        -0.04954  20512563.4124   20512563.4634
        -0.51354         0.42154  22665000.7394   22665002.4944
    141421.74844                  24510642.9134
     83983.93844     65442.26044  22277815.3254   22277815.2004
 96  4  6  0  8 30.0000000  0  8G20G 6G16G 5G24G 9G 7G 4
        -0.97954        -0.85354  22282096.7784   22282097.1784
   -207443.93044   -161643.89144  24158940.9824   24158941.8864
    -92933.67344    -72415.20244  23429388.4194   23429391.1284
        -0.52354        -0.01854  20553384.7014   20553384.5244
     24099.29844     18779.13544  20517149.6654   20517149.8314
     81927.43044     63840.33444  22680591.6854   22680592.9374
    212150.34044                  24524102.8914
    168196.96644    131062.79044  22293840.4984   22293841.0194
 96  4  6  0  9  0.0000000  0  8G20G 6G16G 5G24G 9G 7G 4
    -86101.50144    -67092.14544  22265712.3924   22265712.7434
   -276478.92944   -215437.32244  24145804.3194   24145806.0494
   -185706.66244   -144705.78544  23411733.2674   23411735.6194
    -39304.42244    -30626.42144  20545905.5174   20545905.0544
     48700.23444     37948.69644  20521831.0964   20521831.0504
    164148.13044    127908.37644  22696237.8384   22696238.4234
    282953.36044                  24537575.8364
    252694.60844    196905.10144  22309919.7624   22309920.0384
 96  4  6  0  9 30.0000000  0  8G20G 6G16G 5G24G 9G 7G 4
   -171962.30944   -133996.65344  22249373.4254   22249373.7784
   -345462.59744   -269190.73244  24132677.5734   24132680.0634
   -278355.42144   -216899.53944  23394103.2034   23394106.7514
    -78151.57044    -60896.92544  20538513.1704   20538512.5924
     73751.16944     57468.91044  20526597.9784   20526597.9554
    246608.10444    192162.87244  22711929.5274   22711929.9624
    353783.48444                  24551054.8684
    337410.83544    262917.73844  22326041.1304   22326040.7674
 96  4  6  0 10  0.0000000  0  8G20G 6G16G 5G24G 9G 7G 4
   -257607.44944   -200733.09144  22233075.4454   22233075.0964
   -414424.65944   -322927.31044  24119553.4974   24119557.6234
   -370918.50344   -289026.56044  23376489.2174   23376492.2564
   -116587.66244    -90847.12144  20531198.9644   20531198.5054
     99212.10844     77308.60844  20531443.0804   20531443.1914
    329279.84244    256582.38044  22727661.7274   22727662.0524
    424599.15144                  24564528.8164
    422299.84444    329065.01944  22342195.1184   22342194.8124
 96  4  6  0 10 30.0000000  0  8G20G 6G16G 5G24G 9G 7G 4
   -343020.77144   -267288.90444  22216822.2934   22216822.2554
   -483358.49644   -376641.96044  24106436.6354   24106438.0884
   -463374.48644   -361070.09344  23358895.3184   23358897.0594
   -154600.48844   -120467.49544  20523965.5734   20523965.0424
    125103.22644     97483.51144  20536370.0744   20536370.3474
    412160.16644    321164.42644  22743432.3444   22743432.9674
    495429.12344                  24578008.2544
    507386.56844    395366.36044  22358386.5974   22358385.8864
 96  4  6  0 11  0.0000000  0  8G20G 6G16G 5G24G 9G 7G 4
   -428170.53544   -333639.34344  22200617.7204   22200618.8464
   -552242.35544   -430317.61044  24093328.5534   24093329.8474
   -555708.39944   -433018.51844  23341324.1894   23341325.5884
   -192184.04744   -149753.37644  20516813.3784   20516812.9384
    151463.08344    118023.66544  20541386.1134   20541386.4284
    495270.21944    385925.47844  22759246.8424   22759249.1124
    566318.96744                  24591498.7104
    592691.88444    461838.03344  22374619.3034   22374619.1364
 96  4  6  0 11 30.0000000  0  8G20G 6G16G 5G24G 9G 7G 4
   -513070.10844   -399794.82944  22184462.3244   22184462.6784
   -621093.94944   -483968.12644  24080225.9624   24080227.8304
   -647929.25644   -504878.85044  23323774.9314   23323776.8734
   -229372.49944   -178731.38444  20509736.6894   20509736.2484
    178291.36444    138928.82644  20546491.3274   20546491.5304
    578617.21144    450871.14844  22775107.4254   22775109.6484
    637266.08344                  24604998.4134
    678203.83144    528470.71244  22390892.1514   22390891.9454
 96  4  6  0 12  0.0000000  0  8G20G 6G16G 5G24G 9G 7G 4
   -597735.29644   -465767.68644  22168350.9874   22168351.0114
   -689914.50044   -537594.46344  24067130.7334   24067132.3884
   -740038.70044   -576652.35844  23306247.2394   23306249.7904
   -266175.34044   -207408.91644  20502733.2404   20502732.7414
    205583.23744    160195.22544  20551684.9384   20551684.9784
    662195.66644    515997.18344  22791013.2424   22791013.8084
    708266.13544                  24618510.9064
    763927.74944    595268.55644  22407204.6814   22407204.2704
 96  4  6  0 12 30.0000000  0  8G20G 6G16G 5G24G 9G 7G 4
   -682169.85544   -531560.82744  22152283.9034   22152283.9864
   -758704.56544   -591197.03544  24054040.1134   24054043.2854
   -832022.63644   -648328.06544  23288742.9744   23288745.5044
   -302596.94844   -235789.38944  20495802.5954   20495802.1904
    233338.23844    181822.50444  20556966.6124   20556966.5834
    745991.06344    581292.26944  22806959.4044   22806960.1374
    779314.77044                  24632031.6444
    849863.59744    662231.55544  22423557.5174   22423557.3404
 96  4  6  0 13  0.0000000  0  8G20G 6G16G 5G24G 9G 7G 4
   -766340.97944   -597148.67944  22136266.4934   22136267.4424
   -827420.78644   -644742.05344  24040963.4144   24040964.4754
   -923855.82744   -719886.30944  23271267.4904   23271270.6864
   -338595.86344   -263840.48344  20488952.0374   20488951.5614
    261571.69544    203822.60544  20562339.2054   20562339.3724
    830034.86544    646780.91744  22822952.0184   22822953.3724
    850429.44344                  24645562.8864
    936031.64844    729375.48644  22439954.7764   22439954.0204
 96  4  6  0 13 30.0000000  0  7G20G 6G16G 5G24G 9G 4
   -850247.05244   -662530.01444  22120299.5284   22120299.9954
   -896058.48644   -698225.89844  24027901.9714   24027903.2064
  -1015531.61344   -791321.90244  23253822.4454   23253825.2954
   -374149.04744   -291544.25744  20482186.7264   20482186.2244
    290261.05544    226177.95844  20567798.6564   20567798.5214
    914320.26944    712457.82544  22838991.7044   22838993.3064
   1022429.38644    796698.39144  22456395.9004   22456395.6794
 96  4  6  0 14  0.0000000  0  7G20G 6G16G 5G24G 9G 4
   -933931.37444   -727738.54544  22104375.3134   22104375.6494
   -964674.75044   -751693.02744  24014844.0694   24014846.0214
  -1107085.58944   -862662.60544  23236399.9524   23236402.9224
   -409287.39144   -318924.77844  20475500.0794   20475499.3234
    319344.37744    248840.29344  20573332.7464   20573332.9454
    998784.44444    778274.03044  22855064.4994   22855066.0714
   1109014.02344    864166.93444  22472872.3144   22472872.3844
 96  4  6  0 14 30.0000000  0  7G20G 6G16G 5G24G 9G 4
  -1017362.13044   -792749.51144  22088499.1094   22088498.6814
  -1033250.16444   -805128.35944  24001796.1694   24001796.9334
  -1198488.40744   -933885.53044  23219006.1514   23219008.2424
   -443969.06044   -345949.44844  20468900.4444   20468899.8784
    348848.27344    271830.34644  20578947.1984   20578947.2744
   1083456.54344    844252.25344  22871175.7964   22871177.4424
   1195819.57544    931807.61744  22489391.1414   22489390.4314
 96  4  6  0 15  0.0000000  0  8G20G 6G16G 5G24G 9G 7G 4
  -1100532.86444   -857557.86244  22072672.1954   22072672.5584
  -1101783.96644   -858531.25544  23988753.9484   23988753.7134
  -1289742.03744  -1004992.18544  23201641.6664   23201644.2964
   -478190.41344   -372615.42844  20462388.2164   20462387.7274
    378765.96444    295142.83844  20584640.4274   20584640.5494
   1168343.29544    910397.73944  22887329.2714   22887329.8864
        -0.36354                  24699767.2954
   1282845.31044    999619.87144  22505951.4804   22505951.0964
 96  4  6  0 15 30.0000000  0  8G20G 6G16G 5G24G 9G 7G 4
  -1183465.36444   -922180.55944  22056890.2724   22056890.9854
  -1170306.24544   -911925.16344  23975713.8934   23975713.4944
  -1380843.90144  -1075980.58944  23184305.8314   23184308.2514
   -511982.43044   -398946.86444  20455957.7184   20455957.2354
    409088.04944    318770.44244  20590410.5814   20590410.5754
   1253426.20844    976696.07944  22903520.3004   22903521.4914
     71262.29244                  24713328.6114
   1370076.46644   1067592.19044  22522550.9654   22522550.4224
 96  4  6  0 16  0.0000000  0  8G20G 6G16G 5G24G 9G 7G 4
  -1266162.68244   -986620.00644  22041153.2994   22041154.1304
  -1238809.38944   -965304.16844  23962678.1804   23962681.2604
  -1471801.56144  -1146856.61244  23166997.0264   23166999.4704
   -545353.07444   -424949.95844  20449607.6574   20449607.1104
    439823.26144    342719.96344  20596259.2414   20596259.1454
   1338693.74144   1043138.28544  22919746.4894   22919747.5044
    142514.14744                  24726887.3864
   1457512.22144   1135723.94444  22539189.2114   22539188.3554
 96  4  6  0 16 30.0000000  0  8G20G 6G16G 5G24G 9G 7G 4
  -1348634.96444  -1050884.10844  22025459.8154   22025460.1544
  -1307285.57444  -1018662.16644  23949648.6204   23949649.2354
  -1562642.08644  -1217641.36344  23149710.0234   23149712.7604
   -578305.09944   -450626.86144  20443337.1634   20443336.7134
    470970.43144    366990.49144  20602186.2504   20602186.4854
   1424126.09044   1109708.90444  22936003.9264   22936005.1684
    213742.17844                  24740441.1304
   1545130.93344   1203998.24244  22555862.3904   22555861.3104
 96  4  6  0 17  0.0000000  0  7G20G 6G16G 5G24G 9G 4
  -1430866.64544  -1114960.73344  22009811.8554   22009811.9104
  -1375714.16544  -1071983.07044  23936626.4924   23936626.2984
  -1653353.25744  -1288325.33544  23132448.4174   23132452.0614
   -610821.54944   -475964.35044  20437149.4274   20437149.0874
    502549.12644    391597.26944  20608195.5184   20608195.5004
   1509732.14244   1176414.89044  22952294.8024   22952296.0114
   1632924.67944   1272408.95044  22572569.6184   22572568.0024
 96  4  6  0 17 30.0000000  0  7G20G 6G16G 5G24G 9G 4
  -1512867.29944  -1178857.32044  21994206.5134   21994206.6854
  -1444095.03144  -1125266.79244  23923613.5734   23923614.6724
  -1743939.25344  -1358911.76644  23115211.0754   23115213.6494
   -642889.51444   -500952.37344  20431046.9624   20431046.3824
    534569.58244    416548.28344  20614288.6844   20614288.8064
   1595503.11944   1243249.39644  22968615.7984   22968617.8244
   1720895.00744   1340957.24944  22589309.6744   22589309.3394
 96  4  6  0 18  0.0000000  0  7G20G 6G16G 5G24G 9G 4
  -1594617.12044  -1242558.45544  21978650.4304   21978650.7424
  -1512419.62044  -1178506.66844  23910611.9994   23910611.2594
  -1834391.45844  -1429393.91544  23097998.6204   23098001.7214
   -674483.37944   -525570.96844  20425034.8454   20425034.2844
    567047.83844    441856.01744  20620469.2854   20620469.5794
   1681445.42044   1310217.37944  22984969.4414   22984971.4714
   1809046.48544   1409646.69844  22606084.0004   22606083.5894
 96  4  6  0 18 30.0000000  0  7G20G 6G16G 5G24G 9G 4
  -1676075.64544  -1306032.60744  21963149.5954   21963150.0404
  -1580667.52244  -1231686.79444  23897625.2074   23897627.9324
  -1924657.92044  -1499731.35044  23080820.6854   23080823.1034
   -705578.26044   -549800.74644  20419117.6994   20419117.0644
    600005.13344    467537.03244  20626740.7704   20626740.9574
   1767599.52944   1377350.40344  23001364.0894   23001366.5124
   1897405.82444   1478498.12444  22622898.1354   22622897.6014
 96  4  6  0 19  0.0000000  0  7G20G 6G16G 5G24G 9G 4
  -1757267.95744  -1369299.32944  21947699.2624   21947699.8504
  -1648885.72944  -1284843.75444  23884644.0914   23884644.7514
  -2014746.82244  -1569930.43444  23063677.2854   23063677.9784
   -736226.02044   -573682.11644  20413285.6404   20413285.0884
    633389.26144    493550.64444  20633093.5104   20633093.9744
   1853941.32444   1444629.67244  23017794.5404   23017796.2774
   1985950.46644   1547493.93744  22639747.4354   22639747.2974
 96  4  6  0 19 30.0000000  0  8G20G 6G16G 5G24G 9G 7G 4
  -1838164.76544  -1432335.78344  21932305.2894   21932305.7304
  -1717062.03244  -1337968.08144  23871670.6574   23871669.6964
  -2104620.47044  -1639961.78044  23046575.5504   23046577.2814
   -766416.31344   -597207.01344  20407540.7764   20407540.4234
    667211.93444    519905.97644  20639529.8274   20639530.1584
   1940479.26444   1512061.79544  23034262.5924   23034262.8574
        -1.01054                  24821945.2044
   2074713.35744   1616659.80744  22656638.5224   22656638.0694
 96  4  6  0 20  0.0000000  0  8G20G 6G16G 5G24G 9G 7G 4
  -1918742.60044  -1495123.69344  21916971.5904   21916972.1734
  -1785197.50244  -1391060.60244  23858704.7574   23858705.0244
  -2194278.58944  -1709825.18344  23029513.8034   23029515.6604
   -796159.36644   -620383.41244  20401880.5914   20401880.0454
    701450.47844    546585.37044  20646045.1814   20646045.3494
   2027213.99444   1579647.26744  23050768.0544   23050768.2724
     71593.75844                  24835569.4494
   2163677.36844   1685982.40944  22673567.9864   22673567.4754
 96  4  6  0 20 30.0000000  0  8G20G 6G16G 5G24G 9G 7G 4
  -1999024.77244  -1557681.20844  21901694.3594   21901694.6554
  -1853318.78944  -1444142.06944  23845741.0324   23845742.3004
  -2283755.23044  -1779547.19044  23012486.1264   23012488.7494
   -825488.02344   -643236.91044  20396299.8194   20396299.2894
    736058.38644    573552.56944  20652631.0374   20652631.2354
   2114122.76244   1647368.35244  23067306.6154   23067307.1854
    143186.16444                  24849192.6604
   2252813.97444   1755439.50644  22690530.6324   22690530.0394
 96  4  6  0 21  0.0000000  0  8G20G 6G16G 5G24G 9G 7G 4
  -2078995.99644  -1619996.42444  21886476.0764   21886476.6814
  -1921410.62944  -1497200.60644  23832783.2374   23832783.6564
  -2373059.10244  -1849134.56544  22995492.7744   22995495.2224
   -854377.78344   -665748.40644  20390802.1054   20390801.6124
    771064.79744    600830.29844  20659292.1824   20659292.4644
   2201210.30944   1715228.73044  23083878.5904   23083879.4684
    214785.81644                  24862817.5574
   2342126.70444   1825033.82944  22707526.2564   22707526.0324
 96  4  6  0 21 30.0000000  0  8G20G 6G16G 5G24G 9G 7G 4
  -2158671.42144  -1682081.15344  21871314.2834   21871314.3854
  -1989483.38244  -1550244.24644  23819829.1944   23819830.8904
  -2462224.13544  -1918613.73744  22978524.5114   22978527.6874
   -882828.81344   -687918.03544  20385388.1284   20385387.5194
    806465.31144    628415.11644  20666028.8114   20666029.2934
   2288454.01744   1783210.78144  23100480.3254   23100482.9694
    286382.53344                  24876441.7374
   2431572.43644   1894731.79744  22724547.3414   22724546.7964
 96  4  6  0 22  0.0000000  0  8G20G 6G16G 5G24G 9G 7G 4
  -2238046.47544  -1743931.82944  21856210.0764   21856210.1074
  -2057525.30244  -1603263.84844  23806882.0724   23806881.6504
  -2551253.96144  -1987987.54944  22961582.8724   22961585.6164
   -910831.77144   -709738.51944  20380059.2944   20380058.8924
    842263.30844    656309.65944  20672840.7244   20672841.1034
   2375873.40444   1851329.72544  23117115.8824   23117116.8544
    357991.61744                  24890068.4794
   2521150.68744   1964533.04044  22741593.3514   22741592.4814
 96  4  6  0 22 30.0000000  0  7G20G 6G16G 5G24G 9G 4
  -2317136.96544  -1805560.75944  21841159.7054   21841159.7154
  -2125531.87144  -1656255.90744  23793940.4974   23793941.2534
  -2640133.24444  -2057244.07644  22944670.4704   22944672.6694
   -938375.04544   -731200.80744  20374817.7934   20374817.2034
    878480.09444    684530.53444  20679732.8434   20679732.6674
   2463467.59844   1919584.89644  23133784.2194   23133785.5154
   2610882.04544   2034453.56244  22758668.5724   22758668.2604
 96  4  6  0 23  0.0000000  0  8G20G 6G16G 5G24G 9G 7G 4
  -2395939.75944  -1866965.52044  21826163.9684   21826164.1344
  -2193482.57744  -1709204.44344  23781009.9564   23781011.6314
  -2728831.82844  -2126359.79144  22927790.9904   22927794.1594
   -965436.50044   -752287.65644  20369668.2044   20369667.7514
    915127.06944    713086.62444  20686706.5594   20686706.7144
   2551229.42944   1987970.69444  23150484.8614   23150486.7364
        -0.30854                  24917339.4984
   2700773.56644   2104498.88244  22775774.4864   22775772.9464
 96  4  6  0 23 30.0000000  0  8G20G 6G16G 5G24G 9G 7G 4
  -2474470.36144  -1928158.17844  21811219.7404   21811220.3254
  -2261381.57544  -1762112.71044  23768088.9244   23768089.5664
  -2817324.83444  -2195315.31044  22910951.4394   22910952.7844
   -992025.20444   -773006.12444  20364608.5834   20364608.1384
    952173.33244    741953.84144  20693756.2114   20693756.2784
   2639143.43344   2056475.07344  23167214.3004   23167215.7874
     71719.58144                  24930987.3484
   2790831.57744   2174673.94944  22792911.9554   22792911.6114
 96  4  6  0 24  0.0000000  0  8G20G 6G16G 5G24G 9G 7G 4
  -2552726.34644  -1989136.85344  21796328.1574   21796328.0124
  -2329224.05744  -1814976.91944  23755179.3804   23755179.0954
  -2905588.89344  -2264092.44244  22894155.3214   22894158.3684
  -1018134.85944   -793351.31044  20359640.2454   20359639.6994
    989618.09644    771131.58044  20700881.4494   20700881.7814
   2727203.44844   2125093.20644  23183972.1064   23183973.2934
    143495.34044                  24944645.6584
   2881082.50044   2244999.32544  22810085.8584   22810086.2214
 96  4  6  0 24 30.0000000  0  8G20G 6G16G 5G24G 9G 7G 4
  -2630707.29844  -2049901.21544  21781489.3004   21781488.8484
  -2397005.82044  -1867793.80644  23742280.8134   23742280.2524
  -2993609.96544  -2332680.21544  22877405.7404   22877407.9994
  -1043752.29044   -813312.93844  20354765.3464   20354764.9254
   1027459.39344    800618.30744  20708082.5584   20708082.6864
   2815383.67244   2193805.03344  23200752.3944   23200752.9684
    215339.54144                  24958317.3974
   2971524.68644   2315473.74344  22827297.2044   22827296.1204
 96  4  6  0 25  0.0000000  0  8G20G 6G16G 5G24G 9G 7G 4
  -2708429.36744  -2110463.84544  21766698.7704   21766699.0774
  -2464759.45844  -1920588.79944  23729387.6464   23729388.3014
  -3081403.62844  -2401090.79144  22860698.6264   22860700.9634
  -1068898.15644   -832907.11444  20349980.0324   20349979.6304
   1065665.28944    830389.13944  20715352.8194   20715352.8504
   2903653.57644   2262586.72944  23217549.1454   23217550.3314
    287227.22544                  24971997.0144
   3062119.78144   2386067.31844  22844536.2924   22844535.6714
 96  4  6  0 25 30.0000000  0  8G20G 6G16G 5G24G 9G 7G 4
  -2785865.72544  -2170803.84744  21751963.3494   21751963.6864
  -2532481.95544  -1973359.52244  23716500.0694   23716500.7174
  -3168967.86744  -2469322.60044  22844035.7314   22844036.8984
  -1093561.92844   -852125.63444  20345286.8494   20345286.3374
   1104252.84144    860457.36644  20722695.6364   20722695.9954
   2992034.17344   2331454.67344  23234367.8754   23234368.6194
    359162.42444                  24985685.4324
   3152876.98844   2456787.20444  22861806.7084   22861805.8334
 96  4  6  0 26  0.0000000  0  8G20G 6G16G 5G24G 9G 7G 4
  -2862993.52444  -2230903.42144  21737286.2754   21737286.2874
  -2600183.01544  -2026113.51044  23703617.6154   23703618.2654
  -3256314.16744  -2537384.58744  22827414.9114   22827416.0584
  -1117742.49844   -870967.62744  20340685.5304   20340684.9234
   1143235.54744    890833.50144  20730113.9554   20730114.1714
   3080537.48044   2400418.26444  23251209.3894   23251210.0524
    431145.79344                  24999384.5994
   3243785.69744   2527625.14244  22879105.9574   22879104.7194
 96  4  6  0 26 30.0000000  0  8G20G 6G16G 5G24G 9G 7G 4
  -2939811.08944  -2290761.24944  21722668.1534   21722668.5814
  -2667867.53444  -2078854.63344  23690736.8784   23690736.0094
  -3343454.33544  -2605285.94144  22810832.2644   22810833.9194
  -1141443.88344   -889436.24044  20336175.1594   20336174.6404
   1182602.61344    921509.14044  20737605.2704   20737605.4144
   3169182.32644   2469492.14444  23268077.6414   23268079.0974
    503164.90344                  25013090.0444
   3334825.70244   2598565.40244  22896430.0394   22896429.3864
 96  4  6  0 27  0.0000000  0  7G20G 6G16G 5G24G 9G 4
  -3016312.26144  -2350372.53544  21708110.5544   21708110.5314
  -2735548.26744  -2131592.80544  23677857.0824   23677858.5634
  -3430396.64044  -2673033.12444  22794287.5204   22794289.5434
  -1164679.30744   -907541.75844  20331753.6534   20331753.3334
   1222343.19244    952475.82844  20745167.7134   20745167.9284
   3257989.25444   2538692.29544  23284976.7384   23284979.2884
   3425984.97244   2669598.57944  22913777.1414   22913776.1774
 96  4  6  0 27 30.0000000  0  7G20G 6G16G 5G24G 9G 4
  -3092487.30444  -2409729.69544  21693615.3054   21693615.2514
  -2803217.81644  -2184322.26944  23664979.9024   23664980.9704
  -3517156.18744  -2740637.89644  22777777.5464   22777779.4304
  -1187460.22244   -925293.12444  20327418.5544   20327418.0594
   1262451.95844    983729.41544  20752800.2714   20752800.4984
   3346957.18144   2608017.88744  23301906.6894   23301908.8144
   3517262.43244   2740723.86144  22931147.6894   22931146.0434
 96  4  6  0 28  0.0000000  0  7G20G 6G16G 5G24G 9G 4
  -3168325.08444  -2468824.04644  21679183.7964   21679183.8154
  -2870843.27444  -2237017.36044  23652110.9694   23652111.9024
  -3603703.85744  -2808077.56344  22761308.1814   22761310.3824
  -1209767.93644   -942675.75744  20323173.5474   20323173.0554
   1302937.09444   1015276.27344  20760504.0884   20760503.9924
   3436105.59844   2677484.14644  23318871.9584   23318873.0434
   3608681.59744   2811959.56344  22948543.5944   22948542.6174
 96  4  6  0 28 30.0000000  0  7G20G 6G16G 5G24G 9G 4
  -3243807.24044  -2527641.29544  21664820.0214   21664819.9714
  -2938381.65444  -2289644.62044  23639259.0694   23639259.1684
  -3690000.96744  -2875322.00644  22744886.4454   22744888.3204
  -1231558.16744   -959655.15844  20319026.9144   20319026.3944
   1343821.08444   1047133.93344  20768284.0244   20768284.2294
   3525440.48544   2747095.70744  23335871.6204   23335872.6274
   3700271.66744   2883328.44044  22965972.5154   22965971.5414
 96  4  6  0 29  0.0000000  0  7G20G 6G16G 5G24G 9G 4
  -3318965.00144  -2586205.76944  21650517.8704   21650518.2974
  -3005871.11144  -2342233.75544  23626416.0574   23626416.9524
  -3776077.79944  -2942394.79744  22728506.5364   22728509.0234
  -1252868.92744   -976260.94144  20314971.7874   20314971.1584
   1385077.14744   1079281.51444  20776134.7904   20776134.9214
   3614891.78044   2816797.95844  23352893.2834   23352895.9114
   3792005.09644   2954809.01744  22983428.9754   22983427.9694
 96  4  6  0 29 30.0000000  0  7G20G 6G16G 5G24G 9G 4
  -3393801.51044  -2644519.92144  21636276.8054   21636276.6234
  -3073302.86844  -2394777.93644  23613584.3684   23613584.5104
  -3861929.39544  -3009292.07244  22712168.4084   22712171.0684
  -1273697.18344   -992490.74844  20311008.1654   20311007.6654
   1426720.66944   1111731.01144  20784059.4584   20784059.7054
   3704436.68844   2886573.15344  23369932.6404   23369933.2764
   3883886.21744   3026404.68444  23000913.2154   23000912.8504
 96  4  6  0 30  0.0000000  0  7G20G 6G16G 5G24G 9G 4
  -3468324.07744  -2702589.43744  21622095.8324   21622096.1144
  -3140685.84344  -2447284.07644  23600761.1554   23600762.6014
  -3947548.27944  -3076008.03444  22695875.9404   22695877.6194
  -1294046.22044  -1008347.13944  20307135.8874   20307135.4464
   1468757.80044   1144487.22044  20792058.5424   20792058.6834
   3794069.35144   2956416.74644  23386989.9994   23386991.4444
   3975902.30944   3098105.51944  23018423.2254   23018423.0464
 96  4  6  0 30 30.0000000  0  7G20G 6G16G 5G24G 9G 4
  -3542531.41644  -2760413.30744  21607974.8184   21607975.3224
  -3208039.43944  -2499767.35244  23587944.6534   23587944.2484
  -4032940.72544  -3142547.52844  22679626.8634   22679628.5614
  -1313927.51644  -1023839.05344  20303352.3984   20303352.0114
   1511209.13644   1177566.18644  20800137.0574   20800137.1644
   3883774.37344   3026316.70544  23404060.5924   23404061.7354
   4068039.85844   3169900.98844  23035956.1974   23035954.9534
 96  4  6  0 31  0.0000000  0  7G20G 6G16G 5G24G 9G 4
  -3616427.47344  -2817994.64444  21593912.2494   21593912.2214
  -3275378.07744  -2552238.98244  23575130.5164   23575130.4334
  -4118108.28444  -3208911.81044  22663420.1684   22663422.7104
  -1333364.33244  -1038984.62344  20299653.6564   20299653.2584
   1554068.03944   1210962.73544  20808293.0774   20808293.0024
   3973556.41444   3096276.70144  23421144.9584   23421147.2784
   4160288.33944   3241782.92044  23053510.2744   23053510.8354
 96  4  6  0 31 30.0000000  0  7G20G 6G16G 5G24G 9G 4
  -3690003.28444  -2875326.43444  21579911.0114   21579911.3324
  -3342702.63844  -2604699.62144  23562319.0154   23562319.3954
  -4203045.27044  -3275096.40644  22647256.4394   22647258.5274
  -1352350.92644  -1053779.36944  20296040.8114   20296040.2884
   1597330.35444   1244673.63444  20816525.3824   20816525.3944
   4063423.34244   3166302.82644  23438245.6444   23438248.6794
   4252641.78144   3313746.62044  23071085.4164   23071084.9134
 96  4  6  0 32  0.0000000  0  7G20G 6G16G 5G24G 9G 4
  -3763233.38344  -2932388.83544  21565976.1054   21565976.5194
  -3409997.78644  -2657137.31844  23549513.0044   23549514.5574
  -4287731.85744  -3341085.90144  22631141.0694   22631142.3514
  -1370868.94544  -1068208.99044  20292517.1424   20292516.6104
   1640986.12144   1278691.11944  20824832.5974   20824832.9344
   4153391.08544   3236407.47844  23455365.7774   23455368.8794
   4345109.56344   3385799.41344  23088681.0394   23088681.0024
 96  4  6  0 32 30.0000000  0  7G20G 6G16G 5G24G 9G 4
  -3836109.26644  -2989175.21344  21552108.3684   21552108.6634
  -3477264.75244  -2709553.08644  23536713.5064   23536714.3274
  -4372166.60944  -3406879.17244  22615074.4674   22615076.5344
  -1388905.75844  -1082263.64644  20289084.5844   20289084.1964
   1685004.51444   1312991.16244  20833209.0724   20833209.3034
   4243450.02044   3306583.19544  23472504.2114   23472506.4434
   4437698.83644   3457946.89444  23106300.1294   23106299.7424
 96  4  6  0 33  0.0000000  0  7G20G 6G16G 5G24G 9G 4
  -3908600.49644  -3045661.87044  21538313.6474   21538313.7344
  -3544476.09344  -2761925.51844  23523923.5004   23523923.1464
  -4456318.28444  -3472451.84044  22599060.4574   22599063.5154
  -1406422.29544  -1095912.89244  20285751.4164   20285751.0634
   1729370.26844   1347561.88144  20841651.6314   20841651.4944
   4333624.89844   3376849.26744  23489663.8564   23489665.8994
   4530430.96544   3530205.68144  23123946.6724   23123944.6744
 96  4  6  0 33 30.0000000  0  7G20G 6G16G 5G24G 9G 4
  -3980710.60144  -3101851.55444  21524591.5974   21524591.6014
  -3611629.13944  -2814252.50744  23511143.7454   23511143.9334
  -4540191.50844  -3537807.54544  22583099.7304   22583102.0704
  -1423408.89944  -1109149.20644  20282519.0754   20282518.5104
   1774065.16544   1382389.07444  20850156.7144   20850156.8794
   4423912.54544   3447203.20944  23506844.8734   23506847.4874
   4623292.56844   3602565.37344  23141617.8744   23141616.5564
 96  4  6  0 34  0.0000000  0  7G20G 6G16G 5G24G 9G 4
  -4052468.22144  -3157766.57944  21510936.5174   21510936.8574
  -3678737.28944  -2866544.52444  23498373.3074   23498375.4984
  -4623790.04244  -3602949.20244  22567191.2874   22567193.0164
  -1439870.71144  -1121976.59144  20279386.3544   20279385.9334
   1819070.42044   1417458.10444  20858720.8664   20858721.0814
   4514299.48744   3517634.54644  23524044.8124   23524046.2304
   4716267.86144   3675013.63944  23159310.2474   23159309.8764
 96  4  6  0 34 30.0000000  0  7G20G 6G16G 5G24G 9G 4
  -4123897.85044  -3213426.01244  21497343.8394   21497344.2954
  -3745811.95444  -2918810.43444  23485609.6094   23485609.8604
  -4707107.89344  -3667872.14544  22551336.5064   22551338.9104
  -1455805.98944  -1134393.69144  20276353.8824   20276353.3694
   1864394.60744   1452775.65644  20867345.9894   20867346.2914
   4604777.86844   3588137.13144  23541262.3644   23541264.2614
   4809359.04144   3747552.19544  23177024.8784   23177024.2754
 96  4  6  0 35  0.0000000  0  7G20G 6G16G 5G24G 9G 4
  -4195002.79544  -3268832.45144  21483813.3164   21483813.1304
  -3812845.41544  -2971044.25244  23472854.5844   23472855.8924
  -4790138.80344  -3732571.50044  22535535.7594   22535537.4984
  -1471223.66644  -1146407.46644  20273419.8894   20273419.5554
   1910059.09144   1488358.36844  20876035.4994   20876035.8704
   4695351.14244   3658713.64844  23558498.7964   23558501.5554
   4902565.72344   3820180.78644  23194761.3524   23194760.3664
 96  4  6  0 35 30.0000000  0  7G20G 6G16G 5G24G 9G 4
  -4265782.31044  -3323985.31444  21470344.1974   21470344.2694
  -3879833.50444  -3023242.70744  23460106.6894   23460107.0994
  -4872896.99644  -3797058.35644  22519788.1164   22519789.2204
  -1486129.72644  -1158022.57744  20270583.6594   20270583.0474
   1956082.11444   1524220.46344  20884793.4404   20884793.4994
   4786016.93444   3729362.24344  23575751.7284   23575753.9934
   4995892.18444   3892902.69544  23212520.7724   23212521.2894
 96  4  6  0 36  0.0000000  0  7G20G 6G16G 5G24G 9G 4
  -4336249.96944  -3378895.16344  21456934.8194   21456935.2794
  -3946800.54744  -3075424.75544  23447362.7094   23447364.3244
  -4955403.70444  -3861349.23644  22504087.4534   22504089.3614
  -1500543.75744  -1169254.28944  20267840.7164   20267840.2374
   2002459.18144   1560358.43944  20893618.6044   20893618.8674
   4876757.82944   3800069.36744  23593019.5144   23593020.1244
   5089335.18344   3965715.36944  23230302.4644   23230302.1774
 96  4  6  0 36 30.0000000  0  7G20G 6G16G 5G24G 9G 4
  -4406394.90144  -3433553.54044  21443586.7594   21443587.0504
  -4013756.30144  -3127598.02844  23434621.9364   23434621.3924
  -5037688.12844  -3925466.91944  22488429.0314   22488430.8634
  -1514480.35644  -1180113.97444  20265188.6054   20265188.1014
   2049172.99844   1596758.81744  20902508.0534   20902508.1534
   4967572.46644   3870833.93744  23610300.5854   23610300.7514
   5182870.38344   4038599.93644  23248102.3184   23248101.1094
 96  4  6  0 37  0.0000000  0  7G20G 6G16G 5G24G 9G 4
  -4476171.23144  -3487924.69644  21430308.7204   21430309.1084
  -4080683.07744  -3179748.71744  23421885.2244   23421886.6384
  -5119744.32244  -3989406.76644  22472813.8594   22472816.0874
  -1527919.98144  -1190586.40944  20262631.0474   20262630.6614
   2096235.65844   1633431.02444  20911464.0334   20911464.2254
   5058487.42444   3941676.70944  23627601.6174   23627603.6124
   5276500.37444   4111558.35744  23265918.8904   23265917.4104
 96  4  6  0 37 30.0000000  0  7G20G 6G16G 5G24G 9G 4
  -4545579.36544  -3542008.94744  21417100.7504   21417101.0924
  -4147598.95244  -3231890.89944  23409151.4364   23409152.2414
  -5201563.89344  -4053162.23844  22457244.4584   22457246.1664
  -1540848.03644  -1200660.21844  20260171.0644   20260170.4644
   2143640.57244   1670369.91544  20920484.6334   20920484.8344
   5149501.13044   4012596.44644  23644921.6294   23644922.7664
   5370207.22344   4184576.67144  23283750.4244   23283750.5204
 96  4  6  0 38  0.0000000  0  7G20G 6G16G 5G24G 9G 4
  -4614607.38744  -3595796.99744  21403965.1044   21403965.2594
  -4214502.97144  -3284023.86644  23396419.8254   23396421.7574
  -5283111.67744  -4116705.92444  22441726.1834   22441727.3554
  -1553257.92544  -1210330.26144  20257809.6534   20257809.2354
   2191397.28044   1707582.93744  20929572.3854   20929572.5644
   5240601.60744   4083583.76444  23662256.1864   23662258.2484
   5463991.74744   4257655.50444  23301597.2254   23301596.0724
 96  4  6  0 38 30.0000000  0  7G20G 6G16G 5G24G 9G 4
  -4683237.28144  -3649274.82144  21390905.2314   21390905.2634
  -4281386.96244  -3336141.21244  23383693.2594   23383694.8224
  -5364361.16144  -4180017.16944  22426265.3064   22426266.1874
  -1565151.23844  -1219597.77744  20255546.3034   20255545.7724
   2239506.10544   1745070.33644  20938727.1334   20938727.5644
   5331778.63844   4154630.71644  23679607.2854   23679607.7144
   5557850.14544   4330791.89744  23319457.9804   23319456.9034
 96  4  6  0 39  0.0000000  0  7G20G 6G16G 5G24G 9G 4
  -4751469.72244  -3702442.95044  21377920.8114   21377921.0924
  -4348237.59244  -3388232.58144  23370971.6694   23370971.1894
  -5445282.87444  -4243073.02144  22410866.4924   22410868.0424
  -1576528.03644  -1228462.82144  20253381.2704   20253380.8784
   2287983.87144   1782845.21644  20947952.1104   20947952.4374
   5423009.15944   4225719.40844  23696967.7454   23696970.2204
   5651802.93444   4404001.85244  23337336.6254   23337334.4444
 96  4  6  0 39 30.0000000  0  7G20G 6G16G 5G24G 9G 4
  -4819318.99044  -3755312.50044  21365009.7354   21365010.1554
  -4415050.05544  -3440294.19244  23358257.0614   23358258.2334
  -5525867.20044  -4305865.96544  22395531.7904   22395533.5984
  -1587402.83444  -1236936.68944  20251311.9004   20251311.3694
   2336818.62944   1820898.28044  20957245.0744   20957245.2954
   5514264.62544   4296827.48544  23714332.7454   23714335.7724
   5745853.06644   4477287.65844  23355233.5904   23355233.2014
 96  4  6  0 40  0.0000000  0  7G20G 6G16G 5G24G 9G 4
  -4886764.13044  -3807867.14744  21352175.5814   21352175.7494
  -4481793.14444  -3492301.71944  23345556.1174   23345558.2964
  -5606102.01644  -4368386.55944  22380263.8624   22380265.3614
  -1597773.30144  -1245017.58044  20249338.4834   20249337.9914
   2386017.23344   1859234.85844  20966607.3144   20966607.7314
   5605545.58544   4367955.44344  23731703.4944   23731704.6814
   5840025.39944   4550668.65944  23373153.8614   23373154.4714
 96  4  6  0 40 30.0000000  0  7G20G 6G16G 5G24G 9G 4
  -4953805.56844  -3860107.21944  21339417.8744   21339418.2574
  -4548455.60744  -3544246.37244  23332870.5094   23332872.9924
  -5686001.09744  -4430645.54044  22365059.1224   22365060.5604
  -1607634.10044  -1252701.31644  20247462.1874   20247461.6784
   2435572.51544   1897849.36144  20976037.4884   20976037.8144
   5696867.74744   4439115.49644  23749081.3094   23749083.3134
   5934313.60944   4624139.96444  23391096.0484   23391095.7444
 96  4  6  0 41  0.0000000  0  7G20G 6G16G 5G24G 9G 4
  -5020458.78144  -3912044.77944  21326734.3554   21326734.4564
  -4615039.83244  -3596130.00844  23320200.0254   23320200.6114
  -5765576.26244  -4492652.12044  22349916.2814   22349918.2104
  -1616979.24244  -1259983.24544  20245683.6274   20245683.1194
   2485481.38444   1936739.39344  20985534.7244   20985534.9874
   5788234.51944   4510310.34244  23766468.3174   23766470.3244
   6028719.81444   4697703.22844  23409061.2754   23409060.5344
 96  4  6  0 41 30.0000000  0  7G20G 6G16G 5G24G 9G 4
  -5086740.04144  -3963692.51044  21314120.6924   21314121.0674
  -4681571.75344  -3647973.27944  23307540.2314   23307540.8244
  -5844853.48744  -4554426.53844  22334830.4784   22334832.1494
  -1625825.42444  -1266876.37344  20244000.3264   20243999.8394
   2535713.63944   1975881.40944  20995093.7674   20995093.6804
   5879644.50844   4581538.82944  23783862.4994   23783865.2894
   6123217.18244   4771337.50644  23427043.8424   23427042.4154
 96  4  6  0 42  0.0000000  0  7G20G 6G16G 5G24G 9G 4
  -5152662.28744  -4015060.48044  21301576.4284   21301576.7944
  -4748071.75844  -3699791.39744  23294885.9844   23294886.3154
  -5923855.29744  -4615986.34144  22319796.8394   22319798.8894
  -1634179.21544  -1273385.82544  20242410.7084   20242410.1594
   2586264.63244   2015271.79844  21004713.1934   21004713.1284
   5971103.71144   4652805.65544  23801266.2734   23801270.6804
   6217784.52944   4845026.33044  23445039.7774   23445039.4484
 96  4  6  0 42 30.0000000  0  7G20G 6G16G 5G24G 9G 4
  -5218206.60844  -4066133.96744  21289103.8464   21289104.1784
  -4814534.59644  -3751580.55944  23282237.9924   23282238.4344
  -6002560.74444  -4677315.21444  22304819.7634   22304821.2684
  -1642018.97944  -1279494.73644  20240918.8704   20240918.3784
   2637149.43244   2054922.29244  21014396.4874   21014396.2594
   6062643.22844   4724135.07644  23818686.0564   23818686.6024
   6312442.91744   4918786.11044  23463052.7894   23463052.3404
 96  4  6  0 43  0.0000000  0  7G20G 6G16G 5G24G 9G 4
  -5283378.92944  -4116917.59244  21276701.7294   21276701.8894
  -4880978.70644  -3803355.13644  23269594.9014   23269595.2164
  -6080968.06144  -4738411.77944  22289899.7504   22289901.3924
  -1649350.23444  -1285207.40644  20239523.7394   20239523.2304
   2688353.29644   2094821.40944  21024140.4374   21024140.0604
   6154249.37644   4795516.44544  23836117.7264   23836118.4524
   6407187.36744   4992612.91044  23481081.4514   23481079.5134
 96  4  6  0 43 30.0000000  0  7G20G 6G16G 5G24G 9G 4
  -5348197.57044  -4167425.61944  21264367.4834   21264367.1014
  -4947436.62744  -3855140.49244  23256948.4704   23256947.4384
  -6159107.89844  -4799299.91644  22275029.9094   22275030.9684
  -1656199.53444  -1290544.52644  20238220.3224   20238219.8494
   2739827.16044   2134930.91744  21033935.2884   21033935.3174
   6245873.06444   4866911.47444  23853554.0074   23853556.3494
   6501965.44744   5066465.95244  23499117.6404   23499118.0144
 96  4  6  0 44  0.0000000  0  7G20G 6G16G 5G24G 9G 4
  -5412644.51844  -4217644.01044  21252103.6444   21252103.5594
  -5013897.88144  -3906928.42844  23244300.5174   23244301.4424
  -6236951.76444  -4859957.42544  22260216.3534   22260217.6624
  -1662537.58244  -1295483.27044  20237014.2174   20237013.6184
   2791582.89944   2175260.06544  21043784.1414   21043784.0644
   6337529.17744   4938331.73144  23870995.0124   23870997.1394
   6596788.55944   5140354.07844  23517161.6944   23517161.2404
 96  4  6  0 44 30.0000000  0  7G20G 6G16G 5G24G 9G 4
  -5476681.74344  -4267543.13744  21239917.6424   21239917.5644
  -5080333.12644  -3958696.10844  23231657.9724   23231659.3814
  -6314464.41844  -4920356.84644  22245466.7074   22245468.5144
  -1668335.59644  -1300001.20444  20235911.0064   20235910.5844
   2843639.93844   2215823.99144  21053690.2434   21053690.4714
   6429221.61744   5009780.33644  23888444.1994   23888445.8814
   6691682.43944   5214297.33344  23535219.5054   23535219.2614
 96  4  6  0 45  0.0000000  0  7G20G 6G16G 5G24G 9G 4
  -5540305.00144  -4317119.69744  21227810.8164   21227810.6884
  -5146727.64344  -4010432.04244  23219023.3274   23219023.8674
  -6391648.55844  -4980500.30344  22230778.5754   22230780.5844
  -1673586.16944  -1304092.55744  20234911.9134   20234911.3404
   2895999.12044   2256623.34944  21063653.7464   21063653.9684
   6520936.03644   5081246.06744  23905896.5254   23905898.2014
   6786629.20044   5288281.80744  23553287.8554   23553289.0264
 96  4  6  0 45 30.0000000  0  7G20G 6G16G 5G24G 9G 4
  -5603512.73244  -4366372.46644  21215782.6124   21215782.8534
  -5213081.00044  -4062135.91144  23206397.0084   23206397.5054
  -6468514.39344  -5040395.71344  22216151.0674   22216152.3724
  -1678297.24744  -1307763.52344  20234015.2714   20234014.8054
   2948656.56244   2297655.12444  21073674.1114   21073674.2004
   6612665.55644   5152723.54044  23923351.5634   23923353.7854
   6881617.99244   5362299.05144  23571363.4704   23571361.5574
 96  4  6  0 46  0.0000000  0  7G20G 6G16G 5G24G 9G 4
  -5666301.24144  -4415298.56844  21203833.9454   21203834.0114
  -5279393.38544  -4113807.85744  23193778.1124   23193778.9584
  -6545051.37544  -5100034.88744  22201586.4394   22201588.2574
  -1682475.68144  -1311019.44444  20233220.0664   20233219.5964
   3001635.38944   2338937.32644  21083755.5244   21083755.9814
   6704415.79144   5224217.15944  23940811.0394   23940814.3364
   6976666.42444   5436362.75344  23589450.0064   23589449.1214
 96  4  6  0 46 30.0000000  0  7G20G 6G16G 5G24G 9G 4
  -5728654.20844  -4463885.29544  21191968.8594   21191969.0504
  -5345647.41244  -4165434.33444  23181170.4554   23181170.7634
  -6621245.93344  -5159407.23144  22187087.4574   22187089.7904
  -1686119.12644  -1313858.49544  20232526.8404   20232526.3154
   3054949.14744   2380480.51144  21093900.9154   21093901.4044
   6796179.22744   5295721.04644  23958272.6124   23958275.1734
   7071784.40044   5510480.64244  23607550.2524   23607549.8914
 96  4  6  0 47  0.0000000  0  7G20G 6G16G 5G24G 9G 4
  -5790592.19744  -4512148.65444  21180182.2254   21180182.4944
  -5411856.82344  -4217026.04644  23168571.3354   23168571.8214
  -6697098.39144  -5218512.99544  22172653.2674   22172654.8994
  -1689238.63644  -1316289.28244  20231933.1054   20231932.5134
   3108574.23244   2422266.28744  21104105.5564   21104105.6094
   6887946.71044   5367228.12444  23975736.6804   23975739.5694
   7166953.81344   5584638.62344  23625660.6444   23625661.0764
 96  4  6  0 47 30.0000000  0  7G20G 6G16G 5G24G 9G 4
  -5852110.78144  -4560085.20144  21168475.7814   21168475.8254
  -5478027.50444  -4268587.58644  23155979.2154   23155979.1904
  -6772588.60644  -5277336.50144  22158288.0714   22158289.6694
  -1691825.07144  -1318304.68644  20231441.0764   20231440.5714
   3162522.02044   2464303.52844  21114371.3274   21114371.0844
   6979715.19244   5438735.98144  23993200.6364   23993201.1104
   7262191.72544   5658849.97244  23643783.9804   23643782.4524
 96  4  6  0 48  0.0000000  0  7G20G 6G16G 5G24G 9G 4
  -5913200.63744  -4607687.67744  21156850.7214   21156851.0054
  -5544153.80444  -4320114.51944  23143395.2834   23143395.3184
  -6847678.30944  -5335847.91644  22143998.8324   22144000.1234
  -1693863.34844  -1319892.96044  20231052.9974   20231052.4164
   3216797.39944   2506596.03144  21124699.4284   21124699.6874
   7071493.19844   5510251.24344  24010665.6134   24010668.2504
   7357506.05944   5733120.88544  23661922.0084   23661921.5634
 96  4  6  0 48 30.0000000  0  7G20G 6G16G 5G24G 9G 4
  -5973867.54944  -4654960.58444  21145306.2874   21145306.3984
  -5610227.51844  -4371600.49144  23130822.3064   23130821.7714
  -6922366.69744  -5394046.61644  22129785.9564   22129787.2864
  -1695349.55844  -1321051.05044  20230770.3464   20230769.7254
   3271382.32444   2549129.73444  21135086.6074   21135086.5594
   7163289.89144   5581781.05044  24028133.5544   24028135.8434
   7452885.60144   5807442.56144  23680072.1484   23680071.2324
 96  4  6  0 49  0.0000000  0  7G20G 6G16G 5G24G 9G 4
  -6034118.00344  -4701908.98244  21133840.8904   21133841.2244
  -5676251.38344  -4423047.62144  23118258.1204   23118258.0804
  -6996679.64044  -5451952.76244  22115645.2074   22115646.4834
  -1696286.31644  -1321780.99044  20230592.2284   20230591.6384
   3326267.86044   2591897.68744  21145531.3724   21145531.0584
   7255102.17044   5653323.01944  24045604.7054   24045606.5234
   7548324.96844   5881810.90044  23698232.4824   23698231.4794
 96  4  6  0 49 30.0000000  0  7G20G 6G16G 5G24G 9G 4
  -6093935.68144  -4748520.14844  21122457.8044   21122458.0484
  -5742225.57144  -4474456.03144  23105703.8594   23105703.6764
  -7070616.35044  -5509565.74444  22101574.6184   22101576.4164
  -1696682.96244  -1322090.06344  20230516.3184   20230515.8424
   3381455.18044   2634900.79144  21156032.9094   21156033.0074
   7346945.56344   5724889.23544  24063081.2284   24063083.5374
   7643833.70444   5956233.28144  23716406.8104   23716407.3444
 96  4  6  0 50  0.0000000  0  7G20G 6G16G 5G24G 9G 4
  -6153321.38444  -4794794.71544  21111157.3084   21111157.3074
  -5808138.27044  -4525816.54544  23093161.1504   23093160.2004
  -7144190.70944  -5566896.36344  22087573.7374   22087575.4044
  -1696558.12144  -1321992.78144  20230540.3454   20230539.7254
   3436923.15744   2678122.58944  21166588.0824   21166587.7544
   7438824.69044   5796483.29944  24080565.2574   24080567.0274
   7739403.29844   6030703.07444  23734593.6154   23734593.4744
 96  4  6  0 50 30.0000000  0  7G20G 6G16G 5G24G 9G 4
  -6212285.89944  -4840741.08444  21099936.5614   21099936.7814
  -5873987.55744  -4577127.62944  23080630.4854   23080629.1774
  -7217436.89544  -5623971.27344  22073635.3394   22073637.2344
  -1695911.39644  -1321488.84144  20230663.5044   20230663.1084
   3492664.98544   2721557.77944  21177195.2974   21177195.2604
   7530718.14244   5868088.54944  24098052.5784   24098055.1854
   7835036.40644   6105222.36344  23752792.7194   23752793.2334
 96  4  6  0 51  0.0000000  0  7G20G 6G16G 5G24G 9G 4
  -6270817.40644  -4886350.04144  21088798.3714   21088798.7884
  -5939779.01944  -4628393.67544  23068110.5464   23068110.5824
  -7290346.84444  -5680784.16944  22059761.2984   22059763.3604
  -1694749.23844  -1320583.26344  20230884.3964   20230883.8344
   3548680.37744   2765206.13244  21187854.8224   21187854.8794
   7622613.67544   5939695.38144  24115539.6154   24115542.4284
   7930729.82044   6179788.64944  23771002.4464   23771001.9234
 96  4  6  0 51 30.0000000  0  7G20G 6G16G 5G24G 9G 4
  -6328940.04244  -4931640.39844  21077737.9614   21077738.2204
  -6005540.64544  -4679636.45944  23055596.6514   23055596.6364
  -7362930.83644  -5737343.08144  22045949.0474   22045950.6984
  -1693101.90644  -1319299.63244  20231197.9094   20231197.2934
   3604944.61644   2809048.39344  21198561.2264   21198561.1914
   7714488.67844   6011286.21844  24133022.1274   24133024.4904
   8026457.95444   6254381.97144  23789218.3474   23789218.9784
 96  4  6  0 52  0.0000000  0  7G20G 6G16G 5G24G 9G 4
  -6386652.36444  -4976611.03544  21066755.7394   21066755.5684
  -6071267.84444  -4730852.41344  23043089.4364   23043088.9844
  -7435173.72244  -5793636.20044  22032201.6504   22032203.2754
  -1690934.24744  -1317610.54944  20231610.5644   20231609.9764
   3661482.81944   2853104.13944  21209320.2294   21209319.8834
   7806332.82344   6082853.05544  24150499.8114   24150498.4564
   8122219.97144   6329001.72344  23807442.0314   23807443.1794
 96  4  6  0 52 30.0000000  0  7G20G 6G16G 5G24G 9G 4
  -6443941.42344  -5021251.85744  21055854.1384   21055854.1944
  -6136974.86844  -4782052.65644  23030585.7314   23030585.9014
  -7507053.95144  -5849646.72844  22018523.0294   22018524.1534
  -1688227.93144  -1315501.73444  20232125.4574   20232125.0794
   3718314.65044   2897388.67544  21220134.9324   21220134.9104
   7898144.69644   6154394.73344  24167971.3804   24167973.0044
   8218013.25444   6403645.81944  23825670.4884   23825670.1584
 96  4  6  0 53  0.0000000  0  7G20G 6G16G 5G24G 9G 4
  -6500812.15744  -5065566.70644  21045031.6244   21045031.9454
  -6202687.34644  -4833257.14844  23018081.2484   23018080.9164
  -7578574.23744  -5905376.78244  22004913.0694   22004914.9944
  -1685014.59644  -1312997.83844  20232736.8214   20232736.3514
   3775433.10844   2941896.55844  21231004.3524   21231004.2664
   7989913.28044   6225902.67644  24185433.5704   24185437.5244
   8313812.61244   6478294.65444  23843900.8664   23843899.1534
 96  4  6  0 53 30.0000000  0  7G20G 6G16G 5G24G 9G 4
  -6557254.87044  -5109548.03944  21034291.3234   21034291.3934
  -6268400.12544  -4884461.88644  23005576.2384   23005575.8804
  -7649728.88444  -5960821.92544  21991372.9004   21991374.5124
  -1681259.03044  -1310071.43044  20233451.5824   20233451.2104
   3832849.66544   2986636.73144  21241930.2224   21241930.2394
   8081636.86844   6297375.50244  24202888.9804   24202893.6234
   8409627.28244   6552955.40744  23862134.1704   23862132.9414
 96  4  6  0 54  0.0000000  0  7G20G 6G16G 5G24G 9G 4
  -6613246.21344  -5153177.66044  21023636.2644   21023636.2754
  -6334090.81944  -4935649.40044  22993075.5184   22993075.5394
  -7720488.02844  -6015958.88344  21977907.6404   21977909.4634
  -1676938.64344  -1306704.89944  20234273.6854   20234273.1194
   3890573.58844   3031616.40844  21252914.8884   21252914.9654
   8173325.28144   6368820.93744  24220336.5224   24220339.7214
   8505467.66644   6627636.19544  23880371.2934   23880370.4554
 96  4  6  0 54 30.0000000  0  7G20G 6G16G 5G24G 9G 4
  -6668779.26744  -5196450.16044  21013068.6164   21013068.9804
  -6399735.69644  -4986801.22144  22980584.0794   22980584.0624
  -7790860.55944  -6070794.57544  21964516.3814   21964518.0514
  -1672077.39844  -1302916.92444  20235198.6654   20235198.3714
   3948596.02044   3076828.68844  21263956.1544   21263956.5524
   8264988.01744   6440246.41944  24237780.2634   24237782.5304
   8601343.16644   6702344.37644  23898614.8824   23898615.2774
 96  4  6  0 55  0.0000000  0  7G20G 6G16G 5G24G 9G 4
  -6723836.70144  -5239352.05644  21002591.8174   21002591.8354
  -6465299.64244  -5037889.99044  22968107.3054   22968107.5344
  -7860842.97244  -6125326.28144  21951199.0224   21951200.5584
  -1666661.07644  -1298696.41644  20236229.3304   20236228.8874
   4006916.89444   3122273.51744  21275054.1054   21275054.5164
   8356649.07344   6511670.53044  24255222.8464   24255225.9484
   8697271.75644   6777093.88644  23916870.4934   23916870.2894
 96  4  6  0 55 30.0000000  0  7G20G 6G16G 5G24G 9G 4
  -6778432.35144  -5281894.11644  20992202.4994   20992202.6244
  -6530789.77144  -5088921.21444  22955644.5984   22955644.7544
  -7930440.09544  -6179557.76244  21937955.3254   21937957.0544
  -1660692.57544  -1294045.64044  20237365.1454   20237364.9394
   4065507.21444   3167928.31044  21286203.6844   21286203.6174
   8448299.89344   6583086.67644  24272662.7094   24272666.0684
   8793235.47844   6851870.79944  23935132.3834   23935132.2384
 96  4  6  0 56  0.0000000  0  7G 6G16G20G 5G24G 9G 4
  -6596215.83344  -5139902.52544  22943194.1714   22943194.3744
  -7999648.44744  -6233486.30144  21924785.0924   21924786.4374
  -6832579.48244  -5324086.68344  20981898.7844   20981898.8224
  -1654202.72844  -1288988.62444  20238599.9784   20238599.5654
   4124354.51444   3213783.34644  21297401.5304   21297401.7494
   8539938.57544   6654493.35144  24290099.8984   24290102.1614
   8889226.00044   6926668.60944  23953397.8254   23953397.2364
 96  4  6  0 56 30.0000000  0  7G 6G16G20G 5G24G 9G 4
  -6661592.24044  -5190845.14344  22930753.4834   22930753.8804
  -8068474.54144  -6287116.98244  21911688.0744   21911689.6204
  -6886278.04044  -5365929.70844  20971679.8294   20971680.3204
  -1647183.30544  -1283518.95444  20239935.8684   20239935.6164
   4183471.55144   3259848.56144  21308651.1894   21308651.3834
   8631563.35244   6725889.26044  24307537.1704   24307536.7874
   8985246.93444   7001490.09944  23971669.9444   23971671.2824
 96  4  6  0 57  0.0000000  0  7G 6G16G20G 5G24G 9G 4
  -6726951.94844  -5241774.75744  22918316.1034   22918315.9684
  -8136905.64644  -6340439.88744  21898665.8764   21898667.1964
  -6939525.39544  -5407421.15144  20961547.2454   20961547.7164
  -1639619.91144  -1277625.40744  20241375.1804   20241374.6834
   4242846.36244   3306114.64544  21319950.0844   21319950.2394
   8723162.17244   6797264.89644  24324967.0574   24324969.9644
   9081287.65344   7076326.99944  23989945.9234   23989945.1274
 96  4  6  0 57 30.0000000  0  7G 6G20G16G 5G24G 9G 4
  -6792300.64844  -5292695.78944  22905879.7984   22905880.7434
  -6992316.28644  -5448556.90844  20951501.7304   20951501.9344
  -8204900.06444  -6393422.51144  21885726.6104   21885728.5064
  -1631494.30744  -1271293.77244  20242921.4104   20242921.1674
   4302495.28144   3352594.31644  21331300.7954   21331301.0904
   8814734.16544   6868619.60544  24342392.1174   24342395.1584
   9177360.86644   7151189.21744  24008227.7134   24008226.1874
 96  4  6  0 58  0.0000000  0  7G 6G20G16G 5G24G 9G 4
  -6857640.38944  -5343609.82644  22893446.1664   22893446.4644
  -7044650.01644  -5489336.43344  20941542.8184   20941542.9194
  -8272465.79744  -6446071.09244  21872869.5894   21872870.8974
  -1622820.08544  -1264534.64344  20244572.0294   20244571.5914
   4362410.00144   3399281.10544  21342702.5274   21342702.6534
   8906264.06344   6939941.54244  24359809.8644   24359813.4884
   9273467.94044   7226077.82844  24026517.1774   24026516.7584
 96  4  6  0 58 30.0000000  0  7G 6G20G16G 5G24G 9G 4
  -6922964.28744  -5394511.52444  22881015.5324   22881016.1484
  -7096526.06244  -5529759.32244  20931671.2724   20931671.1994
  -8339615.92244  -6498395.81344  21860091.2334   21860092.1494
  -1613606.43644  -1257355.18144  20246325.4564   20246325.0654
   4422574.20544   3446162.29844  21354151.3124   21354151.4244
   8997745.65244   7011225.85744  24377219.0544   24377221.3864
   9369602.50744   7300987.86844  24044811.0114   24044808.9394
 96  4  6  0 59  0.0000000  0  7G 6G20G16G 5G24G 9G 4
  -6988248.45544  -5445382.26944  22868592.1304   22868591.9904
  -7147931.70844  -5569815.66444  20921889.1134   20921889.3154
  -8406333.64744  -6550383.60544  21847395.6884   21847396.9924
  -1603860.56744  -1249761.01044  20248179.9844   20248179.5554
   4482971.31544   3493224.97244  21365644.6394   21365645.0224
   9089185.96344   7082478.02544  24394619.5054   24394620.6054
   9465762.78144   7375917.94644  24063109.1124   24063109.7434
 96  4  6  0 59 30.0000000  0  7G 6G20G16G 5G24G 9G 4
  -7053486.19444  -5496216.82744  22856177.9624   22856178.0444
  -7198881.61844  -5609516.88044  20912193.4644   20912193.9594
  -8472636.02444  -6602047.75344  21834778.6264   21834779.5404
  -1593603.07644  -1241768.17144  20250131.8674   20250131.5134
   4543592.82844   3540462.50644  21377180.4204   21377180.5004
   9180568.16544   7153684.85844  24412009.8094   24412011.8524
   9561942.20544   7450862.94044  24081411.6044   24081411.6994
 96  4  6  1  0  0.0000000  0  7G 6G20G16G 5G24G 9G 4
  -7118657.00444  -5546999.23244  22843776.4554   22843776.9114
  -7249365.94744  -5648855.31244  20902586.3524   20902586.5414
  -8538543.02844  -6653403.81844  21822236.3794   21822237.7654
  -1582830.93644  -1233374.30544  20252181.6594   20252181.3234
   4604440.95544   3587876.63044  21388759.5184   21388759.7184
   9271896.21944   7224849.51244  24429388.3844   24429391.2224
   9658148.78344   7525829.10844  24099719.1284   24099719.4694
 96  4  6  1  0 30.0000000  0  7G 6G20G16G 5G24G 9G 4
  -7183763.84944  -5597731.79444  22831387.6254   22831387.3294
  -7299393.86444  -5687838.10044  20893066.5214   20893066.6604
  -8604057.76144  -6704454.21244  21809770.1094   21809771.1594
  -1571532.38244  -1224570.24244  20254331.6754   20254331.3044
   4665522.90044   3635472.94544  21400382.6584   21400382.9544
   9363166.44644   7295969.10844  24446756.4574   24446757.5254
   9754366.56844   7600803.97544  24118028.6764   24118029.0694
 96  4  6  1  1  0.0000000  0  7G 6G20G16G 5G24G 9G 4
  -7248827.64144  -5648430.78844  22819005.9974   22819006.5354
  -7348984.51744  -5726480.16144  20883629.8954   20883629.8324
  -8669194.25244  -6755209.87844  21797374.3724   21797375.3434
  -1559706.95944  -1215355.63344  20256581.9074   20256581.6064
   4726828.63044   3683243.63444  21412049.0154   21412049.0744
   9454343.55344   7367016.12244  24464107.0144   24464110.6214
   9850575.61044   7675772.05244  24136337.8874   24136336.3424
 96  4  6  1  1 30.0000000  0  7G 6G20G16G 5G24G 9G 4
  -7313836.32744  -5699086.92144  22806635.4554   22806635.1204
  -7398122.12644  -5764769.20144  20874279.1374   20874279.4834
  -8733945.02944  -6805664.98444  21785052.8884   21785054.0734
  -1547321.18744  -1205704.38944  20258938.9534   20258938.4254
   4788387.13044   3731211.29244  21423762.9774   21423762.9864
   9545431.23644   7437993.46944  24481441.8144   24481444.5394
   9946795.57444   7750748.63244  24154646.1974   24154645.4644
 96  4  6  1  2  0.0000000  0  7G 6G20G16G 5G24G 9G 4
  -7378788.45844  -5749698.93444  22794276.0604   22794275.2564
  -7446795.22344  -5802696.28144  20865017.1124   20865017.4104
  -8798296.16944  -6855808.69744  21772807.0194   21772808.2644
  -1534364.24444  -1195608.07344  20261404.6424   20261404.1904
   4850195.39044   3779373.57144  21435524.8694   21435525.0884
   9636430.67744   7508902.06544  24498757.2154   24498760.4204
  10043013.77044   7825723.84044  24172956.0254   24172956.3564
 96  4  6  1  2 30.0000000  0  7G 6G20G16G 5G24G 9G 4
  -7443688.04944  -5800270.01144  22781925.4324   22781925.4394
  -7494981.47644  -5840244.00544  20855847.6784   20855847.9634
  -8862223.26744  -6905621.98644  21760642.3064   21760643.8314
  -1520828.74744  -1185060.93544  20263980.3324   20263979.9134
   4912256.16644   3827732.61144  21447334.4564   21447334.8494
   9727344.84544   7579744.20444  24516056.6224   24516058.2874
  10139228.28044   7900696.16144  24191265.7584   24191267.3604
 96  4  6  1  3  0.0000000  0  7G 6G20G16G 5G24G 9G 4
  -7508537.85544  -5850802.27844  22769585.1784   22769584.8814
  -7542657.43644  -5877394.09144  20846774.9844   20846775.1204
  -8925699.17244  -6955083.69544  21748563.1744   21748564.6684
  -1506715.10244  -1174063.29344  20266666.0864   20266665.7624
   4974566.56444   3876286.16044  21459191.7494   21459191.8724
   9818185.07844   7650528.71344  24533344.1854   24533345.4184
  10235458.63644   7975680.81944  24209576.7364   24209575.4634
 96  4  6  1  3 30.0000000  0  7G 6G20G16G 5G24G 9G 4
  -7573351.99844  -5901306.76844  22757251.2774   22757250.9584
  -7589816.93444  -5914141.74744  20837800.9824   20837800.9224
  -8988729.60944  -7004198.28644  21736568.7584   21736570.0184
  -1492048.75444  -1162634.97444  20269457.0664   20269456.6094
   5037105.95644   3925018.15044  21471092.5024   21471092.9034
   9908963.77844   7721265.27144  24550618.6934   24550621.8154
  10331684.66744   8050662.11644  24227887.1584   24227885.3274
 96  4  6  1  4  0.0000000  0  7G 6G20G16G 5G24G 9G 4
  -7638151.90744  -5951800.16344  22744920.2444   22744920.0304
  -7636476.30944  -5950499.70044  20828921.8104   20828922.1554
  -9051315.86244  -7052966.75644  21724658.6844   21724659.6624
  -1476867.13944  -1150805.14944  20272346.0164   20272345.6414
   5099850.61044   3973910.08644  21483032.4784   21483032.9004
   9999676.47244   7791950.40644  24567879.9254   24567885.7894
  10427878.92744   8125618.70544  24246193.4024   24246195.9554
 96  4  6  1  4 30.0000000  0  7G 6G20G16G 5G24G 9G 4
  -7702914.85144  -6002264.75744  22732596.4504   22732596.2104
  -7682614.95244  -5986451.88244  20820141.8494   20820142.1774
  -9113445.15244  -7101379.15744  21712835.9824   21712837.4804
  -1461165.93244  -1138570.45044  20275333.7274   20275333.3744
   5162826.42744   4022982.14744  21495016.3314   21495016.8064
  10090342.85844   7862599.41944  24585133.8944   24585137.0314
  10524068.09544   8200571.28644  24264498.2794   24264497.7494
 96  4  6  1  5  0.0000000  0  7G 6G20G16G 5G24G 9G 4
  -7767630.14444  -6052692.22544  22720280.8924   22720281.0724
  -7728241.67244  -6022005.17044  20811459.4154   20811459.4404
  -9175124.35544  -7149440.83744  21701099.2084   21701099.9564
  -1444947.52444  -1125932.73744  20278420.0554   20278419.7294
   5226052.04444   4072248.85544  21507047.8384   21507048.2404
  10180960.65544   7933210.59244  24602378.1224   24602381.4674
  10620255.43644   8275522.43844  24282801.4114   24282801.0554
 96  4  6  1  5 30.0000000  0  7G 6G20G16G 5G24G 9G 4
  -7832301.81044  -6103085.69644  22707974.4134   22707974.0164
  -7773374.19144  -6057173.36044  20802871.3694   20802871.4294
  -9236360.99344  -7197157.66644  21689446.0144   21689447.4654
  -1428210.13144  -1112890.62344  20281605.0204   20281604.5804
   5289530.18244   4121712.33744  21519127.2184   21519127.4014
  10271512.07844   8003770.08844  24619609.7074   24619614.2264
  10716427.38944   8350461.60344  24301102.6634   24301102.7514
 96  4  6  1  6  0.0000000  0  7G 6G20G16G 5G24G 9G 4
  -7896931.76444  -6153446.65944  22695675.4414   22695675.4224
  -7818024.92844  -6091966.13944  20794374.4754   20794374.3304
  -9297152.98544  -7244528.01444  21677877.6444   21677879.0904
  -1410940.12544  -1099433.48444  20284891.4114   20284890.9844
   5353268.44544   4171378.51544  21531256.0524   21531256.5014
  10361969.49844   8074256.30544  24636821.8154   24636825.9494
  10812602.52144   8425403.23944  24319404.0974   24319402.5164
 96  4  6  1  6 30.0000000  0  7G20G 6G16G 5G24G 9G 4
  -7862156.94044  -6126354.71944  20785976.3184   20785976.8604
  -7961482.91944  -6203746.23144  22683391.9574   22683392.2154
  -9357470.88244  -7291528.93344  21666399.3204   21666400.4204
  -1393086.09544  -1085521.26944  20288288.9954   20288288.4574
   5417295.59944   4221269.79744  21543440.1714   21543440.4824
  10452358.98544   8144689.59744  24654023.5954   24654028.9514
  10908828.55044   8500384.56844  24337715.6744   24337713.6544
 96  4  6  1  7  0.0000000  0  8G20G 6G16G 5G24G 9G17G 4
  -7905808.62444  -6160369.01444  20777669.5684   20777669.9174
  -8025996.86644  -6254016.80344  22671114.6494   22671115.3144
  -9417337.19044  -7338177.96644  21655007.3004   21655008.9164
  -1374661.67244  -1071164.58944  20291795.0154   20291794.6514
   5481567.86144   4271352.07744  21555670.7464   21555671.0514
  10542645.26044   8215042.44444  24671203.5874   24671204.9614
        -0.15954                  25532171.2254
  11005065.69944   8575374.58144  24356028.4314
 96  4  6  1  7 30.0000000  0  8G20G 6G16G 5G24G 9G17G 4
  -7949007.08144  -6194030.15244  20769449.0684   20769449.3704
  -8090499.78244  -6304278.78044  22658840.2354   22658840.4374
  -9476777.07044  -7384494.72244  21643696.5284   21643697.7894
  -1355698.24344  -1056387.90444  20295403.6474   20295403.2074
   5546020.01744   4321574.53544  21567935.5254   21567935.8834
  10632807.48044   8285298.62044  24688361.4244   24688364.2774
    -98407.45644                  25513447.2644
  11101275.87544   8650343.50444  24374337.4814   24374334.2244
 96  4  6  1  8  0.0000000  0  8G20G 6G16G 5G24G 9G17G 4
  -7991712.29744  -6227306.94544  20761322.8624   20761322.8014
  -8154953.58144  -6354502.49144  22646575.2404   22646575.7144
  -9535773.37744  -7430465.83744  21632469.5404   21632470.5684
  -1336177.87744  -1041177.23844  20299118.3054   20299117.9304
   5610660.26144   4371943.55444  21580236.1044   21580236.6774
  10722878.66544   8355483.88044  24705502.3694   24705505.3274
   -196749.27344                  25494735.0094
  11197474.73744   8725303.62444  24392643.3874   24392643.1494
 96  4  6  1  8 30.0000000  0  8G20G 6G16G 5G24G 9G17G 4
  -8033905.82644  -6260185.01744  20753293.7564   20753293.8824
  -8219338.16344  -6404672.27744  22634323.5964   22634323.5284
  -9594312.32444  -7476080.57344  21621329.8104   21621330.9834
  -1316098.79144  -1025531.20744  20302939.1034   20302938.8064
   5675494.21244   4422463.50844  21592573.6874   21592574.1924
  10812882.43244   8425616.63844  24722629.6754   24722631.7724
   -295004.70744                  25476037.8844
  11293658.49544   8800252.02544  24410946.2364   24410946.6464
 96  4  6  1  9  0.0000000  0  8G20G 6G16G 5G24G 9G17G 4
  -8075596.70644  -6292671.41844  20745359.8444   20745359.9874
  -8283656.17544  -6454790.17944  22622084.4954   22622084.8784
  -9652401.38844  -7521344.74844  21610276.2604   21610277.2694
  -1295473.40944  -1009459.48844  20306864.0284   20306863.7174
   5740521.89044   4473134.42344  21604948.1514   21604948.6274
  10902805.84244   8495686.76544  24739741.3874   24739744.5744
   -393159.01244                  25457356.0654
  11389811.22644   8875176.22144  24429243.5614   24429243.1524
 96  4  6  1  9 30.0000000  0  7G 6G20G16G 5G24G 9G 4
  -8347921.63444  -6504867.13644  22609855.2544   22609855.1604
  -8116794.67344  -6324773.73044  20737520.2944   20737520.4414
  -9710052.44944  -7566267.62144  21599305.5044   21599306.3834
  -1274327.66244   -992982.29344  20310888.0414   20310887.7484
   5805723.61344   4523940.95544  21617355.4924   21617355.7324
  10992631.59544   8565680.72544  24756834.4444   24756834.3064
  11485921.54844   8950067.30944  24447532.6924   24447533.8664
 96  4  6  1 10  0.0000000  0  7G20G 6G16G 5G24G 9G 4
  -8157490.43044  -6356484.70644  20729776.3984   20729776.5064
  -8412138.22344  -6554906.00244  22597635.1644   22597635.4154
  -9767253.17444  -7610839.58744  21588420.3764   21588421.6054
  -1252657.91144   -976096.78144  20315011.5274   20315011.2044
   5871127.04144   4574904.66044  21629801.4464   21629801.9424
  11082344.24944   8635586.61644  24773906.6644   24773910.2644
  11582002.75744   9024935.77644  24465816.6424   24465817.4354
 96  4  6  1 10 30.0000000  0  7G20G 6G16G 5G24G 9G 4
  -8197687.25044  -6387806.90344  20722127.1064   20722127.3944
  -8476297.34144  -6604900.08744  22585426.0584   22585425.7724
  -9823981.96744  -7655043.81044  21577625.3574   21577626.5044
  -1230452.79544   -958794.09844  20319237.3434   20319236.8944
   5936752.86944   4626041.66444  21642289.3804   21642289.7674
  11171943.64244   8705404.23744  24790956.1244   24790958.4214
  11678081.34044   9099802.18544  24484099.5514   24484099.4394
 96  4  6  1 11  0.0000000  0  8G 6G20G16G 5G24G 9G17G 4
  -8540397.90844  -6654848.56244  22573228.1434   22573227.1134
  -8237379.27444  -6418735.75444  20714573.7944   20714574.2544
  -9880231.44744  -7698874.54744  21566921.2234   21566922.7634
  -1207706.41244   -941069.65144  20323565.8524   20323565.3804
   6002608.26244   4677357.54744  21654821.4514   21654821.8404
  11261431.74044   8775135.14344  24807985.6904   24807989.4914
        -1.12854        -1.10454  25382902.3384
  11774162.57944   9174670.62944  24502382.9044   24502383.2334
 96  4  6  1 11 30.0000000  0  8G 6G20G16G 5G24G 9G17G 4
  -8604468.19744  -6704773.44044  22561035.8694   22561035.9384
  -8276573.65344  -6449276.82644  20707115.2394   20707115.4144
  -9936023.68244  -7742348.98144  21556304.5774   21556305.1594
  -1184443.77444   -922942.92344  20327992.1474   20327991.7834
   6068664.80744   4728830.17644  21667391.5844   21667391.9594
  11350790.67144   8844765.36444  24824989.0294   24824995.3324
    -97465.08244    -75946.82444  25364356.6364
  11870221.32044   9249521.62844  24520662.4024   24520662.3514
 96  4  6  1 12  0.0000000  0  8G 6G20G16G 5G24G 9G17G 4
  -8668498.67544  -6754667.29344  22548850.7554   22548851.2354
  -8315259.56344  -6479421.69544  20699753.9414   20699754.0224
  -9991357.78944  -7785466.43844  21545774.8204   21545775.5944
  -1160654.95444   -904406.18944  20332519.1114   20332518.8384
   6134941.75744   4780474.55044  21680003.8104   21680004.1354
  11440021.00244   8914295.37644  24841970.6844   24841974.7354
   -194814.51644   -151803.32744  25345832.2234
  11966269.25444   9324364.18844  24538939.2484   24538939.4214
 96  4  6  1 12 30.0000000  0  8G 6G20G16G 5G24G 9G17G 4
  -8732502.68944  -6804540.52744  22536671.1734   22536671.3214
  -8353453.97644  -6509183.57344  20692485.4494   20692485.8974
 -10046251.55344  -7828240.77444  21535328.8404   21535329.7384
  -1136343.50544   -885462.21244  20337145.5444   20337145.1764
   6201415.14344   4832271.98544  21692653.3584   21692653.5694
  11529104.91944   8983711.32744  24858921.2534   24858924.8084
   -292090.19244   -227602.38744  25327322.8384
  12062272.80044   9399172.09944  24557210.3424   24557212.2714
 96  4  6  1 13  0.0000000  0  8G 6G20G16G 5G24G 9G17G 4
  -8796482.39744  -6854394.82144  22524495.8974   22524496.0274
  -8391135.94744  -6538546.14744  20685315.1804   20685315.0654
 -10100701.11344  -7870668.97644  21524967.3904   21524968.1794
  -1111498.54744   -866102.51444  20341873.4384   20341873.1044
   6268087.75244   4884224.66444  21705340.7534   21705340.9854
  11618043.58744   9053014.11144  24875847.0174
   -389288.52744   -303341.15844  25308824.9674
  12158216.38344   9473933.31844  24575467.2984   24575467.6854
 96  4  6  1 13 30.0000000  0  8G 6G20G16G 5G24G 9G17G 4
  -8860411.23744  -6904209.47644  22512331.0674   22512330.8724
  -8428276.85744  -6567487.11344  20678247.3124   20678247.4704
 -10154665.92444  -7912719.44844  21514697.8054   21514699.4434
  -1086087.16644   -846301.44644  20346708.8434   20346708.5034
   6334978.66344   4936347.44344  21718069.6874   21718069.6744
  11706849.26644   9122213.29244  24892745.7964   24892749.6944
   -486384.70644                  25290345.8694
  12254127.85944   9548669.53744  24593716.3494   24593717.4534
 96  4  6  1 14  0.0000000  0  8G 6G20G16G 5G24G 9G17G 4
  -8924274.69744  -6953973.17944  22500178.7454   22500178.3924
  -8464885.99144  -6596013.71144  20671280.5004   20671280.7644
 -10208122.59044  -7954373.95744  21504525.4224   21504526.9594
  -1060094.15944   -826047.16744  20351655.2934   20351654.9944
   6402088.26744   4988640.63744  21730839.8044   21730840.0254
  11795518.03544   9191305.71044  24909618.9154   24909622.9844
   -583370.67844                  25271885.0064
  12350006.72044   9623380.33344  24611962.6024   24611963.1174
 96  4  6  1 14 30.0000000  0  8G 6G20G16G 5G24G 9G17G 4
  -8988088.19344  -7003697.96444  22488035.3394   22488034.9654
  -8500988.38244  -6624145.44444  20664410.5304   20664410.9104
 -10261079.95444  -7995639.40644  21494447.9434   21494448.9994
  -1033537.78744   -805353.90344  20356708.5744   20356708.2914
   6469382.52844   5041077.72344  21743645.8234   21743645.8304
  11884032.73444   9260278.08544  24926463.3324   24926464.5174
   -680254.30844                  25253447.0014
  12445815.40044   9698036.46444  24630194.7274   24630195.2934
 96  4  6  1 15  0.0000000  0  8G 6G20G16G 5G24G 9G17G 4
  -9051822.48144  -7053361.01644  22475906.7234   22475906.0104
  -8536535.73844  -6651844.67644  20657646.1424   20657646.1724
 -10313495.93044  -8036482.99144  21484473.4104   21484475.0434
  -1006397.35644   -784205.52444  20361873.3784   20361873.0594
   6536875.93844   5093669.98744  21756489.2294   21756489.6304
  11972439.81344   9329166.62344  24943286.5464   24943291.2594
   -776988.19144                  25235039.8204
  12541601.20344   9772674.72344  24648421.9264   24648425.0854
 96  4  6  1 15 30.0000000  0  8G 6G16G20G 5G24G 9G17G 4
  -9115478.16644  -7102962.82244  22463793.9394   22463793.1204
 -10365370.96144  -8076905.06444  21474602.1674   21474603.5544
  -8571527.71344  -6679111.14744  20650987.2344   20650987.5204
   -978682.15744   -762609.27144  20367147.3864   20367147.0634
   6604551.92744   5146404.51444  21769367.5184   21769367.5634
  12060741.33144   9397972.93744  24960088.6024   24960092.3684
   -873567.87444   -680700.68144  25216664.9474
  12637368.00144   9847298.21244  24666646.3174   24666643.0864
 96  4  6  1 16  0.0000000  0  8G 6G16G20G 5G24G 9G17G 4
  -9179056.70844  -7152504.52344  22451695.5324   22451694.8834
 -10416720.64744  -8116917.78044  21464830.4664   21464831.8524
  -8605953.68144  -6705936.57444  20644436.1094   20644436.1144
   -950404.38844   -740574.65844  20372528.6984   20372528.2694
   6672402.85944   5199275.36644  21782278.8724   21782279.3014
  12148948.07344   9466705.34544  24976874.9524
   -969987.35844   -755832.48944  25198320.3294   25198324.6534
  12733109.95544   9921902.31044  24684864.2724   24684864.3494
 96  4  6  1 16 30.0000000  0  8G 6G16G20G 5G24G 9G17G 4
  -9242574.71944  -7201999.05344  22439608.1334   22439607.9924
 -10467568.37644  -8156539.36144  21455154.1384   21455155.2784
  -8639801.36844  -6732311.39044  20637995.0924   20637995.4224
   -921585.44044   -718118.34544  20378012.7254   20378012.4114
   6740411.29344   5252268.94744  21795220.5084   21795220.8634
  12237048.29644   9535354.80144  24993639.2324
  -1066272.94444   -830859.98244  25179998.6884   25179998.7444
  12828819.55844   9996481.22144  24703076.8014   24703076.2814
 96  4  6  1 17  0.0000000  0  8G 6G16G20G 5G24G 9G17G 4
  -9306034.34644  -7251448.09044  22427531.6444   22427531.5234
 -10517923.83144  -8195777.35144  21445572.4394   21445573.5204
  -8673058.68744  -6758226.18544  20631666.7544   20631667.0964
   -892236.98444   -695249.43144  20383597.4114   20383597.0284
   6808568.07244   5305378.12044  21808190.7014   21808191.1624
  12325038.92744                  25010382.7594
  -1162444.51444   -905798.69244  25161697.7764   25161700.0634
  12924499.26644  10071036.81344  24721284.5914   24721286.1244
 96  4  6  1 17 30.0000000  0  8G 6G16G20G 5G24G 9G17G 4
  -9369425.65544  -7300843.89344  22415468.2234   22415468.1834
 -10567798.22544  -8234640.49244  21436081.2444   21436082.3114
  -8705746.27344  -6783697.02844  20625446.4044   20625446.5074
   -862363.19044   -671971.16944  20389282.2104   20389282.1024
   6876889.97444   5358615.95844  21821191.5164   21821192.2334
  12412909.96244   9672389.64844  25027105.4004
  -1258509.71444   -980654.49744  25143417.4934   25143417.8004
  13020139.10744  10145561.34944  24739485.1134   24739485.5104
 96  4  6  1 18  0.0000000  0  8G 6G16G24G20G 5G 9G17G 4
  -9432727.58144  -7350170.04544  22403422.5184   22403422.8384
 -10617172.78344  -8273114.14644  21426685.5264   21426686.8114
   6945395.87744   5411997.16344  21834227.9434   21834228.4914
  -8737872.42244  -6808730.39244  20619333.2354   20619333.5604
   -831955.03844   -648276.51644  20395068.7514   20395068.5594
  12500653.57044   9740761.14844  25043801.6604   25043806.4754
  -1354470.57544  -1055429.05644  25125156.2894   25125152.4164
  13115752.90044  10220065.55544  24757678.5934   24757679.3724
 96  4  6  1 18 30.0000000  0  8G 6G16G24G20G 5G 9G17G 4
  -9495952.03544  -7399435.82944  22391391.4684   22391391.9784
 -10666053.12344  -8311202.70344  21417384.3774   21417385.4634
   7014088.58344   5465523.93444  21847299.8374   21847300.2834
  -8769467.36944  -6833349.82744  20613320.5554   20613320.8984
   -801016.60744   -624168.65844  20400956.1334   20400955.9344
  12588246.43544   9809015.21844  25060470.9374
  -1450333.37444  -1130127.08644  25106912.8534   25106921.0454
  13211330.54544  10294541.66344  24775865.7824
 96  4  6  1 19  0.0000000  0  8G 6G16G24G20G 5G 9G17G 4
  -9559107.91244  -7448648.17544  22379373.5084   22379373.9654
 -10714449.15244  -8348913.86944  21408174.1014   21408175.4384
   7082972.59744   5519199.78844  21860407.9094   21860408.2734
  -8800559.66144  -6857577.58644  20607403.9804   20607404.3794
   -769548.74344   -599648.25244  20406944.2994   20406944.1024
  12675684.11544   9877148.32844  25077109.5054   25077112.5374
  -1546071.91344                  25088687.0914
  13306873.65644  10368990.79744  24794048.7664   24794043.6414
 96  4  6  1 19 30.0000000  0  7G 6G20G16G 5G24G 9G 4
  -9622203.83044  -7497813.80444  22367366.5154   22367366.6514
  -8831166.07444  -6881426.74244  20601579.7384   20601579.8294
 -10762353.37244  -8386241.80444  21399058.4394   21399059.6454
   -737541.18844   -574707.31344  20413035.0954   20413034.7324
   7152060.10144   5573034.20844  21873554.7044   21873554.4324
  12762952.28244   9945149.44544  25093716.7754   25093719.9694
  13402392.42344  10443421.06444  24812225.9044   24812225.8434
 96  4  6  1 20  0.0000000  0  7G 6G16G24G20G 5G 9G 4
  -9685276.27344  -7546961.14544  22355364.3264   22355364.4464
 -10809784.39544  -8423201.01544  21390032.7414   21390034.1054
   7221316.42844   5627000.17344  21886733.6614   21886733.7874
  -8861299.73244  -6904907.51844  20595845.4704   20595845.5424
   -705006.64744   -549355.73444  20419226.0644   20419225.8574
  12850017.66244  10012992.43144  25110283.9494   25110289.2634
  13497866.62844  10517816.57544  24830393.2944   24830396.0604
 96  4  6  1 20 30.0000000  0  8G 6G16G24G20G 5G 9G17G 4
  -9748305.41644  -7596074.73744  22343370.2234   22343369.9494
 -10856726.01844  -8459778.88144  21381099.8784   21381101.3004
   7290758.18744   5681110.62544  21899948.5844   21899948.9274
  -8890910.27444  -6927980.66744  20590210.6694   20590210.9864
   -671917.18144   -523571.75144  20425522.7864   20425522.8424
  12936924.21844  10080711.71544  25126823.0244   25126826.6644
        -0.26754         0.87254  25034208.5324
  13593318.74144  10592194.81544  24848556.5764   24848560.9714
 96  4  6  1 21  0.0000000  0  8G 6G16G24G20G 5G 9G17G 4
  -9811293.41144  -7645156.28044  22331383.8544   22331383.5284
 -10903169.39644  -8495968.49644  21372261.7244   21372263.0804
   7360361.28544   5735346.79144  21913193.5614   21913194.0224
  -8919988.56344  -6950639.07544  20584677.4864   20584677.7864
   -638286.91544   -497366.36344  20431922.1334   20431921.9174
  13023668.24944  10148304.33444  25143329.7014   25143331.6344
    -95101.66144                  25016112.8934
  13688744.99444  10666552.97044  24866716.2644   24866717.6924
 96  4  6  1 21 30.0000000  0  8G 6G16G24G20G 5G 9G17G 4
  -9874235.00644  -7694201.65544  22319406.6094   22319406.0074
 -10949099.11844  -8531757.86044  21363521.6764   21363523.1604
   7430110.55644   5789696.86044  21926465.7774   21926466.3594
  -8948525.39944  -6972875.57344  20579247.0944   20579247.1624
   -604131.56544   -470751.81744  20438421.9234   20438421.8634
  13110233.20944  10215757.43744  25159801.6734   25159805.2854
   -190068.56944   -148103.95144  24998042.4234   24998045.7714
  13784133.02344  10740881.33244  24884868.5554
 96  4  6  1 22  0.0000000  0  8G 6G16G24G20G 5G 9G17G 4
  -9937107.75844  -7743193.38644  22307442.3464   22307442.3394
 -10994506.75444  -8567140.40444  21354881.0324   21354882.1474
   7500004.51244   5844159.68844  21939766.2604   21939766.8584
  -8976494.33244  -6994669.54944  20573924.6324   20573925.0464
   -569455.01444   -443731.14044  20445020.6134   20445020.3844
  13196631.78444                  25176244.6884
   -284916.14844   -222010.98044  24979993.8624   24979995.0784
  13879466.07144                  24903010.3424
 96  4  6  1 22 30.0000000  0  8G 6G16G24G20G 5G 9G17G 4
  -9999904.13144  -7792125.60144  22295492.6964   22295492.3234
 -11039375.85144  -8602103.30544  21346342.7874   21346343.7604
   7570048.17944   5898739.16744  21953095.0584   21953095.4564
  -9003894.91044  -7016020.65144  20568710.2924   20568710.5634
   -534263.12044   -416308.90144  20451717.5664   20451717.2814
  13282873.26344                  25192652.3044
   -379650.09744   -295829.49044  24961966.1814   24961967.7154
  13974732.27444                  24921137.6214
 96  4  6  1 23  0.0000000  0  8G 6G16G24G20G 5G 9G17G 4
 -10062628.57644  -7841001.77144  22283556.4884   22283556.0404
 -11083693.45544  -8636636.47944  21337909.2104   21337910.3894
   7640245.32344   5953438.23744  21966453.3574   21966453.3664
  -9030741.63644  -7036940.18144  20563601.8554   20563602.0514
   -498558.11744   -388486.84044  20458512.0124   20458511.6914
  13368938.30044                  25209033.4464
   -474280.05744   -369566.94544  24943957.7664   24943958.1274
  14069920.46844                  24939249.7594
 96  4  6  1 23 30.0000000  0  8G 6G16G24G20G 5G 9G17G 4
 -10125286.23744  -7889825.90344  22271632.9914   22271632.9554
 -11127471.69844  -8670749.36244  21329578.5044   21329579.5984
   7710601.75144   6008261.42644  21979841.7964   21979841.9124
  -9057039.04544  -7057431.67044  20558597.2554   20558597.7364
   -462334.56544   -360260.70844  20465405.0764   20465404.7454
  13454816.75044  10484263.43044  25225373.5904
   -568812.87644   -443228.72444  24925966.1684   24925970.0994
  14165022.33344                  24957345.3524
 96  4  6  1 24  0.0000000  0  8G 6G16G24G20G 5G 9G17G 4
 -10187896.65244  -7938613.21744  22259718.7124   22259718.3044
 -11170720.92344  -8704450.03044  21321348.6174   21321349.7364
   7781109.32244   6063202.38644  21993258.8904   21993258.9094
  -9082800.16944  -7077505.27844  20553695.4244   20553695.8204
   -425593.44244   -331631.27444  20472396.7454   20472396.6964
  13540504.23344  10551032.71044  25241680.6624
   -663240.78644   -516808.69744  24907995.0074
  14260019.98844                  24975423.9334
 96  4  6  1 24 30.0000000  0  7G 6G16G24G20G 5G 9G17
 -10250469.49844  -7987371.26944  22247811.6934   22247811.4844
 -11213436.74944  -8737735.06144  21313220.0714   21313221.3694
   7851762.90244   6118257.11744  22006703.8204   22006704.3654
  -9108025.84944  -7097161.64744  20548895.0114   20548895.3564
   -388327.55044   -302592.92844  20479488.0254   20479487.9564
  13626007.91744  10617658.87744  25257951.8264
   -757545.00144                  24890048.9944
 96  4  6  1 25  0.0000000  0  7G 6G16G24G20G 5G 9G17
 -10313011.01644  -8036104.89844  22235910.0104   22235910.3114
 -11255643.98644  -8770623.79144  21305188.1824   21305189.1054
   7922552.94044   6173418.18244  22020174.4854   22020174.7884
  -9132723.79644  -7116406.80144  20544195.2304   20544195.3934
   -350549.35044   -273155.38244  20486677.3184   20486677.0914
  13711305.64344  10684124.40644  25274183.0544   25274183.0224
   -851726.61044   -663680.45744  24872127.4864
 96  4  6  1 25 30.0000000  0  8G 6G16G24G20G 5G 9G17G25
 -10375498.02044  -8084796.05444  22224018.9714   22224018.6814
 -11297331.83344  -8803107.80544  21297255.3944   21297256.4114
   7993495.12644   6228697.80044  22033674.2864   22033674.5914
  -9156869.85144  -7135221.90744  20539600.3404   20539600.6584
   -312238.49144   -243302.78244  20493967.3124   20493967.0814
  13796430.69144  10750455.47944  25290382.5224
   -945749.29544   -736944.73844  24854238.1114
  24854240.8314         -0.63054  25143547.3504
 96  4  6  1 26  0.0000000  0  8G 6G16G24G20G 5G 9G17G25
 -10437865.62744  -8133394.16744  22212150.6164   22212150.2874
 -11338444.92244  -8835143.95144  21289431.4324   21289432.5704
   8064646.57744   6284140.48944  22047213.8594   22047214.2174
  -9180403.64244  -7153559.93144  20535121.9654   20535122.3444
   -273333.18544   -212986.97444  20501370.7954   20501370.7494
  13881447.54144  10816702.12744  25306560.9564
  -1039542.21644   -810030.01844  24836390.2384
  24836392.1694     -27832.24844  25138251.3064
 96  4  6  1 26 30.0000000  0  7G 6G16G24G20G 5G 9G17
 -10500201.61444  -8181967.63644  22200288.3914   22200288.5084
 -11379093.62944  -8866818.24044  21281696.4444   21281697.7434
   8135915.73044   6339674.88744  22060776.4784   22060776.5214
  -9203405.39544  -7171483.37344  20530744.9684   20530745.3184
   -233924.51844   -182278.94244  20508870.0254   20508869.8554
  13966261.57844                  25322700.3774
  -1133211.25044   -883018.78744  24818565.6474   24818563.2924
 96  4  6  1 27  0.0000000  0  7G 6G16G24G20G 5G 9G17
 -10562510.69644  -8230520.14544  22188431.6304   22188431.5304
 -11419289.48744  -8898139.65244  21274047.4964   21274048.3694
   8207300.58844   6395299.45244  22074360.8594   22074360.5474
  -9225885.06744  -7189000.00744  20526467.3534   20526467.5804
   -194013.31444   -151179.31644  20516464.9574   20516465.1084
  14050852.43144  10948705.70044  25338797.8304
  -1226781.14344   -955930.25744  24800760.3084   24800758.6134
 96  4  6  1 27 30.0000000  0  7G 6G16G24G20G 5G 9G17
 -10624725.12944  -8278998.90744  22176592.7864   22176592.2394
 -11458953.09244  -8929046.32344  21266499.8204   21266500.9724
   8278848.53044   6451051.09444  22087975.9464   22087975.9664
  -9247776.76444  -7206058.47144  20522301.4074   20522301.8394
   -153528.87744   -119633.01644  20524168.9934   20524168.7814
  14135290.79644                  25354865.3284
  -1320194.49544  -1028719.81644  24782984.4734   24782982.5824
 96  4  6  1 28  0.0000000  0  7G 6G16G24G20G 5G 9G17
 -10686864.01144  -8327418.79844  22164768.4414   22164768.0274
 -11498089.49644  -8959542.17944  21259051.6874   21259053.1554
   8350526.39544   6506903.96644  22101615.2274   22101615.5974
  -9269097.98144  -7222672.40944  20518244.1294   20518244.5174
   -112502.96244    -87664.78844  20531976.1384   20531975.9794
  14219543.23944                  25370897.5184
  -1413480.12544  -1101409.80844  24765233.1794   24765234.5244
 96  4  6  1 28 30.0000000  0  8G 6G16G24G20G 5G 9G17G25
 -10748924.72244  -8375777.77444  22152958.3374   22152957.8504
 -11536675.54644  -8989609.19144  21251709.6394   21251710.7404
   8422325.55744   6562851.35844  22115278.5794   22115279.0284
  -9289837.93244  -7238833.40844  20514297.3614   20514297.7404
    -70943.74044    -55280.99744  20539884.5874   20539884.3614
  14303611.80444                  25386895.9804
  -1506638.96544  -1174001.00144  24747505.2564   24747508.5694
        -0.17254                  25113055.1974
 96  4  6  1 29  0.0000000  0  8G 6G16G24G20G 5G 9G17G25
 -10810885.48644  -8424058.86644  22141167.6644   22141167.4804
 -11574668.17244  -9019213.79844  21244479.3954   21244480.4454
   8494256.68544   6618901.58244  22128966.3714   22128966.9404
  -9309988.20844  -7254534.92244  20510462.9154   20510462.9724
    -28844.88244    -22476.71644  20547895.5954   20547895.6404
  14387516.91644                  25402862.5684
  -1599631.23944  -1246462.40844  24729808.4104   24729811.6334
    -24967.01944                  25108306.9464
 96  4  6  1 29 30.0000000  0  8G 6G16G24G20G 5G 9G17G25
 -10872743.08244  -8472259.56744  22129396.2354   22129396.5434
 -11612049.21744  -9048341.85644  21237366.1854   21237367.0504
   8566321.61844   6675056.07544  22142679.7204   22142680.4884
  -9329534.63544  -7269765.90544  20506743.1984   20506743.4454
     13786.10944     10742.22144  20556007.8194   20556007.7714
  14471274.55744                  25418801.8174
  -1692435.26444  -1318777.13644  24712146.1054   24712156.5304
    -49384.73744                  25103661.5414
 96  4  6  1 30  0.0000000  0  8G 6G16G24G20G 5G 9G17G25
 -10934496.88044  -8520379.39044  22117644.6094   22117644.5844
 -11648814.14244  -9076989.81644  21230370.0264   21230371.2064
   8638555.04144   6731341.84544  22156425.6864   22156426.7004
  -9348460.11744  -7284513.03644  20503141.9514   20503142.1544
     56953.85544     44379.41344  20564222.6294   20564222.5734
  14554886.67344                  25434712.7644
  -1785038.30044  -1390935.26244  24694523.0214   24694527.7454
    -73234.02644                  25099124.5324
 96  4  6  1 30 30.0000000  0  7G 6G16G24G17G20G 5G25
 -10996193.77844  -8568454.86944  22105904.0054   22105903.8724
 -11685019.02244  -9105201.38244  21223480.9114   21223481.4384
   8710939.22244   6787745.09444  22170199.8384   22170200.1674
  -1877480.80244  -1462968.25144  24676933.5264   24676935.8054
  -9366798.73744  -7298802.87744  20499652.2204   20499652.5344
    100644.74144     78424.24844  20572536.7134   20572536.5534
    -96560.89444                  25094685.9794
 96  4  6  1 31  0.0000000  0  7G 6G16G24G20G 5G17G25
 -11057857.24944  -8616504.30444  22094170.0984   22094169.6914
 -11720697.85144  -9133003.03844  21216691.0444   21216691.9184
   8783463.77044   6844257.72744  22184000.7524   22184000.9184
  -9384578.10344  -7312656.93244  20496269.0124   20496269.2564
    144833.16144    112856.77044  20580945.5684   20580945.4244
  -1969788.64044  -1534896.35244  24659367.6264   24659375.8174
   -119422.27844                  25090336.2604
 96  4  6  1 31 30.0000000  0  8G 6G16G24G20G 5G 4G17G25
 -11119465.47044  -8664510.69444  22082446.5124   22082446.7334
 -11755840.21444  -9160386.66544  21210003.8494   21210004.6814
   8856156.29544   6900901.24844  22197833.4704   22197833.7024
  -9401771.28344  -7326054.21644  20492997.4134   20492997.6244
    189548.90144    147700.19444  20589454.5824   20589454.7574
        -0.18254                  25245216.1244
  -2061954.98744  -1606714.15544  24641828.4164
   -141809.09844                  25086076.6924
 96  4  6  1 32  0.0000000  0  8G 6G16G24G20G 5G 4G17G25
 -11181035.54144  -8712487.35444  22070730.2934   22070730.3904
 -11790493.32444  -9187389.06644  21203409.6334   21203410.5714
   8928983.34644   6957649.59344  22211691.7704   22211692.2524
  -9418415.01144  -7339023.35644  20489830.0754   20489830.5334
    234766.42944    182934.62044  20598059.2254   20598059.2914
     93977.35844                  25263100.2604
  -2154014.07944  -1678448.42344  24624310.6864   24624315.7194
   -163759.90144                  25081900.6934
 96  4  6  1 32 30.0000000  0  8G 6G16G24G20G 5G 4G17G25
 -11242538.75044  -8760411.91244  22059026.5024   22059026.9784
 -11824650.71644  -9214005.19144  21196909.3474   21196910.7524
   9001918.33644   7014482.03744  22225570.6194   22225571.4494
  -9434513.15944  -7351567.37144  20486766.4614   20486766.7934
    280486.77644    218560.85444  20606759.7244   20606759.7534
    187851.41944                  25280964.0484
  -2245954.16844  -1750089.97544  24606815.8494   24606820.0674
   -185277.95244                  25077808.2074
 96  4  6  1 33  0.0000000  0  8G 6G16G24G20G 5G 4G17G25
 -11303869.04844  -8808201.73444  22047356.0254   22047356.2714
 -11858216.29344  -9240160.15744  21190522.1744   21190523.1284
   9075022.73144   7071446.50244  22239482.4204   22239482.8414
  -9449999.50644  -7363634.65444  20483819.9444   20483820.1354
    326774.20844    254628.97244  20615567.8904   20615567.7004
    281706.88944                  25298824.5584
  -2337689.45544  -1821571.87444  24589360.3334   24589362.8594
   -206293.51644                  25073807.2814
 96  4  6  1 33 30.0000000  0  7G 6G16G24G 4G20G 5G17
 -11365060.04544  -8855883.00944  22035711.8774   22035711.8144
 -11891221.03244  -9265878.10144  21184241.4854   21184242.5444
   9148255.96344   7128511.35344  22253418.1984   22253418.7804
    375525.50744                  25316676.3364
  -9464911.24344  -7375254.19044  20480982.0684   20480982.2784
    373607.47644    291122.41344  20624479.8874   20624479.8984
  -2429251.04344  -1892918.46744  24571936.7654   24571935.5164
 96  4  6  1 34  0.0000000  0  7G 6G16G24G 4G20G 5G17
 -11426158.81844  -8903492.42444  22024085.1624   22024084.7044
 -11923700.91944  -9291187.07544  21178060.9994   21178061.8154
   9221557.56344   7185629.47144  22267367.1624   22267367.3414
    469251.79944                  25334513.3404
  -9479296.34244  -7386463.35744  20478244.7994   20478245.0024
    420930.43544    327997.42844  20633485.1954   20633485.1424
  -2520676.31344  -1964158.85844  24554539.3404   24554539.7894
 96  4  6  1 34 30.0000000  0  6G 6G16G24G17G20G 5
 -11487166.24144  -8951030.65544  22012475.4154   22012475.7984
 -11955609.35844  -9316050.75544  21171988.7474   21171989.8204
   9294950.15444   7242818.50444  22281333.4134   22281333.7074
  -2611949.51144  -2035280.74344  24537170.2034   24537170.3974
  -9493133.61644  -7397245.64844  20475611.4864   20475611.8584
    468762.51944    365269.16044  20642587.6404   20642587.4274
 96  4  6  1 35  0.0000000  0  6G 6G16G24G17G20G 5
 -11548091.04244  -8998504.49744  22000881.8764   22000881.8404
 -11986926.64944  -9340453.80444  21166029.2174   21166030.4784
   9368461.05744   7300099.72644  22295321.6384   22295321.9494
  -2703067.86944  -2106281.92444  24519830.0774   24519830.6474
  -9506390.68644  -7407575.82844  20473089.0594   20473089.4944
    517111.09944    402943.35844  20651787.4894   20651787.6974
 96  4  6  1 35 30.0000000  0  6G 6G16G24G17G20G 5
 -11608972.51444  -9045944.58644  21989296.6764   21989296.3204
 -12017660.97544  -9364402.59744  21160180.4444   21160181.6454
   9442080.47744   7357465.49544  22309331.1784   22309332.4184
  -2794029.62644  -2177161.11544  24502519.4434   24502519.9904
  -9519051.02644  -7417441.02844  20470680.0024   20470680.1434
    565964.37044    441010.82144  20661084.3804   20661084.3704
 96  4  6  1 36  0.0000000  0  6G 6G16G24G20G 5G17
 -11669799.60044  -9093342.29844  21977722.0214   21977721.4034
 -12047795.19244  -9387883.76544  21154446.3654   21154447.2324
   9515815.82144   7414921.60644  22323362.6784   22323363.2004
  -9531099.32844  -7426829.31344  20468387.0104   20468387.4134
    615321.40944    479470.83744  20670476.5414   20670476.8014
  -2884815.02144  -2247902.86444  24485243.6354   24485246.5704
 96  4  6  1 36 30.0000000  0  7G 6G16G24G20G 5G25G17
 -11730552.59544  -9140682.27344  21966160.7534   21966160.4894
 -12077325.37844  -9410894.27144  21148827.1494   21148827.7654
   9589693.56044   7472488.66544  22337421.2974   22337421.8464
  -9542510.04744  -7435720.77844  20466215.3634   20466215.8804
    665212.00244    518346.60944  20679970.7774   20679970.8914
         0.12154                  25048348.8724
  -2975410.38644  -2318496.56144  24468003.7874   24468008.2984
 96  4  6  1 37  0.0000000  0  7G 6G16G24G25G20G 5G17
 -11791247.01944  -9187976.60844  21954610.9744   21954611.0284
 -12106296.06644  -9433468.80544  21143314.0994   21143315.0794
   9663686.11144   7530145.19544  22351501.6784   22351501.7374
    -17080.73344                  25045100.2154
  -9553313.51044  -7444139.06344  20464159.8844   20464160.2334
    715604.20044    557613.24344  20689560.1424   20689559.9634
  -3065830.44444  -2388953.65044  24450797.2614   24450801.6724
 96  4  6  1 37 30.0000000  0  7G 6G16G24G25G20G 5G17
 -11851882.18444  -9235224.76644  21943072.2504   21943071.9484
 -12134716.90044  -9455614.88044  21137905.4304   21137906.7094
   9737778.01544   7587879.13444  22365600.8484   22365601.0854
    -33681.41044                  25041943.0914
  -9563538.09044  -7452106.26844  20462214.2454   20462214.4344
    766496.52144    597269.58044  20699244.5624   20699244.4304
  -3156075.76344  -2459274.58044  24433624.1914   24433627.9854
 96  4  6  1 38  0.0000000  0  7G 6G16G24G25G17G20G 5
 -11912434.60644  -9282408.46244  21931549.3454   21931548.8784
 -12162594.44644  -9477337.61144  21132600.7704   21132601.8124
   9811966.97244   7645688.70044  22379718.4274   22379718.9594
    -49847.96744    -38841.57544  25038864.6944   25038861.5434
  -3246164.91244  -2529473.83144  24416480.5964   24416484.6814
  -9573204.16244  -7459638.27244  20460374.7764   20460375.0364
    817883.98744    637311.74444  20709023.2164   20709022.8844
 96  4  6  1 38 30.0000000  0  7G 6G16G24G25G20G 5G17
 -11972894.85144  -9329520.31844  21920043.7754   21920043.8414
 -12189931.38444  -9498639.09044  21127399.1274   21127399.8104
   9886243.62844   7703566.60844  22393853.2244   22393853.4954
    -65589.86944    -51108.02544  25035868.5444   25035868.2414
  -9582306.18844  -7466730.75644  20458642.7044   20458643.1414
    869769.92544    677742.32244  20718896.9574   20718896.9144
  -3336101.34844  -2599554.07944  24399366.3704   24399369.4494
 96  4  6  1 39  0.0000000  0  7G 6G16G24G20G 5G25G17
 -12033246.10244  -9376547.23944  21908559.6774   21908559.4534
 -12216706.66944  -9519502.91844  21122303.8024   21122304.8104
   9960605.71844   7761511.08944  22408003.6004   22408004.1014
  -9590845.74944  -7473384.96344  20457017.7154   20457018.2754
    922151.51544    718559.12144  20728864.7044   20728864.9384
    -80885.29844    -63026.42544  25032955.7314   25032956.6914
  -3425868.94844  -2669502.75144  24382285.0054   24382288.8214
 96  4  6  1 39 30.0000000  0  7G 6G16G24G20G 5G25G17
 -12093466.77844  -9423472.41544  21897100.2804   21897100.3784
 -12242904.71944  -9539916.95044  21117318.4104   21117319.2644
  10035059.30444   7819526.86344  22422172.1714   22422172.1824
  -9598812.19044  -7479592.58344  20455501.7764   20455502.0874
    975038.90144    759770.04944  20738928.8394   20738929.0354
    -95706.08144    -74575.23644  25030134.2254   25030134.6844
  -3515452.99444  -2739308.40644  24365236.8264   24365240.2854
 96  4  6  1 40  0.0000000  0  7G 6G16G24G25G20G 5G17
 -12153555.73644  -9470294.96744  21885665.7044   21885665.6754
 -12268530.09044  -9559884.73344  21112441.9254   21112442.6264
  10109613.97844   7877621.40244  22436359.1784   22436358.8424
   -110025.74244    -85733.40144  25027408.3204   25027406.9904
  -9606193.94544  -7485344.59944  20454097.3734   20454097.6894
   1028427.33244    801371.40844  20749088.1584   20749088.2494
  -3604856.26044  -2808973.24044  24348224.9764   24348227.2004
 96  4  6  1 40 30.0000000  0  7G 6G16G24G25G20G 5G17
 -12213534.74544  -9517031.84544  21874252.3934   21874251.7804
 -12293596.97244  -9579417.33844  21107672.0464   21107672.7534
  10184257.48644   7935785.18044  22450563.7914   22450563.3084
   -123821.47144    -96483.29444  25024785.4024   25024785.0384
  -9612998.36844  -7490646.74844  20452802.2704   20452802.6484
   1082299.21144    843349.48844  20759339.9984   20759340.3434
  -3694089.77644  -2878505.79144  24331243.1224   24331245.2864
 96  4  6  1 41  0.0000000  0  7G 6G16G24G25G20G 5G17
 -12273408.63544  -9563686.82544  21862858.7254   21862858.3614
 -12318091.17744  -9598503.70844  21103010.4074   21103011.3504
  10259021.18044   7994042.60744  22464790.4624   22464790.6134
   -137082.59844   -106816.65544  25022263.6284   25022260.4764
  -9619218.88944  -7495493.90944  20451618.6054   20451619.0364
   1136666.13444    885713.31744  20769685.6594   20769685.9194
  -3783142.92844  -2947897.76544  24314297.8704   24314300.8204
 96  4  6  1 41 30.0000000  0  7G 6G16G24G25G20G 5G17
 -12333217.56344  -9610291.16644  21851477.3754   21851477.3404
 -12342026.49244  -9617154.58144  21098455.9474   21098457.0074
  10333896.35144   8052386.88544  22479038.3754   22479039.7514
   -149846.24444   -116762.36344  25019836.2374   25019832.7904
  -9624857.73544  -7499887.81944  20450545.5564   20450545.7324
   1191519.66344    928456.31744  20780123.7254   20780123.7654
  -3872045.53744  -3017172.41744  24297380.5934   24297381.8224
 96  4  6  1 42  0.0000000  0  7G 6G16G24G25G20G 5G17
 -12392973.99944  -9656854.61244  21840106.5304   21840106.4694
 -12365391.88944  -9635361.36044  21094009.9354   21094010.4824
  10408873.34844   8110810.50744  22493306.1404   22493306.2264
   -162129.11544   -126333.49444  25017501.2544   25017493.0634
  -9629906.27244  -7503821.74444  20449584.9364   20449585.4214
   1246867.37144    971584.39144  20790656.4124   20790656.2154
  -3960813.36244  -3086342.12244  24280488.4764   24280491.0814
 96  4  6  1 42 30.0000000  0  7G 6G16G24G25G20G 5G17
 -12452674.57044  -9703374.53444  21828745.4944   21828745.7044
 -12388173.23144  -9653113.02744  21089674.5414   21089675.5114
  10483954.35644   8169315.17744  22507593.9404   22507593.8564
   -173942.50144   -135538.71044  25015251.9154   25015249.6964
  -9634359.81844  -7507292.03944  20448737.3324   20448737.8294
   1302722.85944   1015108.13344  20801285.5424   20801285.3174
  -4049427.29744  -3155391.87944  24263626.1294   24263625.7194
 96  4  6  1 43  0.0000000  0  7G 6G16G24G25G20G 5G17
 -12512326.32244  -9749856.40844  21817394.1184   21817394.0464
 -12410370.32344  -9670409.43344  21085450.8654   21085451.6654
  10559132.23544   8227895.33544  22521900.0524   22521900.6234
   -185308.57744   -144395.40944  25013089.4454   25013085.4964
  -9638225.18344  -7510304.01644  20448001.7354   20448002.1794
   1359081.10744   1059023.63044  20812010.1244   20812010.1824
  -4137882.92044  -3224318.25644  24246794.1784   24246795.0734
 96  4  6  1 43 30.0000000  0  7G 6G16G24G25G20G 5G17
 -12571902.90944  -9796279.71744  21806056.8174   21806056.7364
 -12431979.72144  -9687247.90844  21081338.4214   21081339.2964
  10634388.31244   8286536.43344  22536220.6864   22536220.7084
   -196213.63644   -152892.89444  25011011.9754   25011009.1344
  -9641489.28544  -7512847.47344  20447380.7504   20447380.9844
   1415928.70644   1103320.44044  20822827.3194   20822827.2444
  -4226176.29244  -3293118.24844  24229992.0904   24229994.7394
 96  4  6  1 44  0.0000000  0  7G 6G16G24G25G20G 5G17
 -12631360.59944  -9842610.37244  21794742.8254   21794742.4134
 -12452998.24144  -9703625.95644  21077338.8384   21077339.6434
  10709725.94844   8345241.07044  22550556.9574   22550556.9774
   -206630.76244   -161010.16744  25009031.0994   25009029.4104
  -9644139.62744  -7514912.67444  20446876.2924   20446876.6374
   1473261.67744   1147995.46344  20833737.5544   20833738.0184
  -4314281.35544  -3361771.44344  24213223.5834   24213228.9214
 96  4  6  1 44 30.0000000  0  7G 6G16G24G25G20G 5G17
 -12690710.21044  -9888856.80944  21783448.9424   21783448.6794
 -12473447.83244  -9719560.69144  21073447.5154   21073448.1864
  10785136.41544   8404002.47444  22564906.7754   22564907.2304
   -216572.18344   -168756.68844  25007137.4774   25007137.3564
  -9646188.58244  -7516509.26344  20446486.6024   20446487.0824
   1531046.10944   1193022.26644  20844733.6904   20844734.1624
  -4402200.42144  -3430279.72844  24196492.2954   24196496.4744
 96  4  6  1 45  0.0000000  0  7G 6G16G24G25G20G 5G17
 -12749940.82744  -9935010.52444  21772177.8424   21772177.3424
 -12493315.03544  -9735041.61344  21069666.6124   21069667.1424
  10860615.36144   8462817.23044  22579269.8384   22579270.3904
   -226030.62444   -176126.97044  25005336.9964
  -9647627.92244  -7517630.82844  20446212.7064   20446213.1124
   1589282.82244   1238401.49644  20855815.8484   20855816.1184
  -4489943.36544  -3498650.81244  24179797.6734   24179800.5764
 96  4  6  1 45 30.0000000  0  7G 6G16G24G25G17G20G 5
 -12809032.52744  -9981055.98544  21760932.8624   21760932.6104
 -12512589.22044  -9750060.43544  21065998.9154   21065999.7294
  10936169.03244   8521690.20544  22593647.4844   22593647.8884
   -234999.93944   -183116.00444  25003630.8294   25003629.8174
  -4577509.94044  -3566884.42644  24163134.2664   24163135.8774
  -9648443.28744  -7518266.18144  20446057.4374   20446057.8334
   1647989.52844   1284146.96144  20866987.4994   20866987.4464
 96  4  6  1 46  0.0000000  0  7G 6G16G24G25G17G20G 5
 -12867994.69544 -10027000.51644  21749712.5884   21749712.6014
 -12531257.29744  -9764606.96044  21062446.5314   21062447.3314
  11011819.68544   8580638.75844  22608043.3954   22608043.9704
   -243483.62044   -189726.71744  25002012.5514   25002016.6854
  -4664875.89944  -3634961.73044  24146508.0734   24146511.2994
  -9648643.90244  -7518422.51044  20446019.6184   20446020.0084
   1707196.22444   1330282.03544  20878254.4034   20878254.2824
 96  4  6  1 46 30.0000000  0  7G 6G16G24G25G20G 5G17
 -12926845.37544 -10072858.17944  21738513.7464   21738513.6134
 -12549321.41944  -9778682.86644  21059009.2374   21059009.8764
  11087568.16944   8639663.53944  22622457.9974   22622458.2624
   -251493.10944   -195967.90944  25000487.5394
  -9648257.74544  -7518121.61744  20446092.7524   20446093.2944
   1766908.02844   1376810.70644  20889617.0344   20889616.8984
  -4752054.19244  -3702892.77044  24129919.0014   24129921.9854
 96  4  6  1 47  0.0000000  0  7G 6G16G24G25G20G 5G17
 -12985572.16544 -10118619.30544  21727338.1814   21727338.4194
 -12566784.77544  -9792290.65044  21055685.7364   21055686.5204
  11163421.97344   8698770.39244  22636892.6554   22636893.4944
   -259017.10544                  24999055.1684
  -9647291.87744  -7517368.99844  20446276.6974   20446277.1694
   1827139.73344   1423744.49344  20901078.8964   20901079.0594
  -4839040.77144  -3770674.47544  24113366.7624   24113368.5114
 96  4  6  1 47 30.0000000  0  7G 6G16G24G25G20G 5G17
 -13044200.41044 -10164303.63944  21716181.9104   21716181.5594
 -12583670.44444  -9805448.28344  21052472.4604   21052473.6994
  11239370.39844   8757950.98344  22651345.0694   22651345.6244
   -266070.73644   -207327.10744  24997712.7844
  -9645768.96944  -7516182.32244  20446566.6914   20446567.0774
   1887863.91944   1471062.02644  20912634.0354   20912634.1754
  -4925831.19844  -3838303.29444  24096851.7214   24096853.9614
 96  4  6  1 48  0.0000000  0  7G 6G16G24G25G20G 5G17
 -13102742.48344 -10209920.82544  21705041.7674   21705041.5614
 -12599981.00644  -9818157.77844  21049368.6804   21049369.2974
  11315407.37744   8817200.56544  22665814.1594   22665814.7744
   -272646.30444                  24996463.0934
  -9643694.60544  -7514565.93744  20446961.0574   20446961.3084
   1949063.01044   1518749.61044  20924279.9344   20924280.1604
  -5012425.07644  -3905778.96944  24080373.4444   24080373.6764
 96  4  6  1 48 30.0000000  0  7G 6G16G24G25G17G20G 5
 -13161191.92844 -10255465.84144  21693919.6664   21693919.2464
 -12615718.97444  -9830421.09444  21046374.0964   21046374.9194
  11391520.90844   8876509.81044  22680298.2734   22680298.8764
   -278742.01844                  24995303.3834
  -5098842.10444  -3973116.86044  24063927.5114   24063929.0414
  -9641045.03644  -7512501.34244  20447465.4004   20447465.7384
   2010720.28044   1566794.21344  20936012.9994   20936013.2984
 96  4  6  1 49  0.0000000  0  7G 6G16G24G25G17G20G 5
 -13219568.45344 -10300954.03644  21682810.3994   21682810.3404
 -12630886.19944  -9842239.67544  21043487.7544   21043488.3424
  11467684.11044   8935857.75344  22694791.4294   22694792.3914
   -284367.55044                  24994236.0764
  -5185084.39944  -4040318.58444  24047516.2684   24047517.5404
  -9637810.73044  -7509981.10744  20448080.5454   20448081.0144
   2072827.97544   1615189.78844  20947831.6134   20947831.9814
 96  4  6  1 49 30.0000000  0  7G 6G16G24G25G17G20G 5
 -13277887.31944 -10346397.29544  21671712.4794   21671712.7864
 -12645477.17044  -9853609.23744  21040711.2434   21040711.9654
  11543875.11644   8995227.37244  22709289.9444   22709290.5764
   -289533.17644                  24993250.6574
  -5271163.78344  -4107393.32144  24031136.2934   24031138.2534
  -9633983.48344  -7506998.83944  20448809.3634   20448809.5864
   2135380.18444   1663931.73944  20959735.0324   20959735.6204
 96  4  6  1 50  0.0000000  0  7G 6G16G24G25G17G20G 5
 -13336157.13744 -10391802.33644  21660624.0474   21660624.4234
 -12659528.04444  -9864557.94044  21038036.9474   21038037.3784
  11620059.76644   9054592.02344  22723787.7514   22723788.1654
   -294261.67044   -229294.14244  24992351.4114
  -5357118.84944  -4174371.20644  24014779.8384   24014782.3314
  -9629578.26444  -7503566.20744  20449647.5384   20449647.8954
   2198357.86844   1713005.22644  20971719.0664   20971719.4394
 96  4  6  1 50 30.0000000  0  7G20G 6G16G 5G24G25G17
  -9624523.99544  -7499627.81844  20450609.3214   20450609.7004
 -13394302.67044 -10437110.53144  21649559.3034   21649559.1404
 -12672969.48644  -9875031.76544  21035479.5984   21035480.2144
   2261839.38444   1762471.31844  20983799.3064   20983799.4614
  11696309.01444   9114007.03044  22738297.7474   22738297.2824
   -298484.01544   -232584.29644  24991549.2014
  -5442876.95244  -4241195.66344  23998460.3964   23998463.7034
 96  4  6  1 51  0.0000000  0  7G20G 6G16G 5G24G25G17
  -9618848.38844  -7495205.27144  20451689.2084   20451689.6514
 -13452329.96144 -10482326.58544  21638517.6074   21638517.1764
 -12685819.10944  -9885044.43044  21033034.2474   21033034.9994
   2325817.21144   1812324.14844  20995973.8204   20995973.8184
  11772611.11144   9173463.19644  22752817.5304   22752817.7174
   -302209.84844   -235487.58144  24990840.1454
  -5528449.31344  -4307875.37744  23982176.0904   23982174.2114
 96  4  6  1 51 30.0000000  0  7G20G 6G16G 5G24G25G17
  -9612557.71444  -7490303.44644  20452886.4704   20452886.8634
 -13510215.86444 -10527432.47244  21627501.7244   21627501.4354
 -12698074.79544  -9894594.28644  21030702.0904   21030702.7344
   2390283.79644   1862557.82644  21008241.7804   21008241.7114
  11848984.86344   9232975.22044  22767351.1434   22767351.4754
   -305437.63644   -238002.66044  24990224.6304
  -5613835.44944  -4374409.96844  23965928.0004   23965929.9474
 96  4  6  1 52  0.0000000  0  7G20G 6G16G 5G24G25G17
  -9605671.70344  -7484937.72144  20454196.8404   20454197.1654
 -13567956.61044 -10572425.23844  21616514.3144   21616514.2734
 -12709728.95144  -9903675.41244  21028484.3824   21028485.0004
   2455232.79244   1913167.41544  21020601.0894   21020601.0884
  11925444.61944   9292554.24444  22781900.6394   22781901.5154
   -308177.40944                  24989701.8454
  -5699028.78144  -4440794.31244  23949715.9384   23949718.1904
 96  4  6  1 52 30.0000000  0  7G20G 6G16G 5G24G25G17
  -9598191.61144  -7479109.08044  20455620.1684   20455620.4664
 -13625542.25044 -10617297.14944  21605556.2314   21605556.0474
 -12720749.83044  -9912263.08144  21026387.3104   21026387.8664
   2520684.40244   1964168.65044  21033056.0754   21033056.4054
  12002015.79044   9352220.08744  22796471.4824   22796472.6424
   -310414.78244                  24989278.0874
  -5784008.80744  -4507012.44544  23933544.4934   23933546.4184
 96  4  6  1 53  0.0000000  0  7G20G 6G16G 5G24G25G17
  -9590156.88244  -7472848.25544  20457149.2654   20457149.6274
 -13682999.69644 -10662069.16944  21594622.2894   21594622.4694
 -12731164.70744  -9920378.53944  21024405.3484   21024405.8574
   2586600.04044   2015531.46244  21045599.0944   21045599.5914
  12078671.47844   9411951.78144  22811058.4614   22811059.4184
   -312185.18244                  24988942.6434
  -5868796.48044  -4573080.66344  23917409.2284   23917414.4714
 96  4  6  1 53 30.0000000  0  7G20G 6G16G 5G24G25G17
  -9581569.20644  -7466156.56344  20458783.2624   20458783.7074
 -13740336.98744 -10706747.55844  21583711.3194   21583711.3084
 -12740971.05544  -9928019.82444  21022539.1674   21022539.5194
   2652962.96144   2067242.80944  21058227.6974   21058228.0724
  12155408.38044   9471746.77044  22825660.7724   22825661.1574
   -313495.52544                  24988691.2514
  -5953381.36344  -4638990.92444  23901313.0614   23901316.4524
 96  4  6  1 54  0.0000000  0  7G20G 6G16G 5G24G25G17
  -9572417.70644  -7459025.53444  20460524.7244   20460525.2024
 -13797556.85544 -10751334.44944  21572822.9484   21572822.6164
 -12750173.86244  -9935190.82544  21020787.8494   21020788.4734
   2719772.41844   2119302.10844  21070941.3584   21070941.6784
  12232219.41944   9531599.53844  22840277.7194   22840278.4394
   -314337.52944                  24988529.9554
  -6037765.08744  -4704744.41644  23885255.8364   23885256.4924
 96  4  6  1 54 30.0000000  0  7G20G 6G16G 5G24G25G17
  -9562690.19344  -7451445.65744  20462375.9414   20462376.2874
 -13854665.54244 -10795834.70744  21561955.6924   21561955.1704
 -12758795.64144  -9941909.06944  21019147.3094   21019147.6794
   2787011.43144   2171696.12144  21083736.4024   21083736.6114
  12309076.93844   9591488.49944  22854903.5484   22854903.8644
   -314724.51844                  24988455.0694
  -6121963.63944  -4770353.59844  23869232.7424   23869235.5674
 96  4  6  1 55  0.0000000  0  7G20G 6G16G 5G24G25G17
  -9552407.05744  -7443432.82544  20464332.7384   20464333.1424
 -13911717.62044 -10840290.85544  21551098.7464   21551098.3594
 -12766881.83144  -9948209.97144  21017608.3954   21017609.2054
   2854619.81344   2224377.94844  21096602.0064   21096602.4344
  12385921.04144   9651367.01544  22869526.4074   22869527.0484
   -314710.40144                  24988458.4424
  -6206037.12744  -4835865.33744  23853233.6824   23853238.0804
 96  4  6  1 55 30.0000000  0  7G20G 6G16G 5G24G25G17
  -9541512.52244  -7434943.57544  20466405.8174   20466406.1654
 -13968677.12344 -10884674.86644  21540259.9164   21540259.4514
 -12774391.32344  -9954061.49244  21016179.1014   21016179.6254
   2922637.49844   2277378.72344  21109545.1944   21109545.5664
  12462781.29044   9711258.11644  22884152.0304   22884153.8304
   -314253.11844                  24988547.2684
  -6289955.81644  -4901256.43744  23837265.4284   23837268.0844
 96  4  6  1 56  0.0000000  0  7G20G 6G16G 5G24G25G17
  -9529965.34044  -7425945.76444  20468603.5824   20468603.8044
 -14025507.11644 -10928957.95744  21529445.3024   21529444.9494
 -12781286.47044  -9959434.30344  21014867.5344   21014868.0714
   2991107.10444   2330731.64944  21122574.9094   21122574.9614
  12539697.58644   9771192.89644  22898788.7734   22898789.7984
   -313317.54144                  24988723.7184
  -6373692.78644  -4966505.99644  23821331.2284   23821331.7944
 96  4  6  1 56 30.0000000  0  7G20G 6G16G 5G24G25G17
  -9517772.98944  -7416445.22644  20470923.3344   20470923.8074
 -14082224.93644 -10973153.64244  21518652.1304   21518651.7784
 -12787575.67744  -9964334.96544  21013670.6754   21013671.1314
   3060021.63544   2384431.27044  21135688.8594   21135688.9864
  12616665.50944   9831167.89844  22913435.6964   22913435.4984
   -311923.28844                  24988988.6794
  -6457254.16444  -5031618.68944  23805430.8734   23805433.6864
 96  4  6  1 57  0.0000000  0  7G20G 6G16G 5G24G25G17
  -9504950.04544  -7406453.31244  20473363.7574   20473364.2254
 -14138821.61544 -11017254.93044  21507882.3294   21507882.1024
 -12793269.79644  -9968771.91644  21012587.0084   21012587.5354
   3129385.58644   2438481.08544  21148888.1854   21148888.4554
  12693701.03244   9891195.58744  22928095.8344   22928095.4994
   -310054.55444   -241600.48044  24989344.4564   24989344.0644
  -6540628.25144  -5096585.46244  23789564.6154   23789565.9124
 96  4  6  1 57 30.0000000  0  7G20G 6G16G 5G24G25G17
  -9491510.46544  -7395980.90544  20475921.1494   20475921.5214
 -14195276.33844 -11061245.61144  21497139.0954   21497138.6334
 -12798379.96744  -9972753.82544  21011614.1614   21011614.7914
   3199206.70344   2492887.14044  21162174.5354   21162174.7454
  12770823.90044   9951291.33044  22942771.6494   22942771.7064
   -307707.22044                  24989789.3624
  -6623789.41244  -5161386.30244  23773739.9454   23773741.3274
 96  4  6  1 58  0.0000000  0  7G20G 6G16G 5G24G25G17
  -9477459.68444  -7385032.23744  20478594.6964   20478594.9294
 -14251585.05844 -11105122.52444  21486424.1924   21486423.7904
 -12802904.91544  -9976279.72944  21010753.5804   21010754.0174
   3269495.19544   2547657.37644  21175550.4664   21175550.7574
  12848042.87244  10011461.97044  22957465.4384   22957465.4804
   -304886.65444                  24990326.5024
  -6706736.41244  -5226020.28244  23757954.8614   23757955.4744
 96  4  6  1 58 30.0000000  0  7G20G 6G16G 5G24G25G17
  -9462802.02544  -7373610.68144  20481383.9154   20481384.3944
 -14307731.67944 -11148873.12244  21475739.6234   21475739.2224
 -12806838.11044  -9979344.53444  21010004.8744   21010005.3974
   3340260.33644   2602799.02644  21189016.3994   21189016.4644
  12925345.86844  10071698.05144  22972175.9554   22972176.0204
   -301589.52044   -235004.45344  24990955.7374
  -6789461.22844  -5290481.10244  23742212.9644   23742214.6904
 96  4  6  1 59  0.0000000  0  7G20G 6G16G 5G24G25G17
  -9447571.01144  -7361742.35744  20484282.4114   20484282.6954
 -14363719.40244 -11192499.90344  21465085.5004   21465085.2534
 -12810183.29744  -9981951.14644  21009367.9094   21009368.5184
   3411483.35644   2658297.47044  21202569.9644   21202569.7974
  13002696.37844  10131971.18244  22986895.0304   22986895.4674
   -297832.15444   -232076.56944  24991668.8354
  -6871981.11144  -5354782.25844  23726509.5204   23726510.3114
 96  4  6  1 59 30.0000000  0  7G20G 6G16G 5G24G25G17
  -9431777.28944  -7349435.56344  20487287.7724   20487288.2464
 -14419563.34444 -11236014.65244  21454458.7784   21454458.4024
 -12812917.26644  -9984081.48444  21008847.9894   21008848.6434
   3483146.98144   2714139.23844  21216206.8274   21216207.0534
  13080066.79044  10192259.82044  23001618.3274   23001618.7314
   -293639.73344   -228809.71144  24992468.1924   24992469.1654
  -6954310.64644  -5418935.07644  23710842.5544   23710844.2074
 96  4  6  2  0  0.0000000  0  7G20G 6G16G 5G24G25G17
  -9415436.75744  -7336702.68844  20490397.3174   20490397.7004
 -14475279.27244 -11279429.64944  21443856.2074   21443855.8774
 -12815043.90344  -9985738.57844  21008443.1444   21008443.8404
   3555222.95844   2770302.31344  21229922.2764   21229922.6374
  13157420.25944  10252535.24644  23016337.5964   23016338.1184
   -289019.82844   -225209.91044  24993348.7094   24993349.9214
  -7036471.09944  -5482956.16044  23695209.0154   23695211.3124
 96  4  6  2  0 30.0000000  0  7G20G 6G16G 5G24G25G17
  -9398538.29444  -7323535.05644  20493612.8854   20493613.1974
 -14530858.39244 -11322738.05044  21433280.1174   21433279.8054
 -12816562.18544  -9986921.62844  21008154.3154   21008154.7064
   3627699.09644   2826777.21344  21243714.1114   21243714.4744
  13234759.79444  10312799.79944  23031054.3764   23031054.4714
   -283964.78844   -221270.89544  24994311.0394
  -7118445.23844  -5546832.03744  23679609.0844   23679612.0784
 96  4  6  2  1  0.0000000  0  7G20G 6G16G 5G24G25G17
  -9381042.20944  -7309901.74844  20496941.9944   20496942.6404
 -14586280.98444 -11365924.47544  21422733.4084   21422732.9774
 -12817437.86644  -9987603.95744  21007987.6884   21007988.0144
   3700591.95544   2883576.82644  21257585.0714   21257585.5674
  13312137.60644  10373094.20244  23045779.5004   23045779.8924
   -278440.72844   -216966.43044  24995361.4364   24995362.9614
  -7200192.85644  -5610531.40244  23664052.5774   23664054.5954
 96  4  6  2  1 30.0000000  0  7G20G 6G16G 5G24G25G17
  -9362934.48944  -7295791.84044  20500388.2514   20500388.5074
 -14641557.59544 -11408997.15044  21412214.8864   21412214.5794
 -12817684.39344  -9987796.03844  21007940.5704   21007941.2494
   3773890.52944   2940692.58144  21271533.6614   21271534.2184
  13389572.91444  10433433.41644  23060515.5904   23060515.1934
   -272455.31644   -212302.50044  24996501.6514   24996503.7744
  -7281713.54244  -5674053.97644  23648539.0384   23648542.6194
 96  4  6  2  2  0.0000000  0  7G20G 6G16G 5G24G25G17
  -9344214.66344  -7281204.96644  20503950.5884   20503951.1874
 -14696700.41244 -11451965.56444  21401721.3614   21401720.8924
 -12817324.92344  -9987515.90944  21008008.8084   21008009.4484
   3847594.96344   2998124.58944  21285559.0104   21285559.2434
  13467066.04844  10493817.66744  23075261.3614   23075262.5384
   -266006.97244   -207277.89144  24997730.6724   24997734.1074
  -7363021.41644  -5737410.70844  23633067.1894   23633069.3644
 96  4  6  2  2 30.0000000  0  7G20G 6G16G 5G24G25G17
  -9324875.37344  -7266135.39344  20507630.6214   20507630.9074
 -14751708.92844 -11494829.32444  21391253.6884   21391253.2084
 -12816351.40144  -9986757.30644  21008194.4184   21008194.6974
   3921721.82944   3055885.76544  21299664.8864   21299665.4204
  13544630.11944  10554257.19444  23090021.6224   23090022.4414
   -259097.82144                  24999044.9474
  -7444109.04144  -5800595.81344  23617636.6054   23617639.9944
 96  4  6  2  3  0.0000000  0  7G20G 6G16G 5G24G25G17
  -9304929.46544  -7250593.13244  20511426.1934   20511426.7054
 -14806584.42344 -11537589.44544  21380810.9004   21380810.7444
 -12814765.30444  -9985521.35744  21008496.1774   21008496.9174
   3996270.66344   3113975.74344  21313850.8804   21313851.3404
  13622251.72144  10614741.56544  23104792.6204   23104792.3044
   -251729.65644   -196152.73644  25000446.1414   25000445.5094
  -7524996.15044  -5863624.65044  23602243.3564   23602247.6194
 96  4  6  2  3 30.0000000  0  7G20G 6G16G 5G24G25G17
  -9284380.05444  -7234580.60844  20515336.8414   20515337.2294
 -14861317.92444 -11580238.91944  21370395.5734   21370395.3314
 -12812579.92544  -9983818.44044  21008912.1534   21008912.5194
   4071254.41944   3172404.62244  21328119.9034   21328120.3574
  13699923.67844  10675265.16244  23119572.5004   23119573.0904
   -243889.94844   -190043.86344  25001938.0614   25001942.4834
  -7605691.59644  -5926504.15044  23586887.9844   23586891.2654
 96  4  6  2  4  0.0000000  0  7G20G 6G16G 5G24G25G17
  -9263243.95344  -7218110.91744  20519358.7184   20519359.0884
 -14915910.79044 -11622778.80644  21360006.9944   21360006.3534
 -12809802.95744  -9981654.54444  21009440.3934   21009440.8534
   4146675.92844   3231174.60744  21342472.0374   21342472.4774
  13777630.45344  10735815.90244  23134359.6754   23134360.1334
   -235563.25244   -183555.58644  25003524.4594   25003525.3404
  -7686195.09644  -5989234.14644  23571569.3844   23571571.1724
 96  4  6  2  4 30.0000000  0  7G20G 6G16G 5G24G25G17
  -9241515.42044  -7201179.59544  20523493.6994   20523494.0754
 -14970352.89644 -11665201.22044  21349647.0304   21349646.5174
 -12806431.42044  -9979027.34944  21010081.8114   21010082.5154
   4222531.18844   3290282.56944  21356906.7544   21356907.4874
  13855385.29744  10796404.07644  23149155.9114   23149155.6934
   -226753.41344   -176690.77644  25005200.6474   25005201.9814
  -7766495.92144  -6051806.18644  23556288.7694   23556290.6394
 96  4  6  2  5  0.0000000  0  7G20G 6G16G 5G24G25G17
  -9219192.92644  -7183785.44944  20527741.4474   20527741.6634
 -15024648.67744 -11707509.60344  21339315.0184   21339314.5114
 -12802477.47144  -9975946.32244  21010834.6194   21010835.0044
   4298807.47344   3349718.60444  21371421.6224   21371421.7274
  13933188.84644  10857030.22444  23163961.2804   23163962.7824
   -217464.39044   -169452.59244  25006968.3364   25006969.3834
  -7846604.81844  -6114228.65044  23541044.9674   23541046.2204
 96  4  6  2  5 30.0000000  0  7G20G 6G16G 5G24G25G17
  -9196333.94844  -7165973.26744  20532090.9854   20532091.4154
 -15078868.65444 -11749758.91744  21328996.9584   21328996.5624
 -12798004.71244  -9972461.03044  21011685.6874   21011685.9064
   4375444.16444   3409435.47744  21386005.1834   21386005.7844
  14010982.11644  10917648.36144  23178764.3734   23178765.4924
   -207767.52944   -161896.61044  25008813.3664   25008812.8934
  -7926574.57444  -6176542.67544  23525826.7104   23525828.1984
 96  4  6  2  6  0.0000000  0  7G20G 6G16G 5G24G25G17
  -9172906.98744  -7147718.49744  20536549.3204   20536549.7624
 -15132990.06344 -11791931.42844  21318698.0714   21318697.7344
 -12792971.74344  -9968539.20744  21012643.2404   21012643.7924
   4452455.19644   3469444.04344  21400659.9944   21400660.2964
  14088771.47244  10978263.45644  23193567.6234   23193568.3304
   -197665.76944   -154025.08144  25010735.5534   25010735.0624
  -8006381.68744  -6238729.99944  23510640.4144   23510641.6614
 96  4  6  2  6 30.0000000  0  7G20G 6G16G 5G24G25G17
  -9148853.01844  -7128975.14944  20541126.5844   20541126.9744
 -15186965.67744 -11833990.33544  21308426.8364   21308426.4334
 -12787331.06744  -9964143.85544  21013716.3334   21013716.8074
   4529879.41744   3529774.56144  21415393.5044   21415393.9014
  14166590.04044  11038901.35744  23208376.1034   23208377.4474
   -187136.54644   -145820.46044  25012738.7914
  -8085983.42044  -6300757.26844  23495492.0434   23495494.1264
 96  4  6  2  7  0.0000000  0  7G20G 6G16G 5G24G25G17
  -9124200.87944  -7109765.69644  20545817.8274   20545818.2034
 -15240807.17544 -11875944.73944  21298181.0914   21298180.5584
 -12781107.16344  -9959294.04544  21014900.7964   21014901.3354
   4607705.79044   3590418.45644  21430203.7484   21430203.8144
  14244406.14444  11099537.12244  23223184.3884   23223185.3144
   -176177.31144                  25014823.0644
  -8165390.69144  -6362633.04744  23480380.7674   23480382.5424
 96  4  6  2  7 30.0000000  0  7G20G 6G16G 5G24G25G17
  -9098934.24744  -7090077.41744  20550625.5684   20550625.9514
 -15294471.78744 -11917761.30444  21287969.2364   21287968.7564
 -12774260.59044  -9953959.03844  21016203.7854   21016204.2894
   4685966.25144   3651400.59244  21445096.2824   21445096.8074
  14322243.39444  11160189.57544  23237996.4034   23237996.9954
   -164757.83644                  25016994.6274
  -8244565.19844  -6424327.42744  23465315.3624   23465317.2064
 96  4  6  2  8  0.0000000  0  7G20G 6G16G 5G24G25G17
  -9073073.69744  -7069926.34144  20555546.8434   20555547.2834
 -15347956.17044 -11959437.42744  21277791.1944   21277790.8454
 -12766804.24944  -9948148.89644  21017622.3954   21017622.8644
   4764630.43144   3712697.32144  21460065.1924   21460065.5334
  14400092.01544  11220850.84044  23252810.9674   23252811.2724
   -152900.21544   -119142.86044  25019251.6134
  -8323514.76544  -6485846.51944  23450291.8874   23450294.0774
 96  4  6  2  8 30.0000000  0  7G20G 6G16G 5G24G25G17
  -9046650.85444  -7049337.11944  20560574.9444   20560575.3594
 -15401257.94344 -12000971.26244  21267648.3794   21267648.0534
 -12758757.83444  -9941878.95144  21019153.7404   21019154.1544
   4843679.71044   3774294.11944  21475107.9084   21475108.5124
  14477964.09244  11281530.38744  23267628.4964   23267628.1244
   -140605.53244   -109562.61444  25021591.9494
  -8402248.54144  -6547197.46044  23435308.6434   23435310.7034
 96  4  6  2  9  0.0000000  0  7G20G 6G16G 5G24G25G17
  -9019663.73344  -7028308.20144  20565710.2674   20565710.8014
 -15454347.70944 -12042339.89944  21257545.7764   21257545.4094
 -12750088.14244  -9935123.33944  21020803.6604   21020804.0784
   4923125.14044   3836199.61444  21490226.2724   21490226.7274
  14555902.39544  11342261.53544  23282459.8874   23282460.5674
   -127852.45844                  25024018.5554
  -8480742.81044  -6608361.78044  23420371.2864   23420371.8314
 96  4  6  2  9 30.0000000  0  7G20G 6G16G 5G24G25G17
  -8992101.81444  -7006831.38844  20570955.4544   20570955.6604
 -15507229.24544 -12083546.27644  21247482.7404   21247482.1374
 -12740787.09944  -9927875.77544  21022573.4444   21022573.8444
   5002947.72844   3898398.99344  21505415.5434   21505415.8744
  14633896.26644  11403035.99444  23297302.0864   23297302.4484
   -114678.99044    -89360.04044  25026523.7594
  -8559007.99244  -6669347.58544  23405477.9084   23405479.9274
 96  4  6  2 10  0.0000000  0  7G20G 6G16G 5G24G25G17
  -8963976.69044  -6984915.70744  20576307.2174   20576307.7194
 -15559921.46444 -12124605.13844  21237455.7264   21237455.2864
 -12730877.89744  -9920154.30744  21024459.3684   21024459.5594
   5083136.44944   3960883.67244  21520674.9644   21520675.6794
  14711922.47244  11463835.63544  23312149.2754   23312149.5734
   -101098.55744    -78777.92044  25029107.4384   25029107.0974
  -8637060.67244  -6730167.81044  23390625.4894   23390627.4754
 96  4  6  2 10 30.0000000  0  7G 6G20G16G 5G24G25G17
 -15612467.90344 -12165550.39544  21227456.3324   21227456.0604
  -8935316.29244  -6962582.92744  20581760.9884   20581761.5684
 -12720390.89944  -9911982.61644  21026454.7914   21026455.4574
   5163678.96644   4023644.03044  21536001.7644   21536002.1894
  14789952.30944  11524638.10644  23326998.0694   23326998.4124
    -87114.90244    -67881.51844  25031766.1164
  -8714936.39044  -6790850.14044  23375805.1294   23375808.1634
 96  4  6  2 11  0.0000000  0  7G20G 6G16G 5G24G25G17
  -8906071.44444  -6939794.72844  20587326.2064   20587326.7544
 -15664858.34944 -12206374.10644  21217486.8044   21217486.4194
 -12709297.11044  -9903338.09644  21028566.3194   21028566.5534
   5244616.39844   4086712.13444  21551403.7654   21551404.0244
  14868002.46044  11585456.41444  23341850.6854   23341850.2544
    -72692.44844    -56643.35344  25034512.0924   25034512.4134
  -8792602.65744  -6851369.22644  23361025.6924   23361028.7164
 96  4  6  2 11 30.0000000  0  7G20G 6G16G 5G24G25G17
  -8876227.36244  -6916539.59344  20593005.4374   20593005.7644
 -15717096.42544 -12247079.08744  21207546.2694   21207545.8694
 -12697599.62644  -9894223.16944  21030791.8274   21030792.2024
   5325977.18544   4150110.11944  21566886.3184   21566886.4244
  14946061.60044  11646281.72244  23356705.1824   23356704.3364
    -57818.99244    -45053.69344  25037343.5794   25037342.6824
  -8870056.36744  -6911722.69144  23346287.8514   23346288.3934
 96  4  6  2 12  0.0000000  0  7G20G 6G16G 5G24G25G17
  -8845844.15444  -6892864.36044  20598787.2384   20598787.6104
 -15769246.80844 -12287715.73644  21197622.3444   21197621.9064
 -12685360.27144  -9884685.99544  21033120.8984   21033121.3704
   5407713.30544   4213800.57344  21582440.1324   21582440.5014
  15024094.04344  11707086.20844  23371553.8574   23371555.3614
    -42535.21244    -33144.30644  25040251.0394   25040251.6354
  -8947349.40144  -6971951.00744  23331579.8264   23331580.1474
 96  4  6  2 12 30.0000000  0  7G20G 6G16G 5G24G25G17
  -8814878.98344  -6868735.65544  20604679.7564   20604680.1344
 -15821285.17744 -12328265.10144  21187719.8904   21187719.3154
 -12672549.88544  -9874703.86644  21035558.6234   21035559.0154
   5489841.93744   4277796.86744  21598069.1334   21598069.5594
  15102136.58644  11767898.54944  23386405.2444   23386405.8394
    -26820.19344    -20898.97644  25043241.0624   25043239.9344
  -9024450.79344  -7032029.97544  23316907.9524   23316908.5984
 96  4  6  2 13  0.0000000  0  7G20G 6G16G 5G24G25G17
  -8783278.29144  -6844111.74344  20610693.0704   20610693.4624
 -15873151.63144 -12368680.50344  21177849.7524   21177849.3324
 -12659121.91544  -9864240.50844  21038113.6364   21038114.0604
   5572404.08544   4342130.97844  21613779.3644   21613779.6714
  15180225.55444  11828747.07144  23401264.4454   23401264.6254
    -10647.86844     -8297.12544  25046318.1864   25046317.8004
  -9101302.76344  -7091914.58444  23302283.5244   23302284.1434
 96  4  6  2 13 30.0000000  0  7G20G 6G16G 5G24G25G17
  -8751087.34344  -6819027.89844  20616818.8954   20616819.2204
 -15924875.01144 -12408984.41644  21168007.0984   21168006.5244
 -12645122.82344  -9853332.11944  21040778.0024   21040778.5014
   5655343.19044   4406758.80744  21629562.4024   21629562.9694
  15258316.29144  11889597.01344  23416125.2434   23416125.7764
      5925.51744      4617.11544  25049472.5934   25049475.3624
  -9177944.25144  -7151635.17144  23287698.3264   23287701.0064
 96  4  6  2 14  0.0000000  0  7G20G 6G16G 5G24G25G17
  -8718324.09144  -6793498.10344  20623053.3994   20623053.9424
 -15976452.14044 -12449174.37244  21158192.5754   21158191.9674
 -12630567.89444  -9841990.61444  21043547.4184   21043547.7074
   5738611.83744   4471643.43144  21645407.9494   21645408.9074
  15336399.69044  11950441.23244  23430983.8144   23430984.6804
     22890.05044     17835.26044  25052702.2434
  -9254390.04944  -7211203.25344  23273150.6304   23273153.2244
 96  4  6  2 14 30.0000000  0  7G20G 6G16G 5G24G25G17
  -8684993.72744  -6767526.40544  20629396.2024   20629396.6894
 -16027860.59244 -12489232.89244  21148409.8604   21148409.4304
 -12615451.75344  -9830211.79744  21046424.0204   21046424.3254
   5822206.67344   4536782.22344  21661315.4124   21661315.9464
  15414472.04844  12011276.84144  23445839.8784   23445839.9384
     40257.93144     31367.61544  25056007.0184
  -9330638.26244  -7270617.41144  23258641.7634   23258643.9584
 96  4  6  2 15  0.0000000  0  7G20G 6G16G 5G24G25G17
  -8651105.99844  -6741120.39044  20635844.6994   20635845.0824
 -16079081.93144 -12529145.60344  21138662.4994   21138662.2784
 -12599767.86444  -9817990.57744  21049408.4774   21049408.9154
   5906129.67144   4602176.72044  21677285.4754   21677286.2344
  15492538.50944  12072107.86244  23460696.4404   23460696.7554
     58028.30644     45212.55744  25059389.3214   25059386.8214
  -9406690.44944  -7329878.82344  23244169.7224   23244171.1414
 96  4  6  2 15 30.0000000  0  7G20G 6G16G 5G24G25G17
  -8616667.03044  -6714284.82744  20642398.1074   20642398.4424
 -16130108.40144 -12568906.47644  21128952.6284   21128952.1434
 -12583501.13144  -9805315.18844  21052503.7594   21052504.2544
   5990377.01044   4667823.95644  21693317.3324   21693317.9854
  15570612.71044  12132944.91444  23475553.1994   23475554.7494
     76208.22844                  25062848.5444
  -9482547.53844  -7388988.19444  23229733.8404   23229735.1484
 96  4  6  2 16  0.0000000  0  7G 6G20G16G 5G24G25G17
 -16180929.08544 -12608506.99744  21119281.5784   21119281.1164
  -8581676.96044  -6687019.83544  20649056.4834   20649056.8334
 -12566627.46544  -9792166.85544  21055715.1224   21055715.2844
   6074963.02044   4733735.09044  21709413.8424   21709414.1734
  15648711.28044  12193800.93744  23490414.2954   23490415.4084
     94812.14244     73872.82444  25066387.7444
  -9558207.56344  -7447944.00144  23215336.3064   23215338.1954
 96  4  6  2 16 30.0000000  0  7G 6G20G16G 5G24G25G17
 -16231555.77744 -12647956.35444  21109647.9304   21109647.1574
  -8546128.32344  -6659319.60644  20655821.4104   20655821.9154
 -12549139.54444  -9778539.87944  21059042.5634   21059042.9094
   6159905.45744   4799923.97244  21725578.0824   21725578.3854
  15726831.26944  12254673.64344  23505280.3274   23505279.8954
    113825.06744     88689.10444  25070006.6744
  -9633666.85944  -7506743.39644  23200977.9114   23200977.9794
 96  4  6  2 17  0.0000000  0  7G20G 6G16G 5G24G25G17
  -8509991.51944  -6631161.07044  20662697.9414   20662698.2364
 -16281974.34244 -12687243.52344  21100053.5004   21100053.0684
 -12531010.79844  -9764413.55644  21062492.4904   21062492.7584
   6245228.71544   4866409.58944  21741814.3394   21741814.9884
  15804987.58044  12315574.66844  23520153.3794   23520153.0054
    133257.61544    103831.40544  25073706.5524   25073709.9334
  -9708899.33944  -7565366.05744  23186660.5544   23186662.2444
 96  4  6  2 17 30.0000000  0  7G20G 6G16G 5G24G25G17
  -8473268.76244  -6602545.94044  20669686.1014   20669686.4064
 -16332196.21144 -12726377.42644  21090496.5104   21090495.9284
 -12512249.26844  -9749794.16244  21066062.3254   21066062.6204
   6330934.49644   4933193.28044  21758123.4344   21758124.0464
  15883169.22344  12376495.42644  23535030.7144   23535031.9634
    153126.53444    119313.76044  25077487.4944   25077485.1604
  -9783908.30544  -7623814.56344  23172386.4904   23172387.8474
 96  4  6  2 18  0.0000000  0  7G20G 6G16G 5G24G25G17
  -8435931.07744  -6573451.64244  20676791.0444   20676791.4184
 -16382205.34444 -12765345.57244  21080979.8884   21080979.3364
 -12492864.31144  -9734688.98544  21069751.4844   21069751.8564
   6417032.26144   5000282.39344  21774507.5894   21774508.2524
  15961377.09944  12437436.61444  23549912.7404   23549913.6644
    173452.10144    135151.92744  25081355.6404   25081355.2514
  -9858681.47744  -7682079.32844  23158157.4114   23158157.8234
 96  4  6  2 18 30.0000000  0  7G 6G20G16G 5G24G25G17
 -16432026.20144 -12804167.00544  21071499.4194   21071499.0874
  -8398006.80244  -6543900.25944  20684007.9474   20684008.3454
 -12472907.73744  -9719138.40344  21073549.1904   21073549.6054
   6503489.37844   5067651.53344  21790959.9534   21790960.3004
  16039579.89244  12498373.88244  23564793.5894   23564795.8174
    194205.77744    151324.31544  25085304.8234   25085303.3264
  -9933239.46544  -7740176.42244  23143969.6484   23143971.3994
 96  4  6  2 19  0.0000000  0  7G20G 6G16G 5G24G25G17
  -8359532.79444  -6513920.51744  20691329.2334   20691329.7254
 -16481669.59844 -12842850.15544  21062052.5234   21062052.0404
 -12452407.30444  -9703164.02644  21077450.3084   21077450.6284
   6590276.85144   5135278.08044  21807475.0874   21807475.5654
  16117759.43044  12559292.99144  23579671.2504   23579672.2444
    215375.22044    167821.62544  25089333.4414   25089332.6914
 -10007603.87144  -7798122.65444  23129819.2594   23129820.4354
 96  4  6  2 19 30.0000000  0  7G 6G20G16G 5G24G25G17
 -16531107.24644 -12881372.98544  21052645.0274   21052644.4264
  -8320500.58644  -6483505.81644  20698756.8334   20698757.0824
 -12431344.69544  -9686751.59944  21081458.4754   21081458.6584
   6677408.32344   5203172.68144  21824055.6724   21824056.1254
  16195937.29844  12620210.82544  23594548.4194   23594549.4664
    236981.84844    184660.88444  25093445.1624   25093445.4994
 -10081751.44444  -7855899.94244  23115708.7374   23115710.5384
 96  4  6  2 20  0.0000000  0  7G20G 6G16G 5G24G25G17
  -8280922.13644  -6452665.47244  20706288.4654   20706288.9334
 -16580342.14644 -12919737.82744  21043275.7004   21043275.0544
 -12409713.45544  -9669896.07344  21085574.4804   21085574.9504
   6764871.24944   5271325.57144  21840699.5774   21840699.8024
  16274114.26444  12681127.93744  23609424.9564   23609425.3514
    258995.96044    201824.07544  25097634.0994   25097634.4084
 -10155679.75544  -7913506.35344  23101640.5064   23101642.1144
 96  4  6  2 20 30.0000000  0  6G 6G20G16G 5G24G17
 -16629405.07744 -12957968.66444  21033939.4324   21033938.8384
  -8240841.92344  -6421434.14144  20713915.3254   20713915.6834
 -12387518.82844  -9652601.54244  21089797.9164   21089798.3164
   6852655.10544   5339728.53544  21857403.8814   21857404.7264
  16352280.84044  12742036.93244  23624299.2034   23624299.7544
 -10229401.61544  -7970951.91644  23087611.8414   23087613.2234
 96  4  6  2 21  0.0000000  0  7G20G 6G16G 5G24G23G17
  -8200211.17544  -6389773.82144  20721647.3834   20721647.5654
 -16678265.83744 -12996041.95644  21024641.6244   21024641.0064
 -12364708.08444  -9634826.91844  21094138.6514   21094139.0854
   6940797.63344   5408410.99444  21874177.2494   21874177.8174
  16430476.94044  12802968.97044  23639179.9544   23639179.9334
        -0.55554                  25274802.0954
 -10302879.55244  -8028207.40444  23073629.3384   23073631.3414
 96  4  6  2 21 30.0000000  0  7G 6G20G16G 5G24G23G17
 -16726928.10344 -13033960.58344  21015380.9384   21015380.6014
  -8159017.81244  -6357675.10044  20729485.8844   20729486.4134
 -12341289.90344  -9616578.96444  21098595.0364   21098595.5494
   7029299.66844   5477373.59744  21891018.0024   21891018.5404
  16508702.64644  12863924.08444  23654066.0524   23654065.1854
   -107177.50844    -83515.20644  25254406.6674   25254410.7534
 -10376109.42344  -8085269.59744  23059694.1934   23059696.5584
 96  4  6  2 22  0.0000000  0  7G 6G20G16G 5G24G23G17
 -16775459.61944 -13071777.32544  21006146.0594   21006145.4034
  -8117306.18644  -6325172.53944  20737423.1204   20737423.5704
 -12317336.80344  -9597914.19944  21103153.3334   21103153.5174
   7118098.64644   5546567.56944  21907915.8564   21907916.6654
  16586894.56144  12924852.86244  23668945.2484   23668944.2304
   -214428.43444                  25233996.1934
 -10449156.90644  -8142189.67944  23045793.8344   23045795.0564
 96  4  6  2 22 30.0000000  0  6G 6G16G 5G24G17G20
 -16823863.04544 -13109494.26644  20996935.1754   20996934.4484
 -12292866.11644  -9578846.10844  21107809.5554   21107809.8264
   7207190.16344   5615989.51844  21924869.4484   21924869.9274
  16665047.18944  12985751.00844  23683816.7674   23683817.1094
 -10522038.51344  -8198980.48144  23031924.5344   23031927.4554
  -8075074.32644  -6292264.60244  20745459.9174   20745460.3754
 96  4  6  2 23  0.0000000  0  6G16G 5G24G17G20G 6
 -12267816.55044  -9559326.95244  21112576.3234   21112576.7604
   7296626.01644   5685679.77944  21941888.5254   21941889.6754
  16743215.50644  13046661.40244  23698691.9064   23698692.2424
 -10594686.32244  -8255589.11244  23018100.7304   23018102.5554
  -8032245.44044  -6258891.45444  20753609.7674   20753610.2674
 -16872052.53744 -13147044.51344  20987765.1614   20987764.6044
 96  4  6  2 23 30.0000000  0  6G16G 5G24G17G20G 6
 -12242210.32244  -9539374.03044  21117449.2804   21117449.5094
   7386378.07944   5755616.43844  21958968.1794   21958968.7924
  16821359.19944  13107552.60044  23713561.9284   23713562.3104
 -10667119.56744  -8312030.55044  23004316.4194   23004317.8244
  -7988847.59644  -6225074.96644  20761868.2374   20761868.5294
 -16920047.72644 -13184443.34144  20978631.8644   20978631.4014
 96  4  6  2 24  0.0000000  0  7G16G 5G24G23G17G20G 6
 -12216030.04044  -9518973.79444  21122431.1604   21122431.6434
   7476447.53844   5825800.40144  21976107.9074   21976108.6954
  16899487.90244  13168432.10344  23728429.0594   23728431.6604
         0.25854                  25152309.6074
 -10739338.29544  -8368304.85944  22990573.7824   22990575.2924
  -7944875.96144  -6190811.37644  20770235.9584   20770236.1964
 -16967843.09844 -13221686.48144  20969536.6064   20969535.8544
 96  4  6  2 24 30.0000000  0  6G16G 5G24G17G20G 6
 -12189253.92844  -9498109.28744  21127526.4434   21127526.7894
   7566842.58144   5896238.05444  21993309.7394   21993309.6484
  16977618.63844  13229313.19444  23743297.4514   23743297.1634
 -10811324.34544  -8424397.85444  22976874.8664   22976876.8414
  -7900338.23544  -6156106.67044  20778711.2934   20778711.6874
 -17015423.73844 -13258762.29744  20960482.3244   20960481.7784
 96  4  6  2 25  0.0000000  0  6G16G 5G24G17G20G 6
 -12161916.15444  -9476807.10744  21132728.9524   21132729.2584
   7657511.70244   5966889.26544  22010563.1184   22010564.0194
  17055700.96644  13290156.57544  23758155.9564   23758155.3684
 -10883104.70244  -8480330.53744  22963215.8544   22963217.8024
  -7855283.56944  -6120999.15744  20787284.8104   20787285.1814
 -17062836.18644 -13295707.04844  20951460.2174   20951459.5854
 96  4  6  2 25 30.0000000  0  7G16G 5G24G23G17G20G 6
 -12133982.81344  -9455040.85944  21138044.0094   21138044.4884
   7748494.33644   6037784.78844  22027876.4414   22027877.1004
  17133781.42144  13350998.49344  23773014.1204   23773016.8654
        -0.35354                  25091079.6084
 -10954665.92944  -8536092.47544  22949597.8934   22949600.5084
  -7809678.52644  -6085462.77844  20795963.0474   20795963.5834
 -17110056.05744 -13332501.74944  20942474.4254   20942473.8634
 96  4  6  2 26  0.0000000  0  7G16G 5G24G23G17G20G 6
 -12105458.33244  -9432813.97444  21143472.0804   21143472.5084
   7839797.83844   6108930.31844  22045251.0774   22045252.2044
  17211881.47944  13411855.67844  23787876.2394   23787876.6564
   -107245.89744                  25070670.8764
 -11026010.16644  -8591685.33444  22936022.1344   22936024.6634
  -7763532.66244  -6049504.97444  20804744.3774   20804745.0464
 -17157057.83944 -13369126.50244  20933530.2884   20933529.8634
 96  4  6  2 26 30.0000000  0  7G16G 5G24G23G17G20G 6
 -12076370.31744  -9410147.96144  21149007.4684   21149007.9234
   7931403.37844   6180311.18444  22062682.4734   22062684.0464
  17289967.37244  13472701.81244  23802735.9444   23802735.1574
   -214509.81744                  25050258.2994
 -11097151.93744  -8647120.43844  22922483.8704   22922484.2524
  -7716872.48044  -6013146.39244  20813623.4964   20813623.9444
 -17203843.17244 -13405582.59744  20924627.3624   20924626.7294
 96  4  6  2 27  0.0000000  0  7G16G 5G24G23G17G20G 6
 -12046741.33544  -9387060.41544  21154645.7684   21154646.0854
   8023304.99744   6251922.76944  22080171.2444   22080172.0104
  17368024.11144  13533525.23744  23817589.9364   23817588.5344
   -321803.37744   -250755.19344  25029841.6094
 -11168107.90844  -8702410.76144  22908980.8574   22908982.0664
  -7669700.25244  -5976388.81344  20822600.1514   20822600.6874
 -17250409.38644 -13441867.95344  20915766.4054   20915765.8774
 96  4  6  2 27 30.0000000  0  7G16G 5G24G23G17G20G 6
 -12016570.71144  -9363550.81944  21160386.5054   21160386.8824
   8115521.09044   6323779.41944  22097719.8314   22097720.9704
  17446069.41144  13594339.75944  23832440.3004   23832441.7244
   -429099.52544                  25009423.6084
 -11238876.13344  -8757554.78444  22895514.3954   22895515.3554
  -7622011.51744  -5939228.76944  20831674.9974   20831675.3784
 -17296724.63444 -13477957.74644  20906952.5714   20906951.7524
 96  4  6  2 28  0.0000000  0  7G16G 5G24G23G17G20G 6
 -11985862.12344  -9339622.04044  21166230.5484   21166230.8344
   8208034.13744   6395867.48344  22115324.1744   22115324.9914
  17524093.39044  13655137.66644  23847287.4484   23847289.0664
   -536386.46044   -417962.42444  24989008.3654   24989013.2194
 -11309444.53744  -8812543.09844  22882085.7954   22882087.9424
  -7573817.63044  -5901675.09844  20840845.9574   20840846.2674
 -17342797.26744 -13513858.48444  20898185.2504   20898184.8034
 96  4  6  2 28 30.0000000  0  7G16G 5G24G23G17G20G 6
 -11954578.29444  -9315245.01944  21172183.5934   21172183.9674
   8300863.88544   6468202.33044  22132989.2634   22132990.1324
  17602128.41444  13715944.21644  23862136.4964   23862138.0274
   -643610.58544   -501513.45444  24968604.5304   24968610.7454
 -11379777.22944  -8867347.73644  22868702.2534   22868703.2794
  -7525073.07144  -5863692.33044  20850121.4934   20850121.9024
 -17388617.97844 -13549562.92644  20889466.1804   20889465.5384
 96  4  6  2 29  0.0000000  0  7G16G 5G24G23G17G20G 6
 -11922705.47944  -9290409.05244  21178248.8284   21178249.3524
   8394004.55444   6540779.46944  22150713.8334   22150713.8104
  17680196.26344  13776776.29644  23876993.1244   23876993.1234
   -750768.07744   -585012.62244  24948212.6704
 -11449876.76944  -8921970.69344  22855362.2884   22855362.9584
  -7475775.22844  -5825278.43544  20859502.7754   20859503.2434
 -17434196.63344 -13585078.75244  20880792.5674   20880792.1934
 96  4  6  2 29 30.0000000  0  7G16G 5G24G23G17G20G 6
 -11890268.87144  -9265133.76644  21184421.2034   21184421.5584
   8487421.75344   6613572.09944  22168489.8604   22168490.7164
  17758277.67244  13837618.95244  23891852.3244   23891851.3714
   -857900.95044   -668492.63644  24927825.8304
 -11519767.98844  -8976431.33444  22842062.5724   22842064.1804
  -7425948.82344  -5786452.66844  20868984.3604   20868984.8974
 -17479575.69644 -13620439.04344  20872157.1474   20872156.6454
 96  4  6  2 30  0.0000000  0  7G16G 5G24G23G17G20G 6
 -11857269.55244  -9239420.00044  21190701.0244   21190700.9234
   8581099.15544   6686567.47044  22186316.3344   22186317.5604
  17836356.78944  13898459.79644  23906709.7914   23906711.6794
   -965011.59544   -751955.35044  24907442.9414   24907447.1844
 -11589450.38944  -9030729.27544  22828802.2154   22828802.6774
  -7375586.10444  -5747208.99244  20878567.7824   20878568.4294
 -17524781.62544 -13655664.43244  20863554.7704   20863554.1444
 96  4  6  2 30 30.0000000  0  7G16G 5G24G23G17G20G 6
 -11823715.59944  -9213274.04244  21197086.0864   21197086.2944
   8675046.43144   6759773.13744  22204194.1674   22204194.8214
  17914418.42544  13959287.06344  23921564.5454   23921566.6484
  -1072092.11144   -835394.59144  24887067.1774   24887071.1774
 -11658918.70144  -9084860.36744  22815583.0274   22815583.7664
  -7324683.66344  -5707544.75044  20888254.4884   20888255.0664
 -17569807.53444 -13690749.54944  20854986.5974   20854985.9774
 96  4  6  2 31  0.0000000  0  7G16G 5G24G23G20G 6G17
 -11789607.75044  -9186696.47444  21203576.3384   21203576.6264
   8769272.62444   6833196.11844  22222124.1594   22222125.2974
  17992452.90644  14020093.13944  23936413.8634   23936415.5484
  -1179152.77544   -918818.33944  24866693.9754   24866698.2294
  -7273248.49244  -5667465.40044  20898042.2364   20898042.6404
 -17614636.33244 -13725681.07244  20846456.0414   20846455.3634
 -11728176.11144  -9138827.14344  22802403.5714   22802404.9144
 96  4  6  2 31 30.0000000  0  7G16G 5G24G23G17G20G 6
 -11754952.31744  -9159692.21344  21210170.8884   21210171.1624
   8863777.39944   6906836.19744  22240108.2964   22240109.1774
  18070444.01144  14080865.42644  23951255.4724   23951255.1624
  -1286186.51444  -1002221.11344  24846325.0514
 -11797205.88244  -9192616.53444  22789267.3264   22789269.3104
  -7221274.01244  -5626965.81544  20907932.8364   20907933.2224
 -17659257.76444 -13760450.99844  20837964.5974   20837964.1704
 96  4  6  2 32  0.0000000  0  7G16G 5G24G23G17G20G 6
 -11719742.55844  -9132256.01644  21216871.2154   21216871.5784
   8958557.33344   6980690.66544  22258144.2124   22258145.3044
  18148369.54044  14141586.64744  23966084.5914   23966085.1714
  -1393179.39944  -1085592.08344  24825966.0564   24825966.7464
 -11866011.67744  -9246231.39344  22776174.8114   22776175.7304
  -7168775.52244  -5586057.90844  20917923.1914   20917923.5294
 -17703653.94844 -13795045.40044  20829516.5344   20829515.8824
 96  4  6  2 32 30.0000000  0  7G16G 5G24G23G17G20G 6
 -11683980.68944  -9104389.59944  21223676.5574   21223676.8964
   9053619.83344   7054765.33044  22276234.1814   22276234.7364
  18226247.38944  14202270.68144  23980904.4604   23980903.8234
  -1500147.03144  -1168943.33244  24805610.6454   24805613.8314
 -11934598.29544  -9299675.47244  22763122.5574   22763124.0004
  -7115763.82744  -5544750.10044  20928010.8134   20928011.3854
 -17747810.24544 -13829452.89244  20821113.8294   20821113.2524
 96  4  6  2 33  0.0000000  0  7G16G 5G24G23G17G20G 6
 -11647661.45644  -9076088.87044  21230587.6474   21230588.0154
   9148964.52544   7129059.90444  22294376.8154   22294378.0314
  18304096.24344  14262932.11944  23995718.2504   23995716.6844
  -1607094.34544  -1252278.76644  24785258.5414
 -12002961.73944  -9352945.65144  22750113.5534   22750114.6694
  -7062239.92144  -5503043.17044  20938195.7774   20938196.4154
 -17791711.66244 -13863661.78444  20812759.4674   20812758.9164
 96  4  6  2 33 30.0000000  0  7G16G 5G24G23G20G 6G17
 -11610794.02244  -9047360.97444  21237603.4924   21237603.8734
   9244585.85544   7203570.04844  22312573.5464   22312574.3234
  18381914.38744  14323569.63544  24010526.0284   24010526.2274
  -1714006.72244  -1335587.07744  24764913.6594   24764918.5844
  -7008212.55144  -5460943.92244  20948476.8484   20948477.2364
 -17835357.93044 -13897671.85444  20804453.8744   20804453.1344
 -12071099.35444  -9406039.88444  22737147.3274   22737148.7434
 96  4  6  2 34  0.0000000  0  7G16G 5G24G20G 6G23G17
 -11573370.57244  -9018199.82044  21244724.7354   21244724.7734
   9340504.49144   7278311.83444  22330825.7514   22330826.9924
  18459714.80644  14384193.31744  24025330.4764   24025331.0834
  -6953679.12844  -5418450.34044  20958854.3504   20958854.7984
 -17878740.64844 -13931476.55844  20796198.3834   20796197.5634
  -1820868.07644  -1418855.48944  24744579.1404   24744584.6684
 -12139013.43444  -9458959.90844  22724224.0704   22724225.0314
 96  4  6  2 34 30.0000000  0  7G16G 5G24G23G17G20G 6
 -11535395.57144  -8988608.88844  21251951.5604   21251951.6894
   9436722.37844   7353286.79944  22349135.5774   22349136.5354
  18537524.84044  14444824.51844  24040137.4474   24040137.6794
  -1927665.64744  -1502074.22344  24724255.2544   24724261.0544
 -12206695.45444  -9511699.11644  22711344.3204   22711346.0754
  -6898617.36244  -5375545.06144  20969332.2354   20969332.7074
 -17921862.33844 -13965077.86644  20787992.7454   20787992.2544
 96  4  6  2 35  0.0000000  0  7G20G 6G16G 5G24G23G17
  -6843022.99944  -5332224.78544  20979911.5744   20979911.7744
 -17964720.04944 -13998473.47544  20779837.3024   20779836.6944
 -11496871.55744  -8958590.17544  21259281.9424   21259282.2314
   9533227.42644   7428485.54044  22367500.1784   22367500.6754
  18615334.72944  14505455.62044  24054943.3694   24054944.1144
  -2034365.52744  -1585216.88944  24703950.2654   24703956.7774
 -12274139.08444  -9564252.55344  22698510.5814   22698511.1874
 96  4  6  2 35 30.0000000  0  7G20G 6G16G 5G24G23G17
  -6786910.77244  -5288500.98444  20990589.3914   20990589.7124
 -18007336.34544 -14031680.96944  20771727.6744   20771727.0464
 -11457806.36244  -8928149.75444  21266715.9474   21266715.8224
   9629992.49344   7503886.87544  22385914.1364   22385915.1844
  18693125.99344  14566072.16744  24069746.0134   24069748.3444
  -2140980.52244  -1668293.39544  24683661.8644   24683664.9354
 -12341363.27644  -9616635.00144  22685718.6014   22685719.9364
 96  4  6  2 36  0.0000000  0  7G20G 6G16G 5G24G23G17
  -6730280.81444  -5244373.75844  21001365.5334   21001366.0484
 -18049721.01544 -14064707.97144  20763661.8334   20763660.8594
 -11418196.43844  -8897284.87044  21274253.3694   21274253.8304
   9727004.12744   7579480.36044  22404374.8444   22404375.3314
  18770911.60844  14626684.32644  24084549.1664   24084548.9104
  -2247528.07244  -1751317.32744  24663385.6524   24663391.1484
 -12408358.21544  -9668838.80944  22672970.2224   22672971.3194
 96  4  6  2 36 30.0000000  0  7G20G 6G16G 5G24G23G17
  -6673151.15944  -5199857.15144  21012237.1884   21012237.7914
 -18091882.65844 -14097561.19444  20755638.8174   20755638.1384
 -11378056.22644  -8866006.76844  21281891.9894   21281892.0834
   9824238.63744   7655247.51144  22422878.0634   22422879.3364
  18848698.25744  14687297.33344  24099351.4384   24099352.9464
  -2354013.27544  -1834292.73544  24643125.0744   24643128.7944
 -12475122.13144  -9720862.59544  22660265.0314   22660265.6714
 96  4  6  2 37  0.0000000  0  7G20G 6G16G 5G24G23G17
  -6615544.64444  -5154968.96244  21023199.0944   21023199.6294
 -18133820.66544 -14130240.15244  20747658.4774   20747657.5694
 -11337379.54444  -8834310.63244  21289632.4554   21289632.4684
   9921691.40444   7731184.69544  22441422.1444   22441422.6434
  18926466.98944  14747896.36944  24114150.6244   24114151.9194
  -2460446.95744  -1917227.97444  24622870.5434   24622878.7344
 -12541656.43244  -9772707.47944  22647603.7644   22647605.6624
 96  4  6  2 37 30.0000000  0  7G20G 6G16G 5G24G23G17
  -6557470.49344  -5109716.37844  21034250.6204   21034251.0604
 -18175549.16444 -14162755.86344  20739717.7574   20739716.6554
 -11296173.73944  -8802202.19844  21297473.5474   21297473.5394
  10019366.70044   7807295.28244  22460009.6534   22460010.3944
  19004210.69844  14808475.85944  24128945.3284   24128944.7554
  -2566864.20944  -2000150.38844  24602618.7224   24602621.8884
 -12607975.80344  -9824384.87344  22634983.6114   22634984.1914
 96  4  6  2 38  0.0000000  0  7G20G 6G16G 5G24G23G17
  -6498935.09444  -5064104.37944  21045389.2644   21045389.7024
 -18217080.18744 -14195117.68744  20731814.5504   20731814.1524
 -11254455.60544  -8769694.54944  21305412.3324   21305412.4814
  10117262.37944   7883577.61344  22478639.0524   22478639.4904
  19081927.17144  14869034.13744  24143734.0474   24143734.5364
  -2673259.13744  -2083055.44544  24582372.0744   24582378.6084
 -12674103.64944  -9875913.02044  22622399.4044   22622401.1514
 96  4  6  2 38 30.0000000  0  7G20G 6G16G 5G24G23G17
  -6439907.26544  -5018108.67944  21056621.7134   21056622.2524
 -18258379.94144 -14227299.29744  20723955.3354   20723954.9244
 -11212210.48044  -8736776.25344  21313451.1124   21313451.6054
  10215401.45844   7960049.60544  22497313.5474   22497314.4954
  19159614.31944  14929569.58344  24158517.3004   24158517.4034
  -2779599.84944  -2165918.23444  24562136.3334   24562142.2524
 -12740040.21744  -9927292.12344  22609852.2534   22609853.2014
 96  4  6  2 39  0.0000000  0  7G20G 6G16G 5G24G23G17
  -6380363.28844  -4971710.78744  21067952.9884   21067953.3764
 -18299438.03044 -14259292.60344  20716142.3544   20716141.7294
 -11169435.38844  -8703444.99744  21321591.0684   21321591.2674
  10313780.80744   8036708.81744  22516034.9034   22516035.5744
  19237257.03044  14990070.37944  24173292.1304   24173293.8634
  -2885888.03044  -2248740.10744  24541911.0234   24541915.1234
 -12805792.75844  -9978527.81644  22597339.6944   22597340.1514
 96  4  6  2 39 30.0000000  0  7G20G 6G16G 5G24G23G17
  -6320287.30844  -4924898.35644  21079384.8104   21079385.3354
 -18340241.83744 -14291087.76944  20708377.7184   20708377.0374
 -11126130.67944  -8669701.04644  21329831.7674   21329831.9764
  10412399.98944   8113554.90644  22534801.1274   22534802.3044
  19314871.38444  15050549.12644  24188061.3794   24188062.6084
  -2992106.31844  -2331507.52644  24521698.1874   24521700.4124
 -12871357.90744 -10029617.49144  22584862.9264   22584864.1354
 96  4  6  2 40  0.0000000  0  7G20G 6G16G 5G24G23G17
  -6259699.07744  -4877686.76744  21090914.0724   21090914.5124
 -18380784.51644 -14322679.45344  20700662.6104   20700661.9704
 -11082304.92344  -8635551.09544  21338170.9964   21338171.4624
  10511227.13844   8190563.05544  22553607.5704   22553608.7294
  19392441.01444  15110992.94844  24202823.0944   24202822.5774
  -3098245.30344  -2414213.15944  24501502.0304   24501503.5764
 -12936733.45144 -10080559.43244  22572422.5484   22572423.1514
 96  4  6  2 40 30.0000000  0  7G20G 6G16G 5G24G23G17
  -6198590.09044  -4830069.40144  21102542.9944   21102543.5554
 -18421043.24344 -14354049.87644  20693001.3224   20693001.0064
 -11037944.82644  -8600984.77544  21346612.8184   21346612.8144
  10610264.70544   8267735.17244  22572453.9314   22572454.9724
  19469968.15244  15171403.69444  24217574.1674   24217575.6454
  -3204303.12444  -2496855.53144  24481319.5554   24481321.7214
 -13001878.09844 -10131321.45344  22560025.4904   22560026.6724
 96  4  6  2 41  0.0000000  0  7G20G 6G16G 5G24G23G17
  -6136998.19444  -4782075.73744  21114263.5894   21114264.0654
 -18461036.49944 -14385213.44844  20685391.1824   20685390.5724
 -10993054.63344  -8566005.38844  21355155.0004   21355155.3644
  10709511.77544   8345070.52844  22591339.6624   22591341.4134
  19547456.68244  15231784.36944  24232320.7984   24232319.3244
  -3310292.71944  -2579444.71044  24461149.4404   24461152.6144
 -13066790.37144 -10181902.39144  22547673.4674   22547674.5684
 96  4  6  2 41 30.0000000  0  7G20G 6G16G 5G24G23G17
  -6074937.38244  -4733716.68044  21126073.2554   21126073.7774
 -18500749.26444 -14416158.46844  20677833.8184   20677833.1844
 -10947618.24644  -8530600.39544  21363801.5824   21363801.2744
  10808995.11344   8422589.96844  22610270.7874   22610272.4154
  19624930.59344  15292153.64544  24247064.6474   24247064.9354
  -3416196.95044  -2661967.44644  24440997.1504   24440999.4244
 -13131449.01644 -10232285.71344  22535369.1074   22535370.2764
 96  4  6  2 42  0.0000000  0  7G20G 6G16G 5G24G23G17
  -6012416.05344  -4684998.76944  21137970.6884   21137971.0534
 -18540187.15244 -14446889.28344  20670329.1884   20670328.5984
 -10901638.14544  -8494771.72444  21372550.8124   21372551.0144
  10908716.81644   8500295.17544  22629247.1644   22629248.2124
  19702381.49544  15352505.00344  24261802.9844   24261804.5624
  -3522019.14144  -2744426.22644  24420859.2324   24420860.8534
 -13195850.47744 -10282468.62344  22523114.0484   22523115.1214
 96  4  6  2 42 30.0000000  0  7G20G 6G16G 5G24G23G17
  -5949438.32344  -4635925.22144  21149955.4724   21149955.8434
 -18579362.82144 -14477415.76444  20662874.1314   20662873.7984
 -10855129.13944  -8458530.92344  21381401.3184   21381401.5314
  11008687.76844   8578194.59444  22648270.6824   22648271.1384
  19779811.67844  15412840.21344  24276537.7234   24276537.1524
  -3627762.84444  -2826823.81444  24400736.4144   24400738.5644
 -13260010.11344 -10332463.09744  22510904.9794   22510906.3244
 96  4  6  2 43  0.0000000  0  7G20G 6G16G 5G24G23G17
  -5886019.82044  -4586508.20344  21162023.6314   21162023.9004
 -18618269.23644 -14507732.43444  20655470.5814   20655470.3284
 -10808098.59344  -8421883.72944  21390350.9774   21390351.1214
  11108917.49144   8656295.64644  22667344.4954   22667345.0044
  19857230.27244  15473166.38444  24291270.2984   24291268.5274
  -3733415.59544  -2909150.56744  24380630.9714   24380633.4274
 -13323956.50944 -10382291.41744  22498736.4554   22498737.0244
 96  4  6  2 43 30.0000000  0  7G20G 6G16G 5G24G23G17
  -5822151.71144  -4536740.84444  21174176.6934   21174177.2824
 -18656910.99444 -14537842.87944  20648117.6374   20648116.8444
 -10760572.33544  -8384850.26844  21399394.8054   21399395.2834
  11209370.53944   8734570.72444  22686460.0074   22686460.4024
  19934616.79944  15533467.60144  24305995.7404   24305996.1764
  -3838981.44644  -2991409.59944  24360544.3904   24360548.5154
 -13387704.61344 -10431965.23044  22486605.3414   22486606.1394
 96  4  6  2 44  0.0000000  0  7G20G 6G16G 5G24G23G17
  -5757827.43844  -4486618.03244  21186417.3724   21186418.0154
 -18695285.92944 -14567745.41244  20640815.0534   20640813.9044
 -10712555.88544  -8347434.85644  21408532.0844   21408532.5064
  11310037.21944   8813012.27744  22705616.0044   22705616.6184
  20011977.69044  15593748.79444  24320716.8304   24320715.6734
  -3944454.07244  -3073596.00444  24340473.2624   24340475.0684
 -13451261.83544 -10481490.31044  22474510.5184   22474511.5764
 96  4  6  2 44 30.0000000  0  7G20G 6G16G 5G24G23G17
  -5693049.66744  -4436141.85344  21198744.1974   21198744.6784
 -18733384.51744 -14597432.61844  20633564.8154   20633564.1564
 -10664057.01544  -8309643.52844  21417760.9654   21417761.0854
  11410915.12944   8891618.40244  22724812.4544   22724813.6254
  20089318.05844  15654013.98144  24335433.5844   24335435.4114
  -4049835.94844  -3155711.68644  24320418.9594   24320422.4834
 -13514635.28044 -10530872.16644  22462450.9984   22462451.6514
 96  4  6  2 45  0.0000000  0  7G20G 6G16G 5G24G23G17
  -5627813.10044  -4385308.18144  21211158.2874   21211158.6934
 -18771203.00844 -14626901.56744  20626368.3304   20626367.8954
 -10615067.96944  -8271470.23244  21427083.2844   21427083.5784
  11511992.84544   8970380.22244  22744047.3064   22744048.4834
  20166634.50344  15714260.56544  24350145.1984   24350150.2344
  -4155128.84844  -3237758.05344  24300383.3854   24300386.0474
 -13577818.06044 -10580105.45944  22450427.5274   22450429.2274
 96  4  6  2 45 30.0000000  0  7G20G 6G16G 5G24G23G17
  -5562088.08344  -4334093.90844  21223665.3974   21223665.8084
 -18808739.92144 -14656151.09644  20619225.3224   20619224.4784
 -10565574.11244  -8232903.57544  21436501.8684   21436501.8014
  11613268.82844   9049296.55044  22763319.0964   22763320.2604
  20243926.39744  15774487.99144  24364853.7264   24364854.7424
  -4260316.90244  -3319722.71644  24280365.7344   24280369.7934
 -13640780.71944 -10629167.24044  22438445.7324   22438447.3174
 96  4  6  2 46  0.0000000  0  7G20G 6G16G 5G24G23G17
  -5495879.55244  -4282502.86444  21236264.8604   21236265.3314
 -18845988.75744 -14685176.15444  20612136.8454   20612135.9674
 -10515562.27144  -8193933.29144  21446018.9224   21446018.7964
  11714759.93244   9128380.52144  22782632.3534   22782632.9064
  20321200.16844  15834701.28044  24379558.2854   24379561.5974
  -4365382.57044  -3401592.00644  24260371.8574   24260377.8284
 -13703501.93744 -10678040.87044  22426510.6614   22426511.7504
 96  4  6  2 46 30.0000000  0  7G20G 6G16G 5G24G23G17
  -5429201.34744  -4230545.83644  21248952.8984   21248953.6224
 -18882965.66544 -14713989.32044  20605100.3454   20605099.8044
 -10465047.19544  -8154570.87344  21455631.7234   21455631.8314
  11816439.72844   9207611.52544  22801981.8234   22801982.9024
  20398414.92544  15894868.62344  24394253.5144   24394254.4024
  -4470337.00344  -3483374.57444  24240399.6604   24240404.2534
 -13765978.98544 -10726724.25344  22414621.5694   22414622.6464
 96  4  6  2 47  0.0000000  0  7G20G 6G16G 5G24G23G17
  -5362038.33944  -4178211.03644  21261733.6524   21261734.0574
 -18919678.96844 -14742597.07644  20598114.1594   20598113.5134
 -10414022.03044  -8114810.98644  21465341.0374   21465341.1684
  11918313.32244   9286993.53444  22821367.7424   22821368.9054
  20475575.79044  15954993.91744  24408936.3214   24408936.8074
  -4575164.09344  -3565057.98544  24220451.8674   24220454.9794
 -13828201.83844 -10775209.55844  22402781.0884   22402781.8444
 96  4  6  2 47 30.0000000  0  7G20G 6G16G 5G24G23G17
  -5294404.46344  -4125509.31344  21274603.9864   21274604.6244
 -18956130.45744 -14771000.82744  20591177.8314   20591177.0414
 -10362498.43544  -8074662.71444  21475145.7894   21475145.7214
  12020366.19544   9366515.20544  22840787.4744   22840788.9544
  20552675.41344  16015071.54844  24423609.1744   24423608.5714
  -4679878.32944  -3646653.44444  24200525.9694   24200529.1524
 -13890167.91944 -10823494.77344  22390988.9984   22390990.0214
 96  4  6  2 48  0.0000000  0  7G20G 6G16G 5G24G23G17
  -5226320.71944  -4072457.04044  21287560.0954   21287560.4844
 -18992310.63744 -14799193.16444  20584293.1294   20584292.4744
 -10310479.79244  -8034128.69144  21485044.6774   21485044.8594
  12122580.14644   9446162.40444  22860237.8904   22860238.8854
  20629717.94744  16075104.71644  24438270.0884   24438266.9274
  -4784503.66744  -3728179.56444  24180615.0194   24180618.7774
 -13951891.77644 -10871591.24044  22379243.6974   22379244.7814
 96  4  6  2 48 30.0000000  0  7G20G 6G16G 5G24G23G17
  -5157801.92444  -4019065.77344  21300598.8684   21300599.2014
 -19028232.39244 -14827184.13144  20577457.1584   20577456.5964
 -10257976.51144  -7993217.03244  21495035.6154   21495035.8244
  12224947.29444   9525929.01544  22879717.5254   22879718.7414
  20706707.48544  16135096.67344  24452919.9784   24452919.4784
  -4889073.89744  -3809662.78344  24160717.2384   24160719.0954
 -14013421.35844 -10919536.32944  22367534.9034   22367535.8474
 96  4  6  2 49  0.0000000  0  7G20G 6G16G 5G24G23G17
  -5088845.86044  -3965333.78744  21313720.4124   21313720.8214
 -19063880.31744 -14854961.72344  20570673.5974   20570673.0154
 -10204982.79844  -7951923.20644  21505120.0654   21505120.3874
  12327488.04844   9605830.86044  22899230.4844   22899231.9954
  20783680.30344  16195075.56644  24467567.6884   24467567.0344
  -4993587.61644  -3891101.99644  24140830.5514   24140831.5454
 -14074760.32744 -10967332.88044  22355862.6224   22355863.8494
 96  4  6  2 49 30.0000000  0  7G20G 6G16G 5G24G23G17
  -5019460.75644  -3911267.48144  21326924.0664   21326924.6614
 -19099222.00544 -14882500.69744  20563948.3944   20563947.4954
 -10151480.19444  -7910232.85644  21515301.2194   21515301.2874
  12430209.34244   9685873.41844  22918777.7134   22918779.0204
  20860654.91644  16255055.72244  24482215.0414   24482215.2644
  -5098021.85644  -3972479.28244  24120956.3964   24120959.5724
 -14135884.41044 -11014961.99144  22344231.0384   22344232.0414
 96  4  6  2 50  0.0000000  0  7G20G 6G16G 5G24G23G17
  -4949643.86344  -3856864.71544  21340209.5944   21340210.3274
 -19134266.17644 -14909807.83944  20557279.5714   20557278.9124
 -10097477.87944  -7868153.11844  21525577.4154   21525577.3694
  12533132.15944   9766073.00244  22938363.0244   22938364.3644
  20937634.35444  16315039.66244  24496862.2754   24496866.4774
  -5202347.77244  -4053772.11444  24101102.9924   24101106.1524
 -14196804.25744 -11062431.96244  22332638.2764   22332639.0724
 96  4  6  2 50 30.0000000  0  7G20G 6G16G 5G24G23G17
  -4879394.39644  -3802124.88944  21353577.3664   21353578.2544
 -19169022.44444 -14936890.63544  20550665.4204   20550664.9884
 -10042994.15944  -7825698.25844  21535945.3104   21535945.4344
  12636266.57844   9846437.46344  22957989.5024   22957990.7684
  21014603.89544  16375015.85044  24511508.4074   24511511.8224
  -5306548.16344  -4134967.18044  24081273.1634   24081273.7324
 -14257513.10044 -11109737.50644  22321086.0564   22321086.9344
 96  4  6  2 51  0.0000000  0  7G20G 6G16G 5G24G23G17
  -4808716.57144  -3747051.28244  21367027.1084   21367028.2824
 -19203484.08044 -14963743.84744  20544107.8084   20544107.1534
  -9988046.44944  -7782881.84744  21546401.6194   21546401.9384
  12739590.27744   9926949.40844  22977651.1034   22977651.8754
  21091542.17044  16434967.73344  24526151.1224   24526154.3044
  -5410604.34544  -4216049.82344  24061472.0304   24061475.1534
 -14317976.35144 -11156851.67544  22309580.0634   22309581.2254
 96  4  6  2 51 30.0000000  0  8G20G 6G16G 5G24G23G17G26
  -4737598.11344  -3691634.31644  21380560.4884   21380561.2134
 -19237653.72844 -14990369.53844  20537605.7154   20537604.7704
  -9932636.79744  -7739705.47544  21556945.4324   21556945.7144
  12843095.24044  10007602.60244  22997347.8274   22997348.5684
  21168421.97344  16494874.05044  24540781.1204   24540782.5094
  -5514494.51544  -4297003.14544  24041703.0564   24041705.7174
 -14378193.85644 -11203774.36444  22298120.8094   22298121.9744
        -1.15154                  24092922.9154
 96  4  6  2 52  0.0000000  0  7G20G 6G16G 5G24G23G17
  -4666046.49844  -3635879.81544  21394176.8054   21394177.2774
 -19271546.86844 -15016779.76644  20531155.8834   20531155.2604
  -9876785.89544  -7696185.28244  21567573.7474   21567573.8954
  12946762.05044  10088381.90444  23017074.3554   23017075.2244
  21245212.67744  16554710.91044  24555393.6644   24555396.8194
  -5618246.03144  -4377848.41344  24021959.1244   24021962.3434
 -14438198.44344 -11250531.13744  22286702.2334   22286702.7724
 96  4  6  2 52 30.0000000  0  7G20G 6G16G 5G24G23G17
  -4594086.33444  -3579806.96344  21407870.6724   21407871.0534
 -19305157.42144 -15042969.79944  20524760.1714   20524759.4704
  -9820495.50344  -7652322.62644  21578285.3404   21578285.4704
  13050556.27844  10169260.50244  23036826.7154   23036827.7064
  21321911.14644  16614475.91544  24569989.7374   24569990.2234
  -5721883.83844  -4458605.08544  24002238.8874   24002239.8894
 -14498001.85644 -11297131.15444  22275321.6834   22275321.9384
 96  4  6  2 53  0.0000000  0  7G20G 6G16G 5G24G23G17
  -4521708.66544  -3523408.77544  21421643.2764   21421643.4644
 -19338478.94944 -15068934.61944  20518419.3194   20518418.7164
  -9763744.04044  -7608100.69444  21589085.0334   21589084.9324
  13154487.30844  10250245.69044  23056602.9784   23056604.4704
  21398532.47444  16674180.85544  24584571.2474   24584572.8044
  -5825392.04744  -4539260.77844  23982542.1094   23982543.7644
 -14557608.68644 -11343578.00044  22263979.1294   22263979.5324
 96  4  6  2 53 30.0000000  0  8G20G 6G16G 5G24G23G17G26
  -4448891.05744  -3466667.77344  21435499.9754   21435500.1114
 -19371490.44844 -15094657.85944  20512137.0384   20512136.4204
  -9706494.31244  -7563490.50744  21599979.0204   21599979.3294
  13258585.04344  10331360.77244  23076412.9214   23076413.4744
  21475106.15144  16733848.70644  24599141.8994   24599138.8184
  -5928750.44644  -4619799.72144  23962872.5104   23962875.8204
 -14617015.05744 -11389868.63744  22252674.8444   22252676.0184
        -0.36954                  24032762.6094
 96  4  6  2 54  0.0000000  0  7G20G 6G16G 5G24G23G17
  -4375660.52944  -3409605.02344  21449435.3344   21449435.8034
 -19404190.21644 -15120138.18844  20505914.7474   20505914.1574
  -9648743.09244  -7518489.55344  21610968.8604   21610968.5714
  13362843.90544  10412601.40244  23096253.3424   23096253.9904
  21551657.23744  16793498.93844  24613708.3704   24613706.1644
  -6031980.37744  -4700238.54744  23943228.3674   23943230.8024
 -14676228.79444 -11436009.17244  22241406.8624   22241407.5744
 96  4  6  2 54 30.0000000  0  8G20G 6G16G 5G24G23G17G26
  -4302034.26544  -3352233.92144  21463445.5114   21463446.1394
 -19436600.58444 -15145393.00644  20499747.4084   20499746.4544
  -9590511.98744  -7473114.65944  21622049.5814   21622049.7174
  13467250.84244  10493957.42544  23116122.0094   23116122.6574
  21628181.66444  16853128.38344  24628271.8064   24628272.0324
  -6135083.99444  -4780578.95744  23923608.9064   23923609.7894
 -14735251.68244 -11482000.99844  22230175.3704   22230175.8744
        -0.89854                  24002773.5484
 96  4  6  2 55  0.0000000  0  6G20G16G 5G 6G23G17
  -4227991.63544  -3294538.38044  21477535.4304   21477536.5574
  -9531793.56944  -7427360.04144  21633223.1844   21633223.6254
  13571819.84344  10575439.73144  23136020.0634   23136020.7484
 -19468720.23544 -15170421.29644  20493635.0614   20493634.4844
  -6238038.90044  -4860803.50644  23904017.2944   23904019.5474
 -14794065.96644 -11527830.27044  22218983.1194   22218983.7744
 96  4  6  2 55 30.0000000  0  6G20G 6G16G 5G23G17
  -4153535.09044  -3236520.29844  21491704.0534   21491704.9204
 -19500542.02544 -15195217.48644  20487579.5844   20487578.8254
  -9472610.27644  -7381243.18744  21644485.9514   21644485.8524
  13676536.64844  10657037.19844  23155946.4064   23155947.9034
  -6340847.34044  -4940913.90544  23884453.5844   23884456.1064
 -14852654.76544 -11573483.84944  22207833.7244   22207834.1974
 96  4  6  2 56  0.0000000  0  7G20G 6G16G 5G23G17G26
  -4078675.04144  -3178187.79544  21505949.3714   21505950.1604
 -19532077.76844 -15219790.78744  20481578.5164   20481577.8994
  -9412995.14544  -7334789.83244  21655830.0194   21655830.3474
  13781384.98944  10738737.18444  23175899.0194   23175899.9934
  -6443524.05344  -5020921.65844  23864914.5854   23864917.4894
 -14911027.97944 -11618969.43344  22196726.1234   22196726.5704
        -0.64854                  23957966.7784
 96  4  6  2 56 30.0000000  0  7G20G 6G16G 5G23G17G26
  -4003393.28644  -3119526.68844  21520275.5604   21520276.0674
 -19563320.96544 -15244136.13344  20475633.1294   20475632.2534
  -9352949.29744  -7288000.85144  21667256.6044   21667256.8504
  13886361.17644  10820536.77744  23195874.4084   23195875.7344
  -6546043.70944  -5100807.04344  23845405.4714   23845408.2304
 -14969173.04144 -11664277.22544  22185661.0394   22185661.7344
    -78278.32244                  23943071.9234
 96  4  6  2 57  0.0000000  0  7G20G 6G16G 5G23G17G26
  -3927687.06044  -3060534.81644  21534681.7644   21534682.1774
 -19594260.29944 -15268244.70144  20469745.5174   20469744.6484
  -9292467.91844  -7240872.49644  21678765.8984   21678766.1654
  13991458.31444  10902430.60944  23215874.2144   23215875.5644
  -6648418.97244  -5180579.91644  23825924.3594   23825924.6774
 -15027100.93044 -11709415.79944  22174637.6764   22174638.2074
   -156459.37544                  23928193.8054
 96  4  6  2 57 30.0000000  0  7G20G 6G16G 5G23G17G26
  -3851561.64644  -3001216.30144  21549167.7824   21549168.4004
 -19624878.74544 -15292103.22444  20463918.8534   20463918.2554
  -9231547.22044  -7193401.82344  21690358.2144   21690358.6294
  14096684.17644  10984424.75244  23235898.0354   23235899.3324
  -6750665.17144  -5260252.20844  23806467.1674   23806468.4134
 -15084817.87144 -11754389.99444  22163654.6804   22163654.9214
   -234553.89944                  23913334.2334
 96  4  6  2 58  0.0000000  0  7G20G 6G16G 5G23G17G26
  -3775042.99544  -2941591.38244  21563728.8684   21563729.7454
 -19655175.37744 -15315710.98344  20458153.8444   20458153.0194
  -9170165.55144  -7145571.94344  21702039.0824   21702038.6564
  14202032.53544  11066514.35844  23255945.4414   23255947.6524
  -6852787.85344  -5339828.23744  23787032.9374   23787033.7364
 -15142344.32144 -11799215.77344  22152707.2724   22152707.9394
   -312551.84544                  23898492.1174
 96  4  6  2 58 30.0000000  0  7G20G 6G16G 5G23G17G26
  -3698115.45044  -2881647.83744  21578367.4414   21578368.0204
 -19685120.84444 -15339045.10644  20452455.3794   20452454.6114
  -9108284.56144  -7097352.98144  21713814.7184   21713814.5504
  14307522.43444  11148714.26444  23276019.0934   23276019.6784
  -6954756.40244  -5419284.21844  23767630.0314   23767630.7764
 -15199657.06744 -11843875.00344  22141800.7874   22141801.8734
   -390415.57544                  23883673.5344
 96  4  6  2 59  0.0000000  0  7G20G 6G16G 5G23G17G26
  -3620783.44544  -2821389.13244  21593083.6374   21593084.0474
 -19714707.27244 -15362099.46044  20446825.1824   20446824.4394
  -9045906.96744  -7048747.06044  21725684.9254   21725684.5384
  14413161.45444  11231030.36044  23296121.0404   23296122.7024
  -7056575.47044  -5498623.70444  23748253.3544   23748254.9454
 -15256750.08644 -11888363.01744  22130936.5414   22130937.4084
   -468142.89444                  23868882.4284
 96  4  6  2 59 30.0000000  0  6G20G 6G16G 5G23G17
  -3543076.01644  -2760837.89944  21607870.6874   21607871.3144
 -19743953.64644 -15384888.83444  20441259.8074   20441259.0744
  -8983056.80644  -6999772.89644  21737644.4934   21737644.6334
  14518934.16744  11313450.63044  23316248.9344   23316250.5854
  -7158243.99844  -5577845.87844  23728906.9454   23728908.1574
 -15313628.87844 -11932684.10244  22120112.7954   22120113.6854
 96  4  6  3  0  0.0000000  0  6G20G 6G16G 5G23G17
  -3464977.66244  -2699982.05844  21622732.3854   21622733.0294
 -19772849.07844 -15407404.74544  20435760.9504   20435760.2844
  -8919726.94044  -6950424.94244  21749695.7294   21749695.9414
  14624843.28244  11395977.19144  23336403.3464   23336404.5974
  -7259723.92444  -5656921.10644  23709596.1534   23709597.7854
 -15370270.29344 -11976820.21044  22109334.9684   22109334.9484
 96  4  6  3  0 30.0000000  0  7G20G 6G16G 5G23G17G26
  -3386476.80144  -2638812.57044  21637670.4834   21637670.9584
 -19801411.33844 -15429661.04244  20430325.8594   20430325.2064
  -8855953.77244  -6900731.54844  21761831.6994   21761831.6794
  14730882.06544  11478604.79844  23356582.4664   23356584.2014
  -7361027.24344  -5735858.71644  23690319.7004   23690320.6224
 -15426665.69544 -12020764.63844  22098602.7124   22098603.4134
        -0.89954                  23824655.4054
 96  4  6  3  1  0.0000000  0  6G20G 6G16G 5G23G17
  -3307598.63944  -2577349.08944  21652680.8534   21652681.2084
 -19829662.41044 -15451674.85944  20424949.9144   20424949.4044
  -8791778.05744  -6850724.47844  21774043.6784   21774043.2284
  14837039.16444  11561324.56944  23376782.4604   23376784.2154
  -7462179.59744  -5814678.67744  23671069.8004   23671071.2484
 -15482830.06844 -12064529.03844  22087915.1424   22087915.6594
 96  4  6  3  1 30.0000000  0  6G20G 6G16G 5G23G17
  -3228361.83344  -2515606.13644  21667758.6074   21667759.0544
 -19857615.59044 -15473456.55144  20419630.7484   20419629.9374
  -8727216.40044  -6800416.68944  21786329.1204   21786329.2714
  14943296.55044  11644122.48244  23397002.9434   23397003.2514
  -7563194.58644  -5893391.61744  23651847.5854   23651848.9374
 -15538779.94044 -12108126.29444  22077268.5984   22077269.1414
 96  4  6  3  2  0.0000000  0  7G20G 6G16G 5G23G17G26
  -3148717.99644  -2453546.02044  21682914.4004   21682914.8394
 -19885236.24344 -15494979.13244  20414374.6744   20414373.7984
  -8662237.13644  -6749783.49744  21798694.2584   21798694.1634
  15049679.76044  11727018.48744  23417247.8934   23417248.3024
  -7664038.15644  -5971970.97844  23632658.6694   23632658.7634
 -15594486.06044 -12151533.61144  22066667.2854   22066667.8734
         0.11554                  23780633.6704
 96  4  6  3  2 30.0000000  0  7G20G 6G16G 5G23G17G26
  -3068671.81344  -2391172.37944  21698146.9124   21698147.3904
 -19912521.93844 -15516240.70544  20409182.1614   20409181.5174
  -8596831.50244  -6698818.06344  21811140.7784   21811140.8794
  15156196.73344  11810018.73644  23437516.4314   23437516.8004
  -7764708.42944  -6050415.29844  23613501.4354   23613503.1044
 -15649949.79244 -12194752.06244  22056112.8524   22056113.6034
    -76828.63544                  23766014.9604
 96  4  6  3  3  0.0000000  0  7G20G 6G16G 5G23G17G26
  -2988239.13644  -2328497.58344  21713452.3944   21713452.9554
 -19939451.72044 -15537224.94144  20404057.9244   20404057.1604
  -8530980.56944  -6647505.63444  21823671.5194   21823671.2764
  15262838.19544  11893115.98144  23457809.0224   23457810.1144
  -7865185.53644  -6128709.11544  23594379.8964   23594381.4744
 -15705187.22444 -12237794.17544  22045601.8134   22045602.2184
   -153496.22044                  23751424.6864
 96  4  6  3  3 30.0000000  0  8G20G 6G16G 5G22G23G17G26
  -2907426.80044  -2265526.94344  21728830.8284   21728831.3954
 -19966031.48144 -15557936.44544  20398999.8714   20398999.1274
  -8464677.78844  -6595841.12044  21836288.4744   21836288.7874
  15369573.64844  11976286.44344  23478120.6644   23478122.6204
        -0.06154                  24965087.4924
  -7965459.23344  -6206844.40644  23575299.2944   23575300.8024
 -15760213.30744 -12280671.59444  22035130.6404   22035131.5944
   -230021.82344                  23736860.9574
 96  4  6  3  4  0.0000000  0  7G20G 6G16G 5G23G17G26
  -2826234.80044  -2202260.45744  21744281.4164   21744281.9244
 -19992265.11044 -15578378.23044  20394007.5184   20394006.6894
  -8397926.35144  -6543827.00844  21848991.3544   21848991.5794
  15476406.11644  12059532.50344  23498450.3244   23498452.5784
  -8065525.01344  -6284817.69944  23556257.0674   23556258.3624
 -15815031.11544 -12323386.72444  22024698.9664   22024699.8534
   -306398.39144                  23722327.1824
 96  4  6  3  4 30.0000000  0  7G20G 6G16G 5G23G17G26
  -2744716.23444  -2138739.50344  21759793.5994   21759794.4264
 -20018182.75044 -15598573.78844  20389075.6424   20389074.9534
  -8330764.63544  -6491493.19944  21861771.7844   21861771.9544
  15583311.39644  12142835.30044  23518793.5064   23518796.6634
  -8165417.08844  -6362655.65544  23537248.6924   23537248.0944
 -15869667.60444 -12365960.57544  22014301.9904   22014302.6294
   -382651.69344                  23707816.9104
 96  4  6  3  5  0.0000000  0  7G20G 6G16G 5G23G17G26
  -2662839.99044  -2074939.83844  21775373.8754   21775374.7134
 -20043752.87244 -15618498.55444  20384209.8674   20384209.1664
  -8263185.50344  -6438834.13244  21874630.8374   21874631.2194
  15690307.72744  12226209.03944  23539154.9874   23539155.3244
  -8265121.47144  -6440347.34944  23518275.0804   23518274.4064
 -15924096.77244 -12408372.86944  22003944.1604   22003944.8374
   -458754.38544                  23693336.4464
 96  4  6  3  5 30.0000000  0  7G20G 6G16G 5G23G17G26
  -2580592.99444  -2010851.27544  21791024.8594   21791025.6294
 -20068994.35944 -15638167.23844  20379406.5014   20379405.8144
  -8195209.99844  -6385866.19744  21887567.2304   21887567.2104
  15797406.99944  12309663.01644  23559535.3974   23559535.9294
  -8364652.99644  -6517904.32144  23499335.8444   23499335.3884
 -15978313.95544 -12450619.98444  21993627.2214   21993627.4854
   -534702.79844                  23678883.8974
 96  4  6  3  6  0.0000000  0  7G20G 6G16G 5G23G17G26
  -2497991.25344  -1946486.28344  21806743.5664   21806744.2204
 -20093918.21844 -15657588.41844  20374663.6284   20374662.7234
  -8126849.70444  -6332598.42044  21900575.4024   21900575.3004
  15904604.38444  12393193.45744  23579933.6064   23579935.6264
  -8464024.09944  -6595336.30244  23480425.7064   23480427.1404
 -16032327.72144 -12492708.59144  21983348.8264   21983348.5394
   -610486.07844                  23664461.8824
 96  4  6  3  6 30.0000000  0  8G20G 6G16G 5G22G23G17G26
  -2415002.02944  -1881819.36644  21822536.2984   21822536.6694
 -20118476.04244 -15676724.37644  20369990.6354   20369989.5474
  -8058054.32144  -6278991.62644  21913666.5944   21913666.2254
  16011921.92644  12476817.49444  23600355.7014   23600356.7414
        -0.82454                  24870499.6874
  -8563194.89244  -6672612.22344  23461553.5474   23461555.2274
 -16086108.79044 -12534615.88344  21973114.6274   21973114.9644
   -686066.76144                  23650080.0544
 96  4  6  3  7  0.0000000  0  8G20G 6G16G 5G22G23G17G26
  -2331633.41844  -1816856.83244  21838400.5274   21838400.9314
 -20142685.15444 -15695588.60544  20365383.6114   20365382.7044
  -7988836.40944  -6225055.59444  21926838.4334   21926837.7864
  16119322.46644  12560506.21844  23620793.2014   23620794.3784
    -81783.90344                  24854939.1754
  -8662178.73344  -6749742.43744  23442717.8624   23442718.3834
 -16139684.95044 -12576363.50444  21962919.3794   21962919.6414
   -761457.99944   -593342.27644  23635732.9864
 96  4  6  3  7 30.0000000  0  7G20G 6G16G 5G23G17G26
  -2247902.61744  -1751612.06844  21854334.3254   21854334.5814
 -20166555.87544 -15714189.16144  20360841.2424   20360840.2434
  -7919183.62844  -6170780.68744  21940092.6694   21940092.1814
  16226795.70944  12644251.59944  23641244.8064   23641245.6964
  -8760958.31644  -6826713.51344  23423920.2274   23423921.6914
 -16193049.89544 -12617946.54544  21952764.7194   21952764.5484
   -836663.99144   -651944.35344  23621420.9254
 96  4  6  3  8  0.0000000  0  7G20G 6G16G 5G23G17G26
  -2163837.14444  -1686106.51544  21870331.1544   21870331.7334
 -20190070.68944 -15732512.38744  20356366.3924   20356365.6904
  -7849087.06744  -6116159.98644  21953431.8214   21953431.8414
  16334323.97344  12728039.84044  23661706.6764   23661708.6484
  -8859529.34044  -6903522.05744  23405162.3314   23405163.9554
 -16246202.32244 -12659363.98744  21942649.7544   21942650.1524
   -911683.26944   -710400.90344  23607145.8724
 96  4  6  3  8 30.0000000  0  8G20G 6G16G 5G22G23G17G26
  -2079434.56644  -1620338.28544  21886392.5944   21886393.2244
 -20213221.56944 -15750552.02644  20351960.8824   20351960.0304
  -7778567.52444  -6061209.68844  21966851.1624   21966850.9504
  16441907.73844  12811871.36044  23682179.6644   23682180.2474
        -0.49754                  24808597.4174
  -8957891.30244  -6980167.67944  23386444.4934   23386444.8194
 -16299129.56844 -12700605.97544  21932577.6224   21932578.0324
   -986520.84344   -768715.88444  23592904.6184
 96  4  6  3  9  0.0000000  0  8G20G 6G16G 5G22G23G17G26
  -1994717.31444  -1554324.85244  21902513.4514   21902514.0554
 -20236026.30444 -15768321.94344  20347621.3684   20347620.6904
  -7707668.22944  -6005963.48444  21980342.5834   21980342.3664
  16549526.40944  12895730.07644  23702658.2274   23702659.5344
    -80571.28744    -62783.32244  24793264.6834
  -9056065.47544  -7056666.97144  23367763.9274   23367765.3314
 -16351837.62444 -12741677.16244  21922547.6024   21922548.0314
  -1061193.97044   -826902.74544  23578694.6184
 96  4  6  3  9 30.0000000  0  8G20G 6G16G 5G22G23G17G26
  -1909689.06444  -1488069.08544  21918694.0744   21918694.9374
 -20258465.70044 -15785807.18144  20343351.2144   20343350.4034
  -7636381.79544  -5950415.60344  21993908.3534   21993908.0774
  16657201.02944  12979632.38044  23723148.6384   23723150.1914
   -160832.42044                  24777991.1914
  -9154042.78944  -7133012.90244  23349118.8164   23349119.5984
 -16404314.48344 -12782568.18844  21912561.6414   21912562.0124
  -1135692.40544   -884953.43444  23564518.6324
 96  4  6  3 10  0.0000000  0  8G20G 6G16G 5G22G23G17G26
  -1824347.06644  -1421568.83744  21934934.1514   21934935.0554
 -20280523.71444 -15802995.23544  20339153.5634   20339152.7724
  -7564717.31244  -5894573.14344  22007545.4614   22007545.2824
  16764947.01044  13063590.30544  23743651.6734   23743652.4534
   -240775.33944                  24762778.2224
  -9251830.07144  -7209210.72644  23330508.6244   23330511.8184
 -16456563.93744 -12823282.01844  21902619.0954   21902619.4804
  -1210007.19144   -942861.03844  23550377.8974   23550378.9634
 96  4  6  3 10 30.0000000  0  8G20G 6G16G 5G22G23G17G26
  -1738683.73244  -1354818.21144  21951235.4534   21951235.9414
 -20302216.61044 -15819898.78644  20335025.8924   20335025.0794
  -7492690.82444  -5838448.59644  22021251.5294   22021251.6414
  16872765.77044  13147604.92644  23764169.4334   23764170.8034
   -320399.26144                  24747626.5894
  -9349441.08344  -7285271.22544  23311935.2934   23311936.2734
 -16508593.13944 -12863824.22544  21892718.4144   21892718.8554
  -1284149.59544  -1000634.27444  23536267.9274   23536266.8924
 96  4  6  3 11  0.0000000  0  8G20G 6G16G 5G22G23G17G26
  -1652707.08544  -1287823.43644  21967596.3264   21967596.8394
 -20323542.46344 -15836516.32544  20330967.3764   20330966.4564
  -7420274.90944  -5782020.61444  22035031.7034   22035031.9784
  16980674.11744  13231689.34044  23784703.7144   23784705.7844
   -399681.44144                  24732539.3124
  -9446865.51344  -7361186.33644  23293395.3224   23293398.2084
 -16560408.90044 -12904200.11144  21882857.9404   21882857.6494
  -1358114.93844  -1058269.60644  23522193.2794   23522192.8544
 96  4  6  3 11 30.0000000  0  8G20G 6G16G 5G22G23G17G26
  -1566434.46844  -1220598.03544  21984013.3454   21984013.8864
 -20344520.75744 -15852863.03744  20326975.5304   20326974.7254
  -7347470.12344  -5725289.60444  22048886.1514   22048886.2474
  17088675.16744  13315846.01744  23805255.3374   23805256.9454
   -478638.22644                  24717510.4564
  -9544102.98744  -7436955.74944  23274892.0184   23274894.4464
 -16612033.40444 -12944426.94944  21873033.9934   21873033.7294
  -1431909.60444  -1115771.88844  23508150.0764   23508149.5524
 96  4  6  3 12  0.0000000  0  8G20G 6G16G 5G22G23G17G26
  -1479867.39844  -1153143.19044  22000486.3714   22000486.5044
 -20365163.69144 -15868948.43144  20323047.3204   20323046.5454
  -7274286.17944  -5668263.14144  22062813.1664   22062812.8134
  17196760.79544  13400068.57244  23825822.9634   23825824.3764
   -557275.04644   -434240.53244  24702545.9164
  -9641150.31144  -7512576.97644  23256424.7544   23256427.2584
 -16663466.65044 -12984504.76644  21863246.8674   21863247.1584
  -1505538.97244  -1173145.39344  23494139.6264   23494137.1234
 96  4  6  3 12 30.0000000  0  8G20G 6G16G 5G22G23G17G26
  -1392997.99544  -1085452.75644  22017017.7724   22017018.0174
 -20385470.97544 -15884772.27544  20319182.8664   20319182.0884
  -7200716.06244  -5610935.77444  22076812.4524   22076812.2574
  17304918.62044  13484347.40844  23846404.3604   23846406.0814
   -635585.33044                  24687643.9884
  -9737984.93144  -7588032.47544  23237997.7004   23237999.0274
 -16714707.88944 -13024432.96944  21853495.6894   21853496.0984
  -1578984.32644  -1230375.47644  23480162.7664   23480164.6974
 96  4  6  3 13  0.0000000  0  8G20G 6G16G 5G22G23G17G26
  -1305821.14244  -1017522.75244  22033606.6264   22033607.0514
 -20405434.91244 -15900328.58444  20315383.7714   20315382.9094
  -7126755.50844  -5553304.17544  22090886.5904   22090886.7214
  17413136.36344  13568672.94644  23866998.0324   23866999.6114
   -713573.73844                  24672803.7944
  -9834579.35044  -7663300.80744  23219616.5954   23219617.1054
 -16765754.27244 -13064209.33244  21843782.1334   21843782.4744
  -1652228.99844  -1287449.23344  23466225.0624   23466225.6674
 96  4  6  3 13 30.0000000  0  8G20G 6G16G 5G22G23G17G26
  -1218331.95744   -949349.37644  22050254.8524   22050256.0414
 -20425059.72044 -15915620.63844  20311649.2784   20311648.5414
  -7052438.08844  -5495394.49844  22105028.8714   22105029.2164
  17521375.53744  13653015.16844  23887594.6634   23887596.0934
   -791261.53344                  24658018.8754
  -9930950.79744  -7738395.41844  23201277.9704   23201278.4434
 -16816609.04544 -13103836.38344  21834104.6484   21834104.3884
  -1725275.10344  -1344368.24044  23452325.1924   23452326.3214
 96  4  6  3 14  0.0000000  0  8G20G 6G16G 5G22G23G17G26
  -1130539.92844   -880940.01444  22066961.0054   22066961.5944
 -20444353.02444 -15930654.37544  20307978.1224   20307977.3504
  -6977792.32644  -5437228.96244  22119233.6834   22119233.9264
  17629602.64144  13737347.98344  23908190.1064   23908190.7594
   -868653.85444                  24643294.1324
 -10027119.66644  -7813332.16844  23182976.6454   23182978.0504
 -16867276.47344 -13143317.46044  21824462.8744   21824462.5774
  -1798129.51544  -1401137.85044  23438460.8574   23438463.1744
 96  4  6  3 14 30.0000000  0  8G20G 6G16G 5G22G23G17G26
  -1042407.01244   -812265.02444  22083733.1084   22083733.6524
 -20463279.40044 -15945402.19644  20304376.5754   20304375.4474
  -6902795.80844  -5378790.11144  22133505.0464   22133504.8944
  17737834.37444  13821684.41544  23928785.4234   23928787.3654
   -945713.97244   -736920.05144  24628631.1984
 -10123060.40544  -7888091.13944  23164720.3094   23164721.0054
 -16917729.48944 -13182631.47044  21814862.1134   21814862.1624
  -1870751.21644  -1457726.13244  23424641.4334   23424642.0974
 96  4  6  3 15  0.0000000  0  8G20G 6G16G 5G22G23G17G26
   -953947.90044   -743335.85644  22100565.6454   22100566.0324
 -20481837.30044 -15959862.89344  20300844.9264   20300844.1804
  -6827465.50844  -5320091.17744  22147840.0614   22147839.9554
  17846060.91244  13906016.79244  23949380.0424   23949379.5204
  -1022456.93644   -796719.77944  24614025.0104
 -10218805.41344  -7962697.62244  23146500.9874   23146501.9824
 -16967965.31844 -13221776.24244  21805302.4254   21805303.3754
  -1943156.23944  -1514145.63044  23410863.0764   23410864.6914
 96  4  6  3 15 30.0000000  0  8G20G 6G16G 5G22G23G17G26
   -865183.46444   -674168.76844  22117457.3224   22117457.8334
 -20500027.22444 -15974036.85344  20297383.7924   20297382.8754
  -6751804.07744  -5261134.23044  22162237.5234   22162237.8214
  17954283.38744  13990346.01344  23969975.0274   23969980.0134
  -1098879.15444                  24599482.9194
 -10314369.79444  -8037163.32744  23128315.5794   23128316.7254
 -17017986.85944 -13260754.04044  21795783.4974   21795783.9394
  -2015344.31444  -1570396.03744  23397126.4294   23397126.9004
 96  4  6  3 16  0.0000000  0  8G20G 6G16G 5G22G23G17G26
   -776090.61944   -604745.77244  22134410.9424   22134411.1684
 -20517808.88144 -15987892.68444  20293999.7574   20293998.7504
  -6675759.65144  -5201878.83244  22176707.8194   22176707.6014
  18062545.64144  14074706.20344  23990576.5284   23990576.8744
  -1174929.04244   -915529.18344  24585009.4474
 -10409701.37144  -8111447.64044  23110174.6054   23110175.1234
 -17067765.22644 -13299542.34244  21786310.8844   21786311.2854
  -2087264.69844  -1626437.84944  23383439.8414   23383440.2374
 96  4  6  3 16 30.0000000  0  8G20G 6G16G 5G22G23G17G26
   -686688.24444   -535081.58644  22151423.6264   22151423.7224
 -20535191.36844 -16001437.46944  20290691.8674   20290691.0944
  -6599325.28844  -5142319.58544  22191253.7434   22191253.1914
  18170833.98844  14159086.74244  24011183.0144   24011187.3174
  -1250612.42844                  24570608.7834
 -10504805.02444  -8185554.33644  23092076.5144   23092077.7934
 -17117315.37644 -13338152.80744  21776881.9034   21776882.1294
  -2158929.09144  -1682280.20144  23369803.1714   23369802.3064
 96  4  6  3 17  0.0000000  0  7G20G 6G16G 5G23G17G26
   -596999.91044   -465194.57244  22168490.7534   22168491.2884
 -20552171.51444 -16014668.74744  20287460.7964   20287459.8174
  -6522504.40944  -5082459.15444  22205871.7154   22205871.8964
  18279154.19844  14243492.10744  24031795.1304   24031797.7714
 -10599672.10344  -8259476.70544  23074024.2644   23074025.5384
 -17166648.70644 -13376594.33144  21767493.7744   21767494.2554
  -2230353.29844  -1737935.39944  23356211.2314   23356213.2734
 96  4  6  3 17 30.0000000  0  7G20G 6G16G 5G23G17G26
   -507028.42344   -395086.92844  22185611.3254   22185612.5014
 -20568758.95644 -16027594.02244  20284304.3694   20284303.2514
  -6445293.77544  -5022295.01944  22220564.4584   22220564.5394
  18387507.59744  14327923.32344  24052413.2584
 -10694278.98144  -8333196.30944  23056020.1924   23056021.3354
 -17215780.38744 -13414878.72944  21758144.7004   21758144.7974
  -2301533.92444  -1793400.78544  23342665.5184   23342667.1014
 96  4  6  3 18  0.0000000  0  8G20G 6G16G 5G22G23G17G26
   -416768.54044   -324754.56444  22202787.4244   22202787.9844
 -20584937.71544 -16040200.84344  20281225.7314   20281224.8704
  -6367694.34444  -4961827.92144  22235331.3444   22235330.9524
  18495891.48944                  24073037.9144
        -1.08954                  24527851.5344
 -10788627.82444  -8406714.85044  23038066.7324   23038068.1864
 -17264703.12644 -13453000.31244  21748835.1834   21748835.5574
  -2372474.63744  -1848679.24244  23329166.9124   23329166.4164
 96  4  6  3 18 30.0000000  0  8G20G 6G16G 5G22G23G17G26
   -326238.49644   -254211.68944  22220015.2094   22220015.5274
 -20600717.86544 -16052497.06344  20278222.9134   20278221.9644
  -6289729.72044  -4901076.26444  22250168.0984   22250167.8564
  18604307.77544                  24093670.9184
    -74100.82944                  24513753.3764
 -10882734.61844  -8480044.75344  23020159.1474   23020160.6644
 -17313417.54744 -13490959.56144  21739564.9534   21739564.8884
  -2443200.07844  -1903789.93344  23315707.9504   23315707.4754
 96  4  6  3 19  0.0000000  0  8G20G 6G16G 5G22G23G17G26
   -235437.46444   -183457.64744  22237293.9784   22237294.3344
 -20616087.99844 -16064473.78644  20275297.7914   20275297.1994
  -6211415.52044  -4840052.19944  22265070.1444   22265069.7484
  18712767.75044                  24114309.7134
   -147808.13144                  24499725.1364
 -10976599.13844  -8553185.90244  23002296.8754   23002298.0564
 -17361918.26044 -13528752.27644  21730335.2504   21730336.1114
  -2513700.81744  -1958725.54244  23302291.4344   23302292.0784
 96  4  6  3 19 30.0000000  0  8G20G 6G16G 5G22G23G17G26
   -144353.82644   -112483.39544  22254626.6604   22254626.7714
 -20631049.59144 -16076132.17144  20272450.7534   20272449.9504
  -6132738.05244  -4778745.07144  22280041.9064   22280042.1734
  18821272.53044                  24134956.6514
   -221130.24744   -172309.11144  24485773.2314
 -11070213.84144  -8626132.37444  22984483.4934   22984483.9484
 -17410185.28844 -13566362.91744  21721150.4814   21721150.9384
  -2583946.77344  -2013462.60044  23288924.1224   23288923.7214
 96  4  6  3 20  0.0000000  0  8G20G 6G16G 5G22G23G17G26
    -52994.93344    -41294.66144  22272011.0884   22272012.0214
 -20645600.72944 -16087470.71544  20269681.8224   20269681.0084
  -6053711.61344  -4717166.02844  22295079.8704   22295080.4974
  18929810.51044                  24155612.0994
   -294083.52444                  24471888.5854
 -11163581.83644  -8698886.61744  22966715.8794   22966716.5244
 -17458223.98144 -13603795.63544  21712008.8364   21712009.1464
  -2653943.31544  -2068005.32044  23275604.4484   23275605.6314
 96  4  6  3 20 30.0000000  0  8G20G 6G16G 5G22G23G17G26
     38634.41244     30104.80044  22289447.8264   22289448.7884
 -20659763.46744 -16098506.61144  20266986.7834   20266985.9464
  -5974346.00444  -4655322.70044  22310182.7874   22310183.1274
  19038382.98644                  24176271.9474
   -366685.12344                  24458075.1924
 -11256694.20644  -8771441.67244  22948996.8604   22948997.1554
 -17506041.89344 -13641056.31244  21702909.3624   21702909.4934
  -2723680.35544  -2122345.84044  23262334.2074   23262334.4844
 96  4  6  3 21  0.0000000  0  8G20G 6G16G 5G22G23G17G26
    130552.83444    101729.51644  22306939.2744   22306939.9064
 -20673532.32844 -16109235.58744  20264366.5164   20264365.9134
  -5894633.43744  -4593208.99644  22325351.8774   22325351.3884
  19146973.21244                  24196935.8884
   -438929.85944                  24444323.4914
 -11349536.24344  -8843786.08844  22931329.5674   22931330.4084
 -17553646.20744 -13678150.54444  21693850.7444   21693850.9344
  -2793140.99844  -2176471.02044  23249116.0824   23249116.5364
 96  4  6  3 21 30.0000000  0  7G20G 6G16G22G23G17G26
    222739.60644    173563.34344  22324481.7344   22324482.2054
 -20686942.29044 -16119684.89744  20261814.7754   20261813.8794
  -5814598.56844  -4530844.15744  22340581.6604   22340581.5434
   -510833.02844   -398051.62044  24430641.8024
 -11442124.22844  -8915932.53144  22913709.9834   22913711.7194
 -17601064.50844 -13715099.83944  21684827.5114   21684827.8894
  -2862354.01744  -2230403.20444  23235945.4674   23235945.4654
 96  4  6  3 22  0.0000000  0  7G20G 6G16G22G23G17G26
    315179.14644    245594.13944  22342072.6474   22342073.8264
 -20699995.20544 -16129855.99144  20259331.0184   20259330.1254
  -5734267.33644  -4468248.38844  22355868.5194   22355868.7924
   -582397.88944                  24417020.9614
 -11534480.08144  -8987898.08944  22896135.7624   22896137.0804
 -17648314.15144 -13751917.71544  21675835.9054   21675836.3954
  -2931328.15544  -2284149.23544  23222819.9674   23222820.5664
 96  4  6  3 22 30.0000000  0  7G20G 6G16G22G23G17G26
    407873.26844    317823.28144  22359711.3584   22359711.6524
 -20712689.46144 -16139747.61144  20256915.1664   20256914.3094
  -5653629.71144  -4405413.86844  22371213.1914   22371213.1444
   -653625.46444                  24403468.2644
 -11626604.75944  -9059683.51644  22878604.6024   22878605.7904
 -17695391.59844 -13788601.40044  21666877.2094   21666877.5264
  -3000053.99444  -2337701.78644  23209742.2584   23209742.3404
 96  4  6  3 23  0.0000000  0  7G20G 6G16G22G23G17G26
    500862.19244    390282.16344  22377407.3334   22377407.8004
 -20724977.35044 -16149322.58044  20254576.8724   20254575.9254
  -5572656.38144  -4342317.76344  22386621.8284   22386621.9404
   -724471.41344                  24389987.0054
 -11718457.76644  -9131257.25544  22861124.9264   22861126.6674
 -17742264.00644 -13825125.31744  21657957.6774   21657958.0664
  -3068496.24544  -2391033.35344  23196717.6404   23196717.7804
 96  4  6  3 23 30.0000000  0  7G20G 6G16G22G23G17G26
    594128.33444    462957.05544  22395154.7464   22395155.3414
 -20736859.78544 -16158581.61444  20252315.6384   20252314.8884
  -5491357.16044  -4278967.71044  22402092.6234   22402092.4054
   -794920.56944                  24376582.1774
 -11810043.08444  -9202622.38644  22843697.6714   22843699.4314
 -17788921.86544 -13861482.06544  21649078.6904   21649079.1314
  -3136658.45144  -2444146.70844  23183746.6244   23183746.5624
 96  4  6  3 24  0.0000000  0  7G20G 6G16G22G23G17G26
    687667.40944    535844.61144  22412954.9074   22412954.9204
 -20748313.50944 -16167506.58544  20250136.1954   20250135.5304
  -5409711.25244  -4215347.52544  22417629.0664   22417628.9184
   -864961.70644                  24363254.3124
 -11901359.79244  -9273778.23844  22826321.7284   22826321.3664
 -17835353.02644 -13897662.15444  21640243.4984   21640243.8394
  -3204519.92244  -2497025.72944  23170833.0974   23170834.2934
 96  4  6  3 24 30.0000000  0  7G20G 6G16G22G23G17G26
    781465.54944    608934.02044  22430803.9784   22430804.4854
 -20759361.98144 -16176115.77744  20248033.7524   20248032.8164
  -5327742.28044  -4151475.59744  22433227.2404   22433227.7104
   -934613.49144   -728270.14744  24349997.4214
 -11992421.00944  -9344735.00844  22808993.0324   22808993.2344
 -17881567.16244 -13933673.14644  21631449.3074   21631449.6784
  -3272107.72044  -2549691.50244  23157971.2924   23157970.6174
 96  4  6  3 25  0.0000000  0  7G20G 6G16G22G23G17G26
    875517.06044    682220.85544  22448701.1804   22448701.7604
 -20769999.06044 -16184404.40344  20246009.5174   20246008.7384
  -5245457.95444  -4087357.94744  22448885.8624   22448885.5394
  -1003870.03944   -782236.28644  24336819.2404
 -12083227.98444  -9415493.66944  22791712.5884   22791713.0214
 -17927548.04844 -13969502.37444  21622699.0814   21622699.2274
  -3339406.01344  -2602131.69044  23145164.2354   23145164.4044
 96  4  6  3 25 30.0000000  0  7G20G 6G16G22G23G17G26
    969813.14644    755698.29644  22466645.5704   22466646.2714
 -20780227.71544 -16192374.77544  20244063.2234   20244062.4544
  -5162846.11844  -4022985.07744  22464605.6384   22464605.4744
  -1072732.16244   -835895.10744  24323713.7184   24323715.2704
 -12173789.96744  -9486061.42244  22774479.2984   22774479.6694
 -17973298.92544 -14005152.36844  21613992.8664   21613993.3194
  -3406400.14044  -2654334.84744  23132416.6154   23132415.9394
 96  4  6  3 26  0.0000000  0  7G20G 6G16G22G23G17G26
   1064342.95444    829357.84844  22484633.9364   22484634.3164
 -20790066.78044 -16200041.57244  20242190.7824   20242189.9234
  -5079933.47744  -3958377.82044  22480383.1144   22480382.7854
  -1141234.47044   -889273.53844  24310677.2624
 -12264131.60444  -9556457.46944  22757287.3364   22757288.3404
 -18018846.08344 -14040643.61944  21605325.5774   21605325.9584
  -3473100.42244  -2706309.04744  23119723.4074   23119724.0424
 96  4  6  3 26 30.0000000  0  7G20G 6G16G22G23G17G26
   1159118.82144    903209.13144  22502669.3764   22502669.2784
 -20799511.96144 -16207401.44944  20240393.5004   20240392.6734
  -4996717.92344  -3893534.52244  22496219.2364   22496218.8404
  -1209365.21544   -942362.39644  24297713.5674
 -12354227.91944  -9626662.35344  22740142.2634   22740143.4674
 -18064182.42644 -14075970.60144  21596698.2894   21596698.8684
  -3539502.01944  -2758050.49544  23107087.7734   23107088.3164
 96  4  6  3 27  0.0000000  0  7G20G 6G16G22G23G17G26
   1254102.80744    977222.60144  22520744.4524   22520744.4614
 -20808574.88844 -16214463.46744  20238668.9054   20238667.9324
  -4913201.32144  -3828456.64544  22512112.4194   22512112.1274
  -1277131.02044   -995166.84944  24284818.5654
 -12444090.51544  -9696685.10744  22723041.7924   22723043.2294
 -18109348.72244 -14111165.08144  21588103.6674   21588103.9884
  -3605623.67944  -2809573.83844  23094505.2224   23094505.2144
 96  4  6  3 27 30.0000000  0  7G20G 6G16G22G23G17G26
   1349290.55744   1051394.84444  22538857.9904   22538858.6024
 -20817256.86044 -16221228.63344  20237016.6664   20237015.8954
  -4829383.75344  -3763144.25344  22528062.1324   22528062.1174
  -1344514.65344  -1047673.56444  24271993.9424
 -12533709.36644  -9766517.93744  22705988.3624   22705990.0524
 -18154358.42744 -14146237.54044  21579538.5904   21579538.7754
  -3671489.67744  -2860897.95544  23081971.3034   23081971.0924
 96  4  6  3 28  0.0000000  0  7G20G 6G16G22G23G17G26
   1444683.70544   1125727.14944  22557010.2134   22557011.2244
 -20825526.49144 -16227672.50044  20235443.0864   20235442.0524
  -4745250.48444  -3697585.86244  22544071.8384   22544071.9174
  -1411489.95944                  24259249.9424
 -12623046.06544  -9836130.89944  22688988.1724   22688988.6084
 -18199174.62944 -14181159.22044  21571010.4014   21571010.3104
  -3737094.50244  -2912018.57044  23069486.7774   23069487.1444
 96  4  6  3 28 30.0000000  0  7G20G 6G16G22G23G17G26
   1540260.00944   1200202.15744  22575198.1744   22575198.9814
 -20833375.11844 -16233788.31744  20233949.4294   20233948.6154
  -4660798.86244  -3631779.39844  22560142.6564   22560142.6274
  -1478054.88344                  24246583.8254
 -12712085.30844  -9905512.08944  22672044.8964   22672044.9954
 -18243807.98244 -14215938.41544  21562516.8634   21562517.2164
  -3802441.16744  -2962938.00144  23057052.3984   23057051.8344
 96  4  6  3 29  0.0000000  0  7G20G 6G16G22G23G17G26
   1636008.69244   1274811.49244  22593418.4714   22593419.4494
 -20840794.32444 -16239569.51444  20232537.6524   20232536.7904
  -4576057.04444  -3565746.80344  22576268.8024   22576268.7334
  -1544221.43144  -1203289.23044  24233993.8734
 -12800827.05944  -9974661.48044  22655157.9554   22655158.5684
 -18288254.14044 -14250571.74244  21554058.8244   21554058.8884
  -3867516.43844  -3013645.96344  23044668.9674   23044668.3654
 96  4  6  3 29 30.0000000  0  7G17G20G 6G16G22G23G26
 -18332483.90444 -14285036.46944  21545642.0714   21545642.4834
   1731942.16944   1349564.81644  22611674.4654   22611675.4274
 -20847776.21644 -16245009.94244  20231209.0464   20231208.3944
  -4491044.91744  -3499503.58444  22592445.8084   22592445.5924
  -1609996.53144  -1254542.51444  24221477.3904
 -12889260.89444 -10043570.93044  22638329.0924   22638329.6134
  -3932296.95144  -3064124.23344  23032341.2504   23032340.9834
 96  4  6  3 30  0.0000000  0  7G17G20G 6G16G22G23G26
 -18376487.92444 -14319325.29244  21537268.4104   21537268.7494
   1828073.83244   1424472.58144  22629968.1524   22629968.1714
 -20854311.43644 -16250102.31544  20229965.4784   20229964.4614
  -4405757.95344  -3433046.20944  22608675.6744   22608675.2994
  -1675391.07744  -1305499.28444  24209032.4344   24209030.9114
 -12977388.18844 -10112241.51144  22621559.2674   22621559.8094
  -3996748.32344  -3114346.04244  23020076.3674   23020075.7854
 96  4  6  3 30 30.0000000  0  7G17G20G 6G16G22G23G26
 -18420247.93444 -14353423.96044  21528941.3164   21528941.7924
   1924457.79744   1499576.94244  22648308.7554   22648310.0004
 -20860376.42744 -16254828.28144  20228811.1024   20228810.1894
  -4320180.31844  -3366362.32744  22624960.3324   22624959.4474
  -1740358.49144  -1356123.16444  24196669.4034   24196669.2594
 -13065192.91544 -10180660.73144  22604849.9054   22604850.4234
  -4060829.55744  -3164279.44144  23007882.4514   23007882.3854
 96  4  6  3 31  0.0000000  0  7G17G20G 6G16G22G23G26
 -18463730.99344 -14387306.82744  21520666.9124   21520667.2394
   2021121.88344   1574899.58744  22666703.3564   22666703.4944
 -20865973.82644 -16259189.88844  20227746.1724   20227745.1294
  -4234295.38644  -3299438.99844  22641304.0074   22641303.9104
  -1804856.41844  -1406381.25744  24184396.4834   24184393.2214
 -13152674.06544 -10248827.81044  22588202.6014   22588204.4074
  -4124531.97344  -3213917.65144  22995759.8744   22995760.3284
 96  4  6  3 31 30.0000000  0  7G20G 6G16G22G23G17G26
   2118037.79744   1650418.45444  22685145.2804   22685146.0104
 -20871157.17344 -16263228.86244  20226759.9284   20226758.9004
  -4148109.27844  -3232281.00344  22657703.9444   22657703.9974
  -1868901.43044  -1456286.38844  24172208.0794   24172208.0234
 -13239879.99544 -10316780.44044  22571607.6894   22571609.5214
 -18506986.31544 -14421012.23744  21512435.3084   21512435.6954
  -4187905.79744  -3263299.82544  22983699.8584   22983700.1144
 96  4  6  3 32  0.0000000  0  7G20G 6G16G22G23G17G26
   2215191.70844   1726122.76244  22703633.1284   22703634.7674
 -20875932.59144 -16266949.96544  20225851.1184   20225850.1604
  -4061623.97944  -3164889.85144  22674161.9504   22674161.7624
  -1932486.46544  -1505833.15844  24160108.7344   24160106.4964
 -13326825.67344 -10384530.26544  22555062.7394   22555063.9794
 -18550034.10744 -14454555.93644  21504243.5614   21504243.6144
  -4250962.02444  -3312434.51844  22971701.3344   22971701.6394
 96  4  6  3 32 30.0000000  0  7G20G 6G16G22G23G17G26
   2312559.21444   1801993.50944  22722161.3284   22722161.8754
 -20880303.73344 -16270356.04944  20225019.1934   20225018.3784
  -3974847.43844  -3097271.76144  22690674.6134   22690674.4764
  -1995616.02344  -1555025.02544  24148094.6174   24148095.2064
 -13413507.47144 -10452074.47944  22538567.3044   22538568.7594
 -18592880.03444 -14487942.34244  21496090.2404   21496090.1534
  -4313716.57444  -3361334.13344  22959759.0294   22959759.6284
 96  4  6  3 33  0.0000000  0  7G20G 6G16G22G23G17G26
   2410110.53544   1878007.50144  22740725.0984   22740725.4024
 -20884275.15844 -16273450.66444  20224263.4714   20224262.3144
  -3887776.61544  -3029424.35444  22707243.5874   22707243.9524
  -2058333.10644  -1603895.43944  24136159.8144   24136160.9274
 -13499930.75544 -10519417.26244  22522121.8304   22522122.8204
 -18635527.81344 -14521174.33644  21487974.7334   21487974.9914
  -4376162.25144  -3409993.07344  22947876.0684   22947876.3644
 96  4  6  3 33 30.0000000  0  7G20G 6G16G22G23G17G26
   2507829.41944   1954152.06944  22759321.3374   22759321.6994
 -20887826.98044 -16276218.31244  20223587.6194   20223586.7164
  -3800426.79844  -2961359.56244  22723866.1464   22723865.6924
  -2120668.25644  -1652468.27944  24124299.3704   24124300.3834
 -13586090.66444 -10586554.81044  22505726.7904   22505727.4854
 -18677998.11144 -14554268.04144  21479892.6984   21479893.0784
  -4438274.42244  -3458392.12444  22936056.4284   22936057.1704
 96  4  6  3 34  0.0000000  0  7G20G 6G16G22G23G17G26
   2605696.98544   2030412.48944  22777944.4064   22777945.1984
 -20890946.92544 -16278649.43044  20222993.7324   20222992.9404
  -3712830.07444  -2893102.36844  22740535.6454   22740535.5514
  -2182639.33944  -1700757.45944  24112506.1224   24112507.4364
 -13671976.38944 -10653478.72244  22489383.6524   22489384.2084
 -18720296.03744 -14587227.44344  21471843.5214   21471843.9434
  -4500050.28144  -3506529.13644  22924301.4034   22924301.3334
 96  4  6  3 34 30.0000000  0  7G20G 6G16G22G23G17G26
   2703716.97244   2106791.68444  22796596.2164   22796597.1214
 -20893637.40344 -16280745.90344  20222481.8184   20222480.8854
  -3624989.26044  -2824654.96744  22757250.8984   22757250.9124
  -2244252.35144  -1748767.56844  24100780.2694   24100781.2624
 -13757581.61844 -10720184.05544  22473093.1164   22473093.5814
 -18762428.72844 -14620058.07344  21463825.9874   21463826.4144
  -4561485.95344  -3554401.05044  22912610.1444   22912608.9484
 96  4  6  3 35  0.0000000  0  7G20G 6G16G22G23G17G26
   2801922.88844   2183315.76644  22815284.3024   22815285.8024
 -20895879.54444 -16282493.02344  20222055.0394   20222054.2264
  -3536889.36844  -2756005.69444  22774015.2274   22774015.3694
  -2305465.63144  -1796466.19844  24089133.4104   24089133.9224
 -13842882.10644 -10786651.92244  22456860.5594   22456860.7354
 -18804384.04744 -14652750.49844  21455841.9024   21455842.4104
  -4622548.30644  -3601982.06644  22900990.4194   22900989.6844
 96  4  6  3 35 30.0000000  0  7G20G 6G16G22G23G17G26
   2900324.80144   2259992.55744  22834009.5404   22834010.9334
 -20897672.23644 -16283889.92344  20221714.0744   20221713.1784
  -3448540.40944  -2687162.36444  22790827.6774   22790828.2944
  -2366248.44244  -1843830.25344  24077566.1314   24077565.9494
 -13927867.14144 -10852873.98644  22440688.2294   22440689.0304
 -18846162.98744 -14685305.50044  21447891.8024   21447892.2784
  -4683255.84144  -3649286.62944  22889437.9354   22889438.6394
 96  4  6  3 36  0.0000000  0  7G20G 6G16G22G23G17G26
   2998931.74144   2336829.12444  22852774.2514   22852775.0074
 -20899034.74344 -16284951.61544  20221454.7654   20221453.8054
  -3359933.84644  -2618118.29144  22807688.5624   22807688.7784
  -2426589.01544  -1890848.88144  24066083.1854   24066079.6534
 -14012536.38244 -10918849.97344  22424575.9884   22424576.7594
 -18887751.80444 -14717712.35244  21439977.7624   21439977.4684
  -4743615.03244  -3696319.73344  22877952.9464   22877951.3484
 96  4  6  3 36 30.0000000  0  7G20G 6G16G22G23G17G26
   3097734.16944   2413818.02444  22871576.3594   22871576.8754
 -20899975.59544 -16285684.74244  20221275.6924   20221274.9204
  -3271056.92844  -2548863.54244  22824601.5714   22824602.0304
  -2486481.22944  -1937518.18844  24054686.7874   24054685.5404
 -14096905.19744 -10984591.86444  22408520.6624   22408522.3424
 -18929144.38544 -14749966.29044  21432101.2214   21432100.7014
  -4803620.12844  -3743076.92744  22866533.2924   22866532.9044
 96  4  6  3 37  0.0000000  0  7G20G 6G16G22G23G17G26
   3196716.19844   2490946.86944  22890411.7994   22890412.8464
 -20900503.57244 -16286096.14944  20221175.2174   20221174.3144
  -3181925.50144  -2479410.47944  22841563.1964   22841563.3634
  -2545925.46844  -1983838.37944  24043373.5584   24043373.4254
 -14180976.98644 -11050102.29144  22392522.2794   22392524.6194
 -18970330.09544 -14782059.01744  21424263.8654   21424263.6054
  -4863286.71644  -3789570.35244  22855179.2134   22855179.6394
 96  4  6  3 37 30.0000000  0  7G20G 6G16G22G23G17G26
   3295858.02344   2568200.22944  22909277.5734   22909278.1264
 -20900616.57244 -16286184.20144  20221153.6604   20221152.9814
  -3092553.04244  -2409769.58844  22858570.0494   22858570.6824
  -2604938.09044  -2029822.21344  24032144.9434   24032143.3244
 -14264754.78844 -11115383.63544  22376579.3664   22376581.2244
 -19011301.11444 -14813984.45744  21416467.5164   21416467.4064
  -4922618.15244  -3835802.61944  22843888.8444   22843889.4584
 96  4  6  3 38  0.0000000  0  7G20G 6G16G22G23G17G26
   3395144.36944   2645566.21444  22928171.5414   22928172.3324
 -20900310.66644 -16285945.83244  20221211.9824   20221211.1014
  -3002948.52644  -2339947.89044  22875621.2604   22875621.1434
  -2663532.30544  -2075480.03644  24020994.1664   24020994.5914
 -14348246.03444 -11180441.68844  22360692.2264   22360693.4804
 -19052054.74044 -14845740.49544  21408712.4514   21408712.2964
  -4981610.97844  -3881771.02544  22832663.0674   22832662.7584
 96  4  6  3 38 30.0000000  0  7G20G 6G16G22G23G17G26
   3494567.05344   2723038.43044  22947090.6884   22947091.5724
 -20899568.80544 -16285367.75944  20221352.9384   20221352.1274
  -2913127.34744  -2269957.35544  22892713.9664   22892713.0924
  -2721706.66244  -2120810.67644  24009923.2204   24009923.7024
 -14431442.54444 -11245270.08144  22344861.0714   22344861.5604
 -19092594.48044 -14877329.87844  21400997.6334   21400997.3984
  -5040277.24544  -3927484.97744  22821499.2034   22821499.3654
 96  4  6  3 39  0.0000000  0  7G20G 6G16G22G23G17G26
   3594159.09744   2800642.59744  22966042.1864   22966043.7524
 -20898368.58444 -16284432.52144  20221581.6234   20221580.7124
  -2823086.60344  -2199795.72344  22909847.7504   22909847.3804
  -2779440.56044  -2165798.11044  23998936.7304   23998937.2314
 -14514310.13244 -11309842.17744  22329092.4284   22329092.4834
 -19132899.48244 -14908736.34944  21393327.8354   21393327.5014
  -5098592.19444  -3972925.18644  22810402.3184   22810402.6504
 96  4  6  3 39 30.0000000  0  7G20G 6G16G22G23G17G26
   3693917.14344   2878376.12344  22985025.9524   22985026.5824
 -20896696.49744 -16283129.59644  20221899.9084   20221898.8604
  -2732810.92744  -2129451.04244  22927026.0864   22927026.1134
  -2836737.78444  -2210445.28744  23988033.9794   23988033.7964
 -14596851.80244 -11374160.29844  22313384.9964   22313385.3484
 -19172984.18444 -14939971.15044  21385699.8174   21385699.7874
  -5156540.03244  -4018079.32744  22799374.4564   22799373.7564
 96  4  6  3 40  0.0000000  0  7G20G 6G16G22G23G17G26
   3793843.96244   2956241.17044  23004041.1464   23004041.6874
 -20894558.41744 -16281463.56344  20222306.5524   20222305.8494
  -2642285.71344  -2058911.89944  22944253.0924   22944253.2914
  -2893595.79244  -2254750.21344  23977214.0664   23977215.6444
 -14679069.20644 -11438225.73544  22297739.2664   22297739.8014
 -19212862.46444 -14971045.10744  21378111.1764   21378111.3474
  -5214118.61144  -4062945.73444  22788418.2664   22788417.6974
 96  4  6  3 40 30.0000000  0  7G20G 6G16G22G23G17G26
   3893936.97444   3034235.71844  23023088.1954   23023088.3114
 -20891960.28744 -16279439.04644  20222801.1344   20222800.1814
  -2551500.75144  -1988170.36644  22961528.6374   22961528.7274
  -2950004.01044  -2298704.65244  23966479.3674   23966481.0624
 -14760952.92944 -11502031.17644  22282157.6324   22282158.1554
 -19252551.38944 -15001971.51444  21370558.7604   21370559.0264
  -5271313.37144  -4107513.05344  22777534.4714   22777533.8594
 96  4  6  3 41  0.0000000  0  7G20G 6G16G22G23G17G26
   3994186.31544   3112352.07944  23042165.1504   23042165.6754
 -20888906.59644 -16277059.55844  20223382.1254   20223381.1194
  -2460442.84144  -1917216.15144  22978856.3774   22978855.7494
  -3005958.62944  -2342305.66344  23955832.0334   23955833.0794
 -14842505.95244 -11565578.94844  22266638.3454   22266638.9604
 -19292045.28044 -15032745.95044  21363043.1744   21363043.1434
  -5328103.65344  -4151765.21044  22766727.8774   22766727.0914
 96  4  6  3 41 30.0000000  0  7G20G 6G16G22G23G17G26
   4094568.15944   3190571.68444  23061267.1374   23061267.9044
 -20885415.21944 -16274339.00844  20224046.6034   20224045.7934
  -2369118.45844  -1846054.28344  22996235.0634   22996234.8034
  -3061472.89644  -2385563.50444  23945267.3914   23945269.1954
 -14923740.74244 -11628878.73744  22251179.7814   22251180.5424
 -19331362.05144 -15063382.37144  21355561.5214   21355561.4884
  -5384502.66644  -4195712.48444  22755995.0034   22755994.8144
 96  4  6  3 42  0.0000000  0  7G20G 6G16G22G23G17G26
   4195081.58244   3268893.80944  23080394.5454   23080395.1874
 -20881499.94944 -16271288.15044  20224791.5404   20224790.6484
  -2277535.18244  -1774690.68844  23013662.7834   23013662.5264
  -3116538.52144  -2428471.74844  23934788.6184   23934789.5944
 -15004648.56244 -11691923.70544  22235783.0894   22235783.6514
 -19370495.81244 -15093876.18544  21348114.4574   21348114.6094
  -5440509.39644  -4239354.07544  22745337.4864   22745337.0494
 96  4  6  3 42 30.0000000  0  7G20G 6G16G22G23G17G26
   4295727.38544   3347319.07644  23099546.4194   23099546.6034
 -20877154.93044 -16267902.41944  20225618.3914   20225617.5994
  -2185692.57844  -1703125.01744  23031138.5754   23031138.8054
  -3171140.82444  -2471018.98444  23924400.0134   23924400.0564
 -15085215.15044 -11754702.81844  22220451.4444   22220452.9464
 -19409418.18744 -15124205.28844  21340707.7304   21340708.0574
  -5496116.96244  -4282684.62344  22734755.9354   22734755.5424
 96  4  6  3 43  0.0000000  0  7G20G 6G16G22G23G17G26
   4396479.16044   3425826.93144  23118718.8714   23118719.1764
 -20872402.09144 -16264198.90944  20226522.8764   20226521.8924
  -2093628.52044  -1631386.80544  23048657.9694   23048658.3264
  -3225316.59244  -2513233.87744  23914089.9724   23914090.7074
 -15165476.42144 -11817244.04744  22205177.7284   22205179.2834
 -19448138.33744 -15154376.82244  21333339.6964   21333339.5934
  -5551362.71044  -4325733.25044  22724243.2984   22724242.6714
 96  4  6  3 43 30.0000000  0  7G20G 6G16G22G23G17G26
   4497348.70044   3504426.56044  23137913.7674   23137915.0444
 -20867229.96944 -16260168.69044  20227507.2334   20227506.3864
  -2001346.17444  -1559478.46744  23066219.3904   23066219.6534
  -3279055.89044  -2555108.61444  23903863.8844   23903862.9044
 -15245425.62544 -11879542.10044  22189964.6274   22189965.2954
 -19486667.83244 -15184399.79344  21326007.8844   21326007.7964
  -5606245.73844  -4368499.23544  22713799.0584   22713798.6724
 96  4  6  3 44  0.0000000  0  7G20G 6G16G22G23G17G26
   4598339.75944   3583120.87144  23157131.4854   23157132.5704
 -20861616.94944 -16255794.90544  20228575.2444   20228574.2834
  -1908843.30544  -1487398.30244  23083822.0214   23083822.7274
  -3332345.42744  -2596632.93044  23893723.7504   23893723.1274
 -15325063.90744 -11941597.85844  22174810.6474   22174811.1284
 -19524987.30044 -15214259.10144  21318715.6704   21318715.7494
  -5660749.21844  -4410969.47344  22703427.4074   22703427.2904
 96  4  6  3 44 30.0000000  0  7G20G 6G16G22G23G17G26
   4699446.03844   3661904.97044  23176371.0144   23176373.4024
 -20855555.69944 -16251071.85744  20229728.6974   20229727.6844
  -1816153.21544  -1415172.25644  23101460.2264   23101460.3534
  -3385190.84044  -2637811.14844  23883666.7604   23883666.3964
 -15404406.98944 -12003423.60144  22159712.0154   22159711.7154
 -19563105.33144 -15243961.44144  21311461.9424   21311462.0614
  -5714876.98444  -4453146.93544  22693126.3824   22693125.8604
 96  4  6  3 45  0.0000000  0  7G20G 6G16G22G23G17G26
   4800677.14544   3740786.32544  23195635.1734   23195636.3824
 -20849020.71944 -16245979.67544  20230972.1084   20230971.4774
  -1723290.68844  -1342811.85544  23119131.9374   23119131.5594
  -3437580.80744  -2678634.46544  23873697.6564   23873696.6374
 -15483448.82744 -12065014.59244  22144670.7484   22144670.8944
 -19601044.85844 -15273524.69944  21304242.4964   21304242.5594
  -5768604.26844  -4495012.34444  22682902.8414   22682902.4394
 96  4  6  3 45 30.0000000  0  7G20G 6G16G22G23G17G26
   4902022.52944   3819756.74244  23214920.1214   23214921.1084
 -20842010.64044 -16240517.27544  20232306.1244   20232305.1054
  -1630253.40144  -1270315.26544  23136836.0714   23136836.8784
  -3489497.64744  -2719089.11144  23863818.3454   23863819.8084
 -15562174.94944 -12126359.57444  22129689.4484   22129689.7654
 -19638808.84644 -15302951.16544  21297056.0454   21297056.3204
  -5821917.76744  -4536555.32944  22672758.2214   22672757.3024
 96  4  6  3 46  0.0000000  0  7G20G 6G16G22G23G17G26
   5003488.25644   3898820.94444  23234228.8744   23234230.2484
 -20834518.05744 -16234678.89944  20233731.7674   20233731.1974
  -1537038.47444  -1197680.25844  23154574.5874   23154575.1414
  -3540926.22444  -2759163.29744  23854032.2034   23854031.8404
 -15640563.63244 -12187441.59344  22114772.6404   22114773.0984
 -19676377.43844 -15332225.38244  21289907.1734   21289907.4314
  -5874808.19744  -4577768.65044  22662693.0554   22662693.3904
 96  4  6  3 46 30.0000000  0  7G20G 6G16G22G23G17G26
   5105071.73144   3977976.89644  23253560.5304   23253560.7564
 -20826538.43744 -16228461.01344  20235250.3604   20235249.4654
  -1443638.86544  -1124901.34144  23172347.5484   23172347.7544
  -3591859.21744  -2798851.32344  23844339.5294   23844340.2144
 -15718594.96144 -12248245.14844  22099923.9754   22099924.1234
 -19713762.66644 -15361356.71944  21282792.8824   21282792.8514
  -5927283.32644  -4618658.34444  22652707.6944   22652707.3574
 96  4  6  3 47  0.0000000  0  8G20G 6G16G21G22G23G17G26
   5206746.18344   4057203.73444  23272908.3714   23272908.0924
 -20818093.83744 -16221880.81144  20236857.3844   20236856.5664
  -1350051.52244  -1051976.14144  23190157.0924   23190156.8314
        -0.67054                  25606276.1294
  -3642325.55644  -2838175.75744  23834736.8644   23834734.2084
 -15796283.50944 -12308781.60244  22085139.8864   22085140.2774
 -19750970.80144 -15390350.05744  21275712.3504   21275711.9694
  -5979373.86244  -4659248.36144  22642795.2204   22642794.5784
 96  4  6  3 47 30.0000000  0  8G20G 6G16G21G22G23G17G26
   5308563.95244   4136542.25044  23292283.1134   23292282.8254
 -20809149.18944 -16214910.96544  20238559.5784   20238558.5624
  -1256204.39744   -978848.49544  23208015.5784   23208015.1944
   -100225.96944                  25587203.9814
  -3692286.11744  -2877106.08244  23825229.7864   23825229.2454
 -15873584.80744 -12369016.30544  22070429.6504   22070429.9784
 -19787928.46444 -15419148.22144  21268679.6804   21268679.6554
  -6031049.12944  -4699514.78144  22632961.2154   22632961.4764
 96  4  6  3 48  0.0000000  0  8G20G 6G16G21G22G23G17G26
   5410488.45644   4215963.92744  23311678.9694   23311679.9134
 -20799751.80844 -16207588.33544  20240347.6704   20240346.7154
  -1162155.06744   -905563.28544  23225912.0144   23225911.5804
   -200435.75344                  25568133.8334
  -3741802.56644  -2915690.33744  23815806.7714   23815807.1204
 -15950558.54244 -12428995.78144  22055782.0284   22055782.2144
 -19824691.72444 -15447794.89944  21261683.9244   21261683.6204
  -6082361.88044  -4739498.72744  22623196.8044   22623196.7894
 96  4  6  3 48 30.0000000  0  7G20G 6G16G22G23G17G26
   5512535.98544   4295481.47044  23331097.6324   23331099.0174
 -20789890.37544 -16199904.11144  20242224.2094   20242223.4154
  -1067891.79044   -832111.39944  23243850.2684   23243850.7594
  -3790867.47244  -2953922.70944  23806469.3654   23806469.7984
 -16027201.02844 -12488717.14344  22041197.5274   22041197.9454
 -19861237.90644 -15476272.41844  21254729.3274   21254729.1384
  -6133292.68544  -4779185.04344  22613505.7744   22613505.5314
 96  4  6  3 49  0.0000000  0  7G20G 6G16G22G23G17G26
   5614715.57444   4375101.91944  23350541.2494   23350541.7644
 -20779572.44744 -16191864.17044  20244187.9014   20244186.8084
   -973420.54344   -758497.44244  23261828.1884   23261827.5774
  -3839472.05244  -2991796.42044  23797221.7824   23797221.2734
 -16103518.95144 -12548185.60244  22026674.3144   22026674.7664
 -19897558.93844 -15504574.50744  21247817.4634   21247817.1624
  -6183830.51544  -4818565.15044  22603887.9264   22603886.9424
 96  4  6  3 49 30.0000000  0  7G20G 6G16G22G23G17G26
   5717047.02444   4454840.69644  23370015.2304   23370017.1344
 -20768784.46344 -16183457.95344  20246240.5064   20246239.5414
   -878733.79644   -684715.54444  23279846.0154   23279845.9364
  -3887584.94244  -3029286.96744  23788065.4564   23788065.8814
 -16179491.26244 -12607384.75944  22012217.7984   22012218.3874
 -19933666.65944 -15532710.38244  21240946.3444   21240946.0104
  -6233939.09344  -4857610.78344  22594352.9934   22594352.5944
 96  4  6  3 50  0.0000000  0  8G20G 6G16G21G22G23G17G26
   5819482.68244   4534660.67644  23389507.6074   23389508.4184
 -20757552.80044 -16174706.01244  20248377.9044   20248377.0664
   -783880.66444   -610804.01344  23297895.7744   23297894.6114
        -0.39054         0.82654  25491949.4804
  -3935227.60444  -3066411.10544  23778998.6654   23778998.0204
 -16255139.07544 -12666331.06144  21997821.9304   21997822.3724
 -19969602.46244 -15560712.29544  21234107.9594   21234107.6904
  -6283628.85444  -4896330.06444  22584896.9324   22584896.9624
 96  4  6  3 50 30.0000000  0  8G20G 6G16G21G22G23G17G26
   5921992.15844   4614538.18944  23409014.5414   23409016.6774
 -20745885.89444 -16165614.92444  20250598.0714   20250597.2684
   -688866.94144   -536767.32444  23315976.2324   23315976.8344
    -99932.66844    -77868.40944  25472934.4894   25472931.5774
  -3982406.77044  -3103174.08144  23770020.4024   23770019.2084
 -16330466.16544 -12725027.44644  21983487.7894   21983487.9824
 -20005375.49944 -15588587.37244  21227300.6024   21227300.4314
  -6332904.16544  -4934726.39944  22575520.2214   22575519.4704
 96  4  6  3 51  0.0000000  0  8G20G 6G16G21G22G23G17G26
   6024579.98244   4694476.74444  23428536.5394   23428536.6774
 -20733754.13344 -16156161.61644  20252906.8524   20252906.0534
   -593664.33344   -462583.48844  23334093.1604   23334092.8244
   -199790.24244   -155679.44144  25453932.2624   25453933.4634
  -4029107.82044  -3139564.52044  23761133.3704   23761132.1884
 -16405441.69344 -12783449.87844  21969220.0134   21969220.7964
 -20040981.10744 -15616331.98344  21220525.1704   21220524.9674
  -6381733.95944  -4972775.57844  22566227.6704   22566227.5534
 96  4  6  3 51 30.0000000  0  8G20G 6G16G21G22G23G17G26
   6127237.60144   4774469.68244  23448071.5484   23448071.9434
 -20721145.95444 -16146337.06844  20255305.8764   20255305.0674
   -498263.48244   -388245.17944  23352246.2064   23352247.1544
   -299564.31844   -233425.46744  25434945.3454   25434942.1494
  -4075341.89044  -3175591.06944  23752334.0404   23752335.3364
 -16480056.91144 -12841591.55944  21955021.0504   21955021.5854
 -20076403.39344 -15643933.74644  21213784.6264   21213784.7244
  -6430101.03544  -5010464.17944  22557024.6274   22557023.9814
 96  4  6  3 52  0.0000000  0  8G20G 6G16G21G22G23G17G26
   6229956.49044   4854510.36344  23467618.6354   23467618.7824
 -20708046.87544 -16136130.00244  20257798.7694   20257797.6694
   -402656.71844   -313746.38944  23370439.8434   23370440.5104
   -399239.05144   -311094.05344  25415977.0044   25415968.8134
  -4121102.10444  -3211248.36444  23743626.0934   23743628.5624
 -16554306.20444 -12899448.11644  21940891.8864   21940892.7054
 -20111602.15644 -15671361.34244  21207086.3404   21207086.5744
  -6478000.13544  -5047788.11944  22547909.9214   22547908.7264
 96  4  6  3 52 30.0000000  0  8G20G 6G16G21G22G23G17G26
   6332720.99844   4934586.60244  23487174.1484   23487174.4644
 -20694467.99144 -16125549.06144  20260382.6344   20260381.8824
   -306849.80644   -239091.64444  23388670.9944   23388670.5214
   -498825.70144   -388694.02744  25397026.5454
  -4166403.06044  -3246547.78344  23735005.8604   23735006.5084
 -16628205.86244 -12957032.22844  21926829.4564   21926830.0654
 -20146589.59544 -15698624.28944  21200428.3194   21200428.4804
  -6525456.49044  -5084767.06944  22538878.5404   22538877.7444
 96  4  6  3 53  0.0000000  0  8G20G 6G16G21G22G23G17G26
   6435530.43444   5014697.84544  23506738.2804   23506738.6924
 -20680421.91944 -16114604.07944  20263055.4534   20263054.7154
   -210853.52844   -164289.34744  23406938.9374   23406938.5794
   -598322.37844   -466223.90844  25378089.6694
  -4211250.94844  -3281494.18944  23726471.9154   23726472.6934
 -16701764.06344 -13014350.26544  21912831.9144   21912832.2284
 -20181371.70844 -15725727.22144  21193809.4944   21193809.5424
  -6572479.91444  -5121408.67644  22529930.0984   22529929.9894
 96  4  6  3 53 30.0000000  0  8G20G 6G16G21G22G23G17G26
   6538393.38644   5094850.80444  23526312.2424   23526313.2084
 -20665913.83144 -16103299.08344  20265816.2054   20265815.5554
   -114681.58344    -89350.19244  23425239.2134   23425238.1214
   -697730.09244                  25359171.0704
  -4255631.38444  -3316076.34044  23718027.2494   23718028.1594
 -16774988.21044 -13071408.01844  21898897.8504   21898898.2524
 -20215948.07644 -15752669.83044  21187229.9274   21187229.7694
  -6619076.62844  -5157717.77744  22521063.2934   22521062.6984
 96  4  6  3 54  0.0000000  0  8G20G 6G16G21G22G23G17G26
   6641324.55244   5175056.89144  23545898.8674   23545899.2704
 -20650925.95444 -16091620.21944  20268668.3684   20268667.5874
    -18344.52244    -14282.34144  23443572.6554   23443571.1304
   -797058.05244                  25340267.7424
  -4299530.21844  -3350283.20344  23709673.4244   23709673.5044
 -16847865.84444 -13128195.73944  21885029.6654   21885029.7804
 -20250328.45944 -15779459.71744  21180687.5904   21180687.4764
  -6665245.40244  -5193693.41344  22512277.1864   22512277.1824
 96  4  6  3 54 30.0000000  0  8G20G 6G16G21G22G23G17G26
   6744347.21344   5255334.29544  23565504.4184   23565505.6774
 -20635453.82644 -16079564.01844  20271612.5984   20271611.8434
     78157.90044     60914.35644  23461935.1974   23461935.3144
   -896306.76044                  25321381.1254
  -4342945.50244  -3384113.29744  23701412.6314   23701412.2134
 -16920384.66244 -13184703.85344  21871230.1404   21871230.4434
 -20284526.83744 -15806107.78544  21174180.0724   21174179.7414
  -6710970.04044  -5229322.96844  22503576.8914   22503576.4394
 96  4  6  3 55  0.0000000  0  8G20G 6G16G21G22G23G17G26
   6847487.71144   5335703.50344  23585130.4644   23585132.0464
 -20619492.59244 -16067126.70444  20274649.9344   20274649.1454
    174826.10844    136240.23344  23480330.5594   23480332.8784
   -995484.71244                  25302508.7814
  -4385859.98044  -3417553.16144  23693246.3024   23693246.0104
 -16992532.93644 -13240923.24744  21857500.6864   21857500.8274
 -20318532.13444 -15832605.40244  21167709.0074   21167709.2674
  -6756216.97744  -5264580.28744  22494966.1854   22494965.6674
 96  4  6  3 55 30.0000000  0  8G20G 6G16G21G22G23G17G26
   6950728.65244   5416150.98444  23604776.0734   23604777.3824
 -20603051.56244 -16054315.52444  20277778.6884   20277777.6584
    271643.74244    211682.54144  23498754.1244   23498754.6504
  -1094601.48944   -852934.55444  25283653.2654   25283652.3244
  -4428270.57744  -3450600.40044  23685175.1944   23685174.5884
 -17064319.39144 -13296860.71344  21843840.0584   21843840.1244
 -20352349.37444 -15858956.48244  21161273.6914   21161273.6944
  -6800981.34344  -5299461.57844  22486447.9884   22486447.7134
 96  4  6  3 56  0.0000000  0  8G20G 6G16G21G22G23G17G26
   7054029.46344   5496645.11244  23624434.5724   23624436.6004
 -20586162.59944 -16041155.30544  20280992.5294   20280991.6934
    368581.46444    287218.42344  23517201.3294   23517202.2154
  -1193657.81944   -930121.23544  25264805.2504   25264805.4614
  -4470210.24144  -3483280.70444  23677194.5234   23677194.0314
 -17135766.65644 -13352533.88244  21830244.2984   21830244.4764
 -20386000.59044 -15885178.19644  21154870.0084   21154869.9714
  -6845284.19744  -5333983.25144  22478016.8044   22478016.5724
 96  4  6  3 56 30.0000000  0  8G20G 6G16G21G22G23G17G26
   7157376.22644   5577175.05444  23644099.9344   23644102.0654
 -20568854.86644 -16027668.77144  20284286.0454   20284285.2994
    465646.24544    362853.32644  23535672.3024   23535673.2524
  -1292647.78444  -1007256.16644  25245968.5494   25245968.9154
  -4511674.15744  -3515590.26044  23669303.2794   23669305.0314
 -17206878.85944 -13407945.96144  21816711.5444   21816711.7084
 -20419490.26244 -15911274.02844  21148497.3204   21148497.2834
  -6889125.47444  -5368145.26444  22469674.6244   22469674.2064
 96  4  6  3 57  0.0000000  0  8G20G 6G16G21G22G23G17G26
   7260767.43044   5657739.63444  23663775.0364   23663775.6794
 -20551120.69344 -16013849.94944  20287660.7214   20287660.1874
    562854.54044    438600.05244  23554171.4244   23554171.6434
  -1391547.39344  -1084320.75344  25227148.3194   25227147.1814
  -4552641.44844  -3547512.78244  23661508.5874   23661508.7034
 -17277636.21144 -13463081.51444  21803247.0234   21803247.4044
 -20452793.11144 -15937224.28444  21142159.8074   21142159.8194
  -6932504.57244  -5401947.11544  22461420.2694   22461419.8334
 96  4  6  3 57 30.0000000  0  8G20G 6G16G21G22G23G17G26
   7364193.89244   5738331.68344  23683456.7894   23683457.8894
 -20532931.10344 -15999676.25744  20291122.0134   20291121.3174
    660218.50644    514468.09244  23572699.2274   23572699.3074
  -1490313.90144  -1161281.57744  25208354.0714   25208353.7624
  -4593107.63444  -3579044.87544  23653807.9774   23653808.3554
 -17348013.45344 -13517920.87144  21789854.7944   21789855.0984
 -20485889.05344 -15963013.30144  21135861.8684   21135862.0354
  -6975426.98444  -5435393.13044  22453251.7604   22453250.7044
 96  4  6  3 58  0.0000000  0  8G20G 6G16G21G22G23G17G26
   7467647.35144   5818944.75544  23703143.1604   23703144.1374
 -20514288.51844 -15985149.58344  20294669.6534   20294669.0394
    757727.10044    590448.80144  23591254.0444   23591255.1624
  -1588974.44944  -1238159.88544  25189579.4324   25189581.5904
  -4633090.63244  -3610200.41844  23646200.4204   23646199.9974
 -17418015.72144 -13572468.04944  21776533.5074   21776533.5764
 -20518797.48144 -15988656.21844  21129599.8794   21129599.5004
  -7017913.14744  -5468499.22244  22445167.1844   22445166.6434
 96  4  6  3 58 30.0000000  0  8G20G 6G16G21G22G23G17G26
   7571129.35144   5899580.08044  23722834.7814   23722835.5414
 -20495189.38444 -15970267.14544  20298304.2134   20298303.3254
    855381.85244    666543.42444  23609836.4184   23609836.0584
  -1687552.93044  -1314974.23144  25170819.6474   25170821.2634
  -4672583.49044  -3640974.06844  23638684.6894   23638683.8934
 -17487640.57844 -13626721.15144  21763284.3004   21763284.6404
 -20551508.25044 -16014145.12844  21123375.2584   21123375.1034
  -7059967.27044  -5501268.65744  22437164.2634   22437163.8154
 96  4  6  3 59  0.0000000  0  8G20G 6G16G21G22G23G17G26
   7674608.17644   5980212.92244  23742526.3774   23742527.1404
 -20475631.34044 -15955027.12244  20302025.9904   20302025.3274
    953141.32044    742719.62944  23628440.5994   23628440.9834
  -1786079.93544  -1391748.48244  25152068.7514   25152070.5124
  -4711617.09644  -3671389.86344  23631256.2424   23631255.6334
 -17556916.70444 -13680702.50644  21750101.2524   21750101.5614
 -20584040.97144 -16039495.29044  21117184.4764   21117184.0134
  -7101615.32744  -5533721.66744  22429238.6224   22429238.6684
 96  4  6  3 59 30.0000000  0  8G20G 6G16G21G22G23G17G26
   7778131.21944   6060880.21444  23762226.4764   23762228.6584
 -20455549.25644 -15939378.76144  20305847.4304   20305846.6824
   1051045.55044    819008.64244  23647069.7534   23647070.5134
  -1884518.56344                  25133331.7384
  -4750144.03744  -3701410.85844  23623924.7594   23623924.6884
 -17625811.47444 -13734386.71044  21736990.7264   21736991.2394
 -20616355.78444 -16064675.64544  21111035.2184   21111034.8084
  -7142794.96744  -5565809.66644  22421402.8754   22421402.5444
 96  4  6  4  0  0.0000000  0  7G20G 6G16G22G23G17G26
   7881709.10844   6141590.26344  23781936.4114   23781937.0884
 -20434946.17544 -15923324.42244  20309768.1934   20309767.3534
   1149097.84444    895413.03544  23665729.7084   23665730.0444
  -4788156.77444  -3731031.16344  23616690.6814   23616691.3844
 -17694336.85044 -13787783.08644  21723950.7424   21723951.5424
 -20648457.06044 -16089689.60744  21104926.3004   21104925.8384
  -7183492.23544  -5597521.76844  22413658.3194   22413658.2454
 96  4  6  4  0 30.0000000  0  7G20G 6G16G22G23G17G26
   7985337.30144   6222339.51844  23801656.0364   23801654.5424
 -20413807.13244 -15906852.45044  20313790.7104   20313789.8814
   1247297.90944    971932.56544  23684415.9624   23684416.0864
  -4825655.06044  -3760250.61244  23609554.8404   23609555.7754
 -17762493.23844 -13840891.93044  21710981.1534   21710981.7274
 -20680330.87144 -16114526.32044  21098861.1714   21098860.5704
  -7223703.85444  -5628855.47144  22406006.6484   22406006.4824
 96  4  6  4  1  0.0000000  0  8G20G 6G16G21G22G23G17G26
   8088995.44644   6303112.10744  23821381.5704   23821382.7434
 -20392132.41244 -15889963.06244  20317915.2504   20317914.3464
   1345625.18644   1048551.22844  23703126.3054   23703128.0464
        -0.63854                  25077237.0474
  -4862660.75344  -3789086.20244  23602513.4994   23602513.8514
 -17830296.16944 -13893725.34544  21698078.7864   21698079.1654
 -20712013.24844 -16139213.86544  21092831.9694   21092831.5054
  -7263441.60844  -5659819.90044  22398444.2024   22398443.8394
 96  4  6  4  1 30.0000000  0  8G20G 6G16G21G22G23G17G26
   8192688.75944   6383912.10744  23841113.9244   23841115.5014
 -20369935.65544 -15872666.89644  20322139.2424   20322138.3934
   1444089.16544   1125276.40844  23721863.3494   23721863.2664
    -98053.50744    -76405.11444  25058581.0254
  -4899178.37044  -3817541.46244  23595564.8204   23595564.2574
 -17897745.36044 -13946283.12244  21685243.6214   21685244.0554
 -20743517.64844 -16163762.73844  21086836.8964   21086836.2514
  -7302709.10844  -5690417.93344  22390972.1734   22390971.5984
 96  4  6  4  2  0.0000000  0  8G20G 6G16G21G22G23G17G26
   8296423.56144   6464744.39944  23860852.4794   23860854.0584
 -20347226.90144 -15854971.77244  20326460.4714   20326459.8704
   1542701.36044   1202117.09444  23740628.8494   23740628.6704
   -195978.52444   -152710.28944  25039947.6114   25039941.6104
  -4935202.82144  -3845612.45544  23588709.0754   23588709.6524
 -17964815.08444 -13998545.21844  21672481.0314   21672480.6934
 -20774843.71844 -16188172.65944  21080875.7194   21080875.1654
  -7341496.22644  -5720641.63744  22383590.8914   22383590.4834
 96  4  6  4  2 30.0000000  0  8G20G 6G16G21G22G23G17G26
   8400189.22944   6545600.77644  23880599.8804   23880602.8134
 -20324025.50844 -15836892.76744  20330875.7214   20330875.0344
   1641459.70044   1279071.62644  23759423.0594   23759422.3804
   -293780.72844   -228919.75344  25021337.3374   25021333.0704
  -4970734.34244  -3873299.37044  23581947.4894   23581947.2994
 -18031500.91744 -14050508.17644  21659791.2254   21659791.3374
 -20805998.08944 -16212448.78544  21074947.3134   21074946.9734
  -7379802.54244  -5750490.69244  22376301.7734   22376300.4354
 96  4  6  4  3  0.0000000  0  8G20G 6G16G21G22G23G17G26
   8503998.45344   6626491.07044  23900354.0404   23900355.9924
 -20300358.79644 -15818451.18344  20335379.2804   20335378.5724
   1740369.69844   1356144.34344  23778245.2074   23778245.5374
   -391454.02444   -305028.80144  25002750.8214   25002748.3844
  -5005763.70844  -3900594.99044  23575282.0344   23575280.2604
 -18097799.83244 -14102169.64644  21647175.1264   21647175.0244
 -20836986.73844 -16236595.77344  21069050.0714   21069049.6984
  -7417609.96444  -5779950.98644  22369107.0274   22369106.7084
 96  4  6  4  3 30.0000000  0  8G20G 6G16G21G22G23G17G26
   8607854.11044   6707417.55644  23920117.3454   23920118.8214
 -20276252.49644 -15799667.06744  20339966.5084   20339965.5874
   1839431.67944   1433335.51244  23797094.9124   23797094.8114
   -489001.76944   -381040.00244  24984187.7634   24984184.4294
  -5040275.87944  -3927487.59844  23568713.7594   23568714.3274
 -18163713.12244 -14153530.62544  21634632.0234   21634631.7564
 -20867788.42744 -16260597.07744  21063188.9514   21063188.5224
  -7454905.45544  -5809012.36544  22362009.9224   22362008.8064
 96  4  6  4  4  0.0000000  0  8G20G 6G16G21G22G23G17G26
   8711717.78544   6788350.29544  23939882.3994   23939882.7704
 -20251732.53144 -15780560.61344  20344632.4284   20344631.5404
   1938611.93144   1510618.80144  23815968.2484   23815966.8734
   -586460.29944   -456981.67644  24965640.7624   24965642.1074
  -5074286.98344  -3953989.75044  23562243.5274   23562241.9104
 -18229266.57844 -14204611.21744  21622157.6654   21622157.7294
 -20898401.91744 -16284451.73544  21057363.2154   21057362.8274
  -7491702.24344  -5837685.14144  22355007.4154   22355007.0764
 96  4  6  4  4 30.0000000  0  8G20G 6G16G21G22G23G17G26
   8815589.67344   6869289.43244  23959648.3674   23959648.5494
 -20226786.03144 -15761121.79844  20349379.7144   20349378.9594
   2037909.70144   1587993.71144  23834864.1994   23834863.5744
   -683819.50844   -532845.94844  24947112.7884   24947115.0404
  -5107787.82044  -3980094.31044  23555868.3154   23555867.8184
 -18294455.35744 -14255407.65044  21609752.5444   21609752.4864
 -20928802.35644 -16308140.37644  21051578.3054   21051577.8534
  -7528003.59644  -5865971.87444  22348099.6174   22348098.6364
 96  4  6  4  5  0.0000000  0  8G20G 6G16G21G22G23G17G26
   8919467.84744   6950233.45044  23979415.4264   23979417.6314
 -20201386.26444 -15741329.78544  20354213.1154   20354212.4694
   2137324.04444   1665459.43044  23853782.2964   23853783.4504
   -781062.18244   -608619.41944  24928606.9664   24928612.7134
  -5140773.03144  -4005797.05944  23549591.8384   23549591.3504
 -18359267.72844 -14305910.77044  21597418.7624   21597419.1024
 -20958979.46344 -16331654.99944  21045835.8284   21045835.2114
  -7563794.85544  -5893861.12444  22341288.8294   22341288.2474
 96  4  6  4  5 30.0000000  0  8G20G 6G16G21G22G23G17G26
   9023312.97144   7031151.73944  23999177.3334   23999177.2324
 -20175534.11144 -15721185.25844  20359132.6604   20359131.9464
   2236829.93444   1742996.48244  23872717.0074   23872717.6474
   -878213.97644   -684322.06044  24910118.8014   24910123.4894
  -5173267.21844  -4031117.19944  23543407.8414   23543408.2574
 -18423715.71444 -14356129.95844  21585154.8944   21585154.9814
 -20988950.07544 -16355008.70744  21040132.6844   21040132.3004
  -7599105.21444  -5921375.65144  22334569.6114   22334569.1724
 96  4  6  4  6  0.0000000  0  8G20G 6G16G21G22G23G17G26
   9127111.29344   7112033.53644  24018928.7764   24018929.5084
 -20149213.22744 -15700675.49044  20364141.4564   20364140.7104
   2336422.55244   1820601.09744  23891669.4834   23891669.6674
   -975280.18544   -759958.00044  24891645.3824   24891650.8104
  -5205288.68544  -4056068.99244  23537313.6134   23537314.1924
 -18487796.26144 -14406062.82144  21572960.6484   21572961.1054
 -21018733.98244 -16378216.92344  21034464.6734   21034464.3314
  -7633941.52144  -5948520.80644  22327940.2594   22327940.3374
 96  4  6  4  6 30.0000000  0  8G20G 6G16G21G22G23G17G26
   9230883.76244   7192895.19044  24038675.6794   24038677.1564
 -20122391.87044 -15679775.73144  20369245.2994   20369244.6044
   2436126.13144   1898292.17644  23910642.6304   23910643.0964
  -1072228.20544   -835501.88744  24873195.5984   24873204.0374
  -5236817.08844  -4080636.57044  23531313.3024   23531314.9164
 -18551482.24144 -14455688.23144  21560841.4394   21560841.9494
 -21048334.38944 -16401282.15944  21028831.8404   21028831.8514
  -7668289.73744  -5975285.60244  22321404.7524   22321404.0744
 96  4  6  4  7  0.0000000  0  8G20G 6G16G21G22G23G17G26
   9334636.31944   7273741.34344  24058418.7684   24058421.8584
 -20095051.59844 -15658471.62844  20374447.9364   20374447.2394
   2535956.26944   1976081.89244  23929639.7394   23929639.8144
  -1169046.17544   -910944.36744  24854773.6594   24854777.2684
  -5267834.54844  -4104806.02044  23525411.4124   23525411.9334
 -18614776.06344 -14505008.05744  21548797.1314   21548797.2484
 -21077758.61244 -16424210.10744  21023232.1784   21023232.1324
  -7702140.47644  -6001662.75144  22314962.9104   22314962.1764
 96  4  6  4  7 30.0000000  0  8G20G 6G16G21G22G23G17G26
   9438362.72644   7354567.11544  24078157.3654   24078158.5504
 -20067203.48444 -15636771.80844  20379747.3844   20379746.7634
   2635903.12644   2053962.58244  23948658.0994   23948656.7024
  -1265754.99244   -986301.84144  24836371.7104   24836373.2324
  -5298347.40744  -4128582.28844  23519605.1264   23519602.9974
 -18677687.66844 -14554030.06244  21536825.5754   21536825.7294
 -21107010.00744 -16447003.38544  21017666.0744   21017665.7554
  -7735517.12244  -6027670.49044  22308610.9634   22308610.4944
 96  4  6  4  8  0.0000000  0  8G20G 6G16G21G22G23G17G26
   9542074.07344   7435381.17044  24097892.0804   24097895.4394
 -20038839.64844 -15614670.13244  20385144.7274   20385144.1164
   2735953.23044   2131923.71444  23967696.9194   23967698.5414
  -1362352.02344  -1061572.16144  24817990.9624   24817990.8024
  -5328354.60044  -4151964.55044  23513894.9034   23513891.9504
 -18740220.97744 -14602757.28944  21524926.0034   21524926.2444
 -21136093.70944 -16469665.99244  21012132.0474   21012131.8884
  -7768415.36244  -6053305.44144  22302351.1524   22302350.2674
 96  4  6  4  8 30.0000000  0  8G20G 6G16G21G22G23G17G26
   9645788.02344   7516197.19944  24117629.3594   24117628.9324
 -20009955.84544 -15592163.28844  20390641.2064   20390640.5894
   2836111.03044   2209968.73444  23986757.3034   23986756.8634
  -1458817.13144  -1136739.78344  24799635.0204   24799631.1574
  -5357846.84244  -4174945.58944  23508282.7514   23508280.3514
 -18802371.00544 -14651185.86044  21513099.1314   21513099.2154
 -21164988.41944 -16492181.33444  21006633.2784   21006632.8774
  -7800827.79444  -6078561.82844  22296183.1434   22296182.4524
 96  4  6  4  9  0.0000000  0  8G20G 6G16G21G22G23G17G26
   9749518.66144   7597026.27944  24137368.2624   24137369.0194
 -19980569.10944 -15569264.55344  20396233.3844   20396232.6924
   2936362.35244   2288086.64244  24005833.6154   24005833.9274
  -1555151.96944  -1211805.89644  24781304.1514   24781301.2664
  -5386823.88044  -4197525.89344  23502768.9894   23502769.0044
 -18864139.07244 -14699316.79544  21501345.2384   21501345.0434
 -21193676.01444 -16514535.28944  21001174.3484   21001174.0734
  -7832732.42044  -6103422.54744  22290111.4324   22290111.1594
 96  4  6  4  9 30.0000000  0  8G20G 6G16G21G22G23G17G26
   9853241.33244   7677849.12844  24157107.1434   24157107.5304
 -19950722.40644 -15546007.40644  20401913.0454   20401912.4134
   3036658.36044   2366239.36344  24024919.7074   24024919.8094
  -1651380.26144  -1286789.00544  24762992.7784
  -5415320.25744  -4219730.57344  23497345.8824   23497345.5554
 -18925538.81544 -14747160.71944  21489661.1304   21489661.0524
 -21222176.48744 -16536743.43244  20995750.8934   20995750.4864
  -7864130.88744  -6127888.85644  22284136.5014   22284136.2024
 96  4  6  4 10  0.0000000  0  8G20G 6G16G21G22G23G17G26
   9956973.21444   7758679.17944  24176845.9424   24176847.0504
 -19920419.43544 -15522394.72644  20407679.6954   20407678.8474
   3137011.06344   2444436.25444  24044015.7494   24044015.2514
  -1747481.83444  -1361673.37444  24744705.2374   24744702.0134
  -5443323.81044  -4241550.89244  23492017.2374   23492018.1584
 -18986564.72644 -14794713.34444  21478048.4224   21478048.5364
 -21250486.30944 -16558803.00944  20990363.7394   20990363.2924
  -7895001.64044  -6151943.95544  22278262.0474   22278261.4524
 96  4  6  4 10 30.0000000  0  8G23G20G 6G16G21G22G17G26
 -19047167.00444 -14841935.86744  21466516.0634   21466516.0084
  10060744.32544   7839539.79344  24196593.1104   24196594.3374
 -19889632.25944 -15498404.73144  20413537.9304   20413537.4184
   3237485.17644   2522727.78744  24063135.9724   24063136.3414
  -1843408.94044  -1436421.74144  24726449.0854   24726446.2154
  -5470772.48844  -4262939.50344  23486794.0324   23486794.9904
 -21278546.22744 -16580667.87444  20985023.7324   20985023.3964
  -7925293.23144  -6175547.75144  22272497.5284   22272496.4934
 96  4  6  4 11  0.0000000  0  8G20G 6G16G21G22G23G17G26
  10164489.27044   7920380.01544  24216335.2414   24216338.0644
 -19858393.45744 -15474062.81044  20419482.5424   20419482.0034
   3338044.92844   2601086.05544  24082272.2854   24082271.5944
  -1939210.66944  -1511072.41344  24708218.3164   24708218.1184
  -5497684.55644  -4283909.96444  23481672.2004   23481675.4874
 -19107377.07344 -14888852.76844  21455058.4314   21455058.2654
 -21306402.28044 -16602373.87844  20979723.0924   20979722.9054
  -7955040.19744  -6198727.16844  22266837.1204   22266836.0974
 96  4  6  4 11 30.0000000  0  8G23G20G 6G16G21G22G17G26
 -19167221.06044 -14935484.41044  21443670.2994   21443670.4234
  10268154.53144   8001158.13644  24236062.6154   24236064.8564
 -19826707.87544 -15449372.75444  20425512.1134   20425511.6754
   3438676.23944   2679500.05944  24101421.5504   24101421.8454
  -2034930.73444  -1585659.44544  24690004.5824   24690004.2724
  -5524094.25444  -4304488.94244  23476646.6844   23476648.0044
 -21334093.71844 -16623951.60744  20974453.6964   20974453.3284
  -7984290.32444  -6221519.43744  22261271.2224   22261270.6544
 96  4  6  4 12  0.0000000  0  8G23G20G 6G16G21G22G17G26
 -19226676.34044 -14981813.16044  21432356.2884   21432356.2994
  10371753.41944   8081884.56344  24255776.7314   24255778.6454
 -19794523.90644 -15424294.34044  20431636.6224   20431635.7374
   3539423.44144   2758004.38044  24120592.7514   24120595.8624
  -2130542.85244  -1660162.34344  24671810.9304   24671810.5294
  -5549976.70044  -4324657.07944  23471721.3884   23471721.4784
 -21361595.73944 -16645381.74244  20969220.4634   20969220.1424
  -8013028.14844  -6243912.49944  22255802.1184   22255800.9934
 96  4  6  4 12 30.0000000  0  8G23G20G 6G16G21G22G17G26
 -19285734.68044 -15027832.62044  21421117.5974   21421117.8694
  10475273.56644   8162549.64544  24275475.5914   24275477.0204
 -19761822.44444 -15398812.69444  20437859.3234   20437858.6304
   3640278.04544   2836592.37044  24139785.1234   24139785.6474
  -2226039.54844  -1734575.31544  24653637.2804   24653640.4934
  -5575327.69644  -4344411.12444  23466896.9214   23466897.4764
 -21388908.02144 -16666664.02344  20964022.7704   20964022.4514
  -8041247.25344  -6265901.36944  22250432.1154   22250431.4774
 96  4  6  4 13  0.0000000  0  8G23G20G 6G16G21G22G17G26
 -19344393.49344 -15073540.75144  21409955.3144   21409955.3534
  10578741.67644   8243174.16744  24295163.6004   24295161.4464
 -19728597.30644 -15372922.98444  20444182.1394   20444181.1784
   3741223.83544   2915251.40444  24158994.5234   24158994.9934
  -2321410.53744  -1808890.33044  24635487.4644   24635490.3634
  -5600161.50244  -4363762.13544  23462172.2524   23462172.1084
 -21416039.35944 -16687805.31844  20958859.9944   20958859.5984
  -8068944.75944  -6287483.83544  22245161.5014   22245161.0894
 96  4  6  4 13 30.0000000  0  8G20G 6G16G21G22G23G17G26
  10682186.00344   8323780.16044  24314849.9754   24314849.3324
 -19694859.88844 -15346634.09844  20450601.9864   20450601.0704
   3842258.06744   2993979.35144  24178221.0864   24178222.4634
  -2416632.60944  -1883089.29944  24617366.6974   24617371.5694
  -5624495.60144  -4382723.80344  23457541.3934   23457541.0044
 -19402660.54844 -15118943.61644  21398867.6924   21398867.9414
 -21442988.33144 -16708804.51744  20953731.8184   20953731.3544
  -8096119.22344  -6308658.83044  22239990.3094   22239989.9584
 96  4  6  4 14  0.0000000  0  8G23G20G 6G16G21G22G17G26
 -19460561.64244 -15164061.31644  21387849.4584   21387849.7294
  10785607.23144   8404368.14644  24334529.2454   24334532.4384
 -19660651.78644 -15319978.44344  20457111.7634   20457111.0484
   3943344.15644   3072747.71344  24197456.7294   24197456.5734
  -2511700.16344  -1957167.85544  24599274.1594   24599281.7684
  -5648335.27944  -4401300.16944  23453004.9554   23453004.4914
 -21469766.90844 -16729670.93144  20948635.7644   20948635.5284
  -8122788.33144  -6329439.76344  22234915.8474   22234914.9664
 96  4  6  4 14 30.0000000  0  8G23G20G 6G16G21G22G17G26
 -19518068.69844 -15208871.97844  21376906.2614   21376906.0884
  10889041.62044   8484966.38644  24354212.5184   24354214.4354
 -19625970.06244 -15292953.73844  20463711.3534   20463710.7814
   4044493.21344   3151565.16844  24216705.1354   24216705.5944
  -2606597.26144  -2031113.58044  24581216.0214   24581222.8184
  -5671653.80044  -4419470.45944  23448567.4554   23448566.8854
 -21496349.60744 -16750384.71644  20943577.1804   20943576.9074
  -8148936.05744  -6349814.60644  22229939.4454   22229938.6634
 96  4  6  4 15  0.0000000  0  8G23G20G 6G16G21G22G17G26
 -19575186.31344 -15253379.18244  21366036.9494   21366036.7634
  10992485.19844   8565571.76944  24373897.4594   24373897.8824
 -19590810.99644 -15265557.07744  20470401.9864   20470401.3214
   4145712.63644   3230437.41344  24235966.3894   24235966.3634
  -2701320.52944  -2104923.93644  24563190.8454   24563196.9824
  -5694463.54344  -4437244.28444  23444226.9314   23444226.6504
 -21522736.26144 -16770945.73344  20938556.1134   20938555.9894
  -8174561.53144  -6369782.47844  22225063.0784   22225062.7524
 96  4  6  4 15 30.0000000  0  8G23G20G 6G16G21G22G17G26
 -19631935.01744 -15297598.93744  21355237.9394   21355237.7684
  11095887.36144   8646144.91144  24393573.5634   24393573.3644
 -19555183.66844 -15237795.53444  20477181.6044   20477181.0844
   4246977.73744   3309345.27744  24255236.3704   24255236.5754
  -2795907.43544  -2178627.98344  24545194.3844   24545196.7954
  -5716784.65344  -4454637.34844  23439978.8574   23439978.5444
 -21548943.98044 -16791367.31644  20933568.9754   20933568.5184
  -8199686.18044  -6389360.10644  22220282.3894   22220281.8884
 96  4  6  4 16  0.0000000  0  8G23G20G 6G16G21G22G17G26
 -19688299.67044 -15341519.42244  21344512.3214   21344512.0534
  11199222.36844   8726665.74744  24413238.7054   24413240.0704
 -19519088.19344 -15209669.21244  20484050.5134   20484049.8584
   4348261.65044   3388267.78744  24274510.8464   24274509.6914
  -2890387.63344  -2252248.84944  24527215.1634   24527217.7864
  -5738614.61444  -4471647.70544  23435825.5104   23435825.3204
 -21574982.66944 -16811657.19044  20928613.9224   20928613.6374
  -8224311.41444  -6408548.57844  22215596.2734   22215595.6184
 96  4  6  4 16 30.0000000  0  8G23G20G 6G16G21G22G17G26
 -19744251.07244 -15385117.89644  21333865.2474   21333864.9174
  11302485.27944   8807130.35844  24432889.1304   24432890.8264
 -19482487.04444 -15181148.86144  20491015.2064   20491014.6404
   4449600.92944   3467233.47144  24293794.7354   24293795.4464
  -2984753.26944  -2325780.53044  24509259.4544   24509259.4434
  -5759943.06444  -4488267.27844  23431766.5194   23431767.0114
 -21600834.64044 -16831801.57344  20923694.8724   20923694.6224
  -8248395.03844  -6427315.01844  22211013.3384   22211012.3124
 96  4  6  4 17  0.0000000  0  8G23G20G 6G16G21G22G17G26
 -19799797.30944 -15428400.65544  21323295.1404   21323294.8414
  11405657.05244   8887523.94944  24452520.5634   24452523.3884
 -19445378.31644 -15152232.99744  20498076.8754   20498076.1184
   4551004.97544   3546249.55844  24313091.3314   24313091.4484
  -3079005.41744  -2399223.75744  24491323.5784   24491322.0634
  -5780766.24444  -4504493.15444  23427803.9444   23427804.0764
 -21626495.36444 -16851796.93644  20918811.6304   20918811.3394
  -8271919.46144  -6445645.71144  22206536.5444   22206535.4784
 96  4  6  4 17 30.0000000  0  8G23G20G 6G16G21G22G17G26
 -19854912.76044 -15471347.73944  21312806.9964   21312806.8254
  11508753.58544   8967858.95444  24472140.7634   24472141.3014
 -19407758.54044 -15122918.90644  20505235.7754   20505235.0514
   4652497.00644   3625334.24344  24332403.2594   24332402.4264
  -3173127.81844  -2472565.89344  24473412.7894   24473411.6664
  -5801055.54744  -4520302.99744  23423943.2914   23423943.7204
 -21651944.45844 -16871627.38944  20913968.8404   20913968.4814
  -8294865.74244  -6463525.90844  22202169.6754   22202169.1034
 96  4  6  4 18  0.0000000  0  8G23G20G 6G16G21G22G17G26
 -19909597.42944 -15513959.15244  21302400.4844   21302400.5004
  11611768.25544   9048130.18544  24491742.9664   24491746.2024
 -19369628.01844 -15093206.83044  20512491.6264   20512490.9074
   4754098.55044   3704504.27444  24351737.0694   24351737.5604
  -3267090.50544  -2545783.55744  24455533.0034   24455529.5654
  -5820801.79344  -4535689.66244  23420185.5484   23420186.2634
 -21677183.20144 -16891293.93544  20909166.0004   20909165.6704
  -8317229.57844  -6480952.24144  22197914.4654   22197913.7894
 96  4  6  4 18 30.0000000  0  8G23G20G 6G16G21G22G17G26
 -19963901.56944 -15556274.04744  21292066.7644   21292066.5944
  11714676.51644   9128318.43244  24511324.8984   24511323.5884
 -19331005.21544 -15063111.14844  20519841.4654   20519840.8294
   4855819.44244   3783767.31644  24371093.5854   24371094.0114
  -3360896.86844  -2618879.40444  24437681.9544   24437679.6454
  -5840033.24344  -4550675.22044  23416525.9204   23416526.6964
 -21702229.38844 -16910810.43144  20904399.7254   20904399.4164
  -8339037.88444  -6497945.69444  22193764.1624   22193764.0424
 96  4  6  4 19  0.0000000  0  8G23G20G 6G16G21G22G17G26
 -20017824.56644 -15598291.94444  21281805.4874   21281805.4654
  11817487.93444   9208431.26144  24530890.5004
 -19291902.71944 -15032641.67744  20527282.5474   20527281.6654
   4957635.59044   3863104.51944  24390468.3494   24390470.7614
  -3454531.05644  -2691841.10344  24419863.4214   24419862.4184
  -5858754.91644  -4565263.57744  23412963.8724   23412963.5234
 -21727090.02244 -16930182.34744  20899669.0264   20899668.5164
  -8360311.03544  -6514522.14344  22189716.6064   22189715.7374
 96  4  6  4 19 30.0000000  0  8G23G20G 6G16G21G22G17G26
 -20071368.70344 -15640014.62644  21271616.3994   21271616.1004
  11920204.86744   9288470.41944  24550435.4674
 -19252327.43244 -15001803.80444  20534813.3634   20534812.8424
   5059507.68244   3942485.35144  24409854.4594   24409854.3314
  -3547990.94744  -2764666.97844  24402077.4864   24402075.4374
  -5876979.77744  -4579464.79944  23409495.0164   23409494.2814
 -21751785.77444 -16949425.77944  20894969.6754   20894969.0794
  -8381075.45244  -6530702.15844  22185764.7614   22185763.9224
 96  4  6  4 20  0.0000000  0  8G23G20G 6G16G21G22G17G26
 -20124531.28944 -15681439.98944  21261499.8074   21261499.5864
  12022844.46044                  24569968.9404
 -19212273.97844 -14970593.33744  20542435.3674   20542434.7424
   5161414.99144   4021893.63844  24429248.8514   24429245.1054
  -3641288.94944  -2837366.70144  24384322.1134   24384323.9344
  -5894700.90044  -4593273.45644  23406121.9304   23406121.6524
 -21776304.38744 -16968531.18644  20890303.7434   20890303.3824
  -8401328.49944  -6546483.72344  22181910.7114   22181910.1504
 96  4  6  4 20 30.0000000  0  8G23G20G 6G16G21G22G17G26
 -20177314.22444 -15722569.51844  21251455.8224   21251455.4374
  12125417.96844                  24589487.3364
 -19171762.03644 -14939025.60644  20550144.5514   20550143.8144
   5263321.93644   4101301.64844  24448640.7394   24448641.4644
  -3734457.60844  -2909965.60844  24366593.0664   24366593.5044
  -5911924.72944  -4606694.61844  23402845.1474   23402846.1104
 -21800654.08844 -16987504.99144  20885670.1904   20885669.8914
  -8421072.54044  -6561868.65544  22178153.6204   22178153.0554
 96  4  6  4 21  0.0000000  0  8G23G20G 6G16G21G22G17G26
 -20229677.77444 -15763372.25944  21241491.4994   21241491.1014
  12227948.19244                  24608999.2954
 -19130783.09044 -14907093.97244  20557942.3444   20557941.7074
   5365212.15844   4180696.58444  24468030.3804   24468030.1664
  -3827489.69244  -2982458.10244  24348888.8804   24348892.0914
  -5928623.48444  -4619706.64144  23399668.0474   23399667.8364
 -21824817.72944 -17006333.80144  20881072.2354   20881071.8294
  -8440282.24144  -6576837.21644  22174497.9244   22174497.3194
 96  4  6  4 21 30.0000000  0  8G23G20G 6G16G21G22G17G26
 -20281601.69044 -15803832.42444  21231610.8514   21231610.6894
  12330449.64244                  24628503.8414
 -19089312.29944 -14874779.08144  20565834.1714   20565833.5684
   5467120.94844   4260105.98744  24487421.9924   24487420.3954
  -3920371.53844  -3054833.51644  24331213.2044   24331219.5004
  -5944762.14644  -4632282.25544  23396596.3174   23396596.9624
 -21848772.76044 -17025000.04344  20876513.7614   20876513.2854
  -8458918.01144  -6591358.58244  22170951.9404   22170950.2914
 96  4  6  4 22  0.0000000  0  8G23G20G 6G16G21G22G17G26
 -20333093.74844 -15843956.07244  21221811.6514   21221811.5794
  12432902.63444                  24647998.4644
 -19047358.92244 -14842088.16544  20573817.7034   20573817.1174
   5569070.81344   4339547.39244  24506821.6504   24506820.9464
  -4013101.93144  -3127090.94644  24313569.3164   24313571.1144
  -5960352.23444  -4644430.38944  23393630.0034   23393629.3964
 -21872521.37444 -17043505.44344  20871994.2694   20871994.0894
  -8476976.13344  -6605429.80844  22167515.1914   22167514.7614
 96  4  6  4 22 30.0000000  0  7G23G26G20G 6G16G21G17
 -20384177.80644 -15883761.80744  21212090.4734   21212090.5414
  -8494465.68444  -6619058.00844  22164187.1114   22164186.4314
  12535280.04044                  24667480.6754
 -19004933.15744 -14809029.15744  20581891.0944   20581890.4134
   5671065.96244   4419024.12044  24526231.7864   24526229.9854
  -4105670.16144  -3199222.01644  24295952.5524   24295955.7734
 -21896083.92644 -17061865.87344  20867510.3024   20867509.9754
 96  4  6  4 23  0.0000000  0  8G23G26G20G 6G16G21G28G17
 -20434861.89644 -15923255.88744  21202445.9074   21202445.5454
  -8511390.09944  -6632245.84944  22160966.6104   22160965.4334
  12637571.82244                  24686946.5104
 -18962026.00744 -14775595.04344  20590056.1164   20590055.5374
   5773120.48544   4498547.11444  24545652.0994   24545651.0584
  -4198057.98344  -3271212.51244  24278373.9434   24278376.7644
        -0.74014        -0.24914  25353282.487    25353284.039
 -21919450.66544 -17080073.71844  20863063.7394   20863063.3954
 96  4  6  4 23 30.0000000  0  8G23G26G20G 6G16G21G28G17
 -20485140.10144 -15962433.69344  21192877.9674   21192877.7244
  -8527744.34044  -6644989.38044  22157854.1134   22157853.1794
  12739784.41544                  24706397.7194
 -18918603.56844 -14741759.40344  20598319.1674   20598318.4784
   5875266.38344   4578141.31344  24565090.0854   24565089.9474
  -4290248.13844  -3343048.96544  24260831.2494   24260831.8934
   -105723.570 4    -82381.667 4  25333163.605    25333166.677
 -21942596.59244 -17098109.49244  20858659.2194   20858658.9644
 96  4  6  4 24  0.0000000  0  8G23G26G20G 6G16G21G28G17
 -20535043.34844 -16001319.31844  21183381.9204   21183381.6344
  -8543562.04044  -6657314.84544  22154844.7554   22154843.6464
  12841884.01544  10006662.18144  24725826.3884
 -18874682.71544 -14707535.38544  20606677.0854   20606676.5444
   5977472.55144   4657782.50744  24584539.1264   24584537.8084
  -4382266.28744  -3414751.43444  24243320.2494   24243320.6204
   -211479.613 4   -164788.937 4  25313038.831    25313043.269
 -21965545.30944 -17115991.59344  20854292.1044   20854292.0684
 96  4  6  4 24 30.0000000  0  8G23G26G20G 6G16G21G28G17
 -20584588.65344 -16039926.02844  21173953.5524   21173953.5104
  -8558867.79744  -6669241.38444  22151931.8894   22151931.4494
  12943844.61944                  24745229.5114
 -18830289.81644 -14672943.54144  20615124.8724   20615124.2274
   6079703.68244   4737443.09444  24603993.5744   24603993.4024
  -4474149.71944  -3486348.90044  24225835.7804   24225837.4884
   -317290.366 4   -247238.813 4  25292904.472    25292910.334
 -21988313.97644 -17133733.39844  20849959.3544   20849959.4004
 96  4  6  4 25  0.0000000  0  8G23G26G20G 6G16G21G28G17
 -20633745.74444 -16078230.23144  21164599.2884   21164599.2914
  -8573651.53344  -6680761.15644  22149118.7934   22149117.5094
  13045667.17744                  24764605.2604
 -18785405.91044 -14637969.09044  20623665.7784   20623665.1844
   6181954.99444   4817119.45944  24623450.0134
  -4565889.02044  -3557834.06244  24208378.6444   24208380.4604
   -423145.591 4   -329723.399 4  25272762.660    25272767.721
 -22010883.30144 -17151319.87844  20845664.9134   20845664.7524
 96  4  6  4 25 30.0000000  0  8G23G26G20G 6G16G21G28G17
 -20682485.85244 -16116209.51844  21155324.5634   21155324.7154
  -8587880.92944  -6691848.96644  22146410.7444   22146409.9824
  13147355.76944                  24783954.6694
 -18740008.68744 -14602594.64144  20632304.5254   20632304.0834
   6284241.25344   4896823.03644  24642915.2114   24642915.6994
  -4657459.53444  -3629187.69844  24190953.4134   24190953.1494
   -529016.150 4   -412219.979 4  25252615.841    25252620.517
 -22033240.80744 -17168741.30744  20841410.3594   20841410.0504
 96  4  6  4 26  0.0000000  0  7G23G 6G16G21G28G17G26
 -20730810.95044 -16153865.42744  21146128.6414   21146128.6174
 -18694124.91344 -14566841.07044  20641035.9474   20641035.3824
   6386548.01644   4976542.55244  24662383.7874   24662385.4224
  -4748865.78244  -3700413.36744  24173559.2924   24173559.0604
   -634899.314 4   -494726.347 4  25232466.518    25232469.175
 -22055401.27844 -17186009.19844  20837193.2184   20837193.0494
  -8601545.11244  -6702496.35944  22143810.8554   22143810.5334
 96  4  6  4 26 30.0000000  0  8G23G22G 6G16G21G28G17G26
 -20778740.79644 -16191213.34844  21137007.7634   21137007.4044
        -1.06054         0.06954  23371271.2904   23371272.3344
 -18647799.10944 -14530743.05644  20649851.5804   20649851.0624
   6488826.44744   5056239.98344  24681846.9474
  -4840137.12244  -3771533.88644  24156190.4904   24156191.2584
   -740824.621 4   -577265.548 4  25212309.610    25212309.952
 -22077392.51144 -17203145.21144  20833008.2484   20833008.1364
  -8614669.27244  -6712722.96044  22141312.7384   22141312.3634
 96  4  6  4 27  0.0000000  0  8G23G22G 6G16G21G28G17G26
 -20826217.02744 -16228207.79944  21127973.4014   21127973.1034
    -10442.76444     -8136.34744  23369284.6154   23369284.7804
 -18600963.50444 -14494247.79244  20658763.9334   20658763.2704
   6591128.84044   5135956.12544  24701315.4344
  -4931195.79044  -3842488.68444  24138861.4954   24138862.6984
   -846721.210 4   -659782.327 4  25192157.436    25192157.919
 -22099163.26444 -17220109.42344  20828865.6814   20828865.0474
  -8627183.08344  -6722473.97544  22138932.0904   22138931.2884
 96  4  6  4 27 30.0000000  0  8G23G22G 6G16G21G28G17G26
 -20873279.30544 -16264879.68244  21119017.6964   21119017.4354
    -20332.57144    -15842.68744  23367402.5294   23367402.4934
 -18553662.12644 -14457389.61044  20667765.2584   20667764.6344
   6693434.60544   5215674.91844  24720782.5714   24720779.5464
  -5022079.41344  -3913307.06344  24121564.5484   24121568.3234
   -952611.439 4   -742294.095 4  25172007.084    25172009.793
 -22120756.39744 -17236935.23444  20824756.9224   20824756.3144
  -8639106.94444  -6731765.27944  22136662.7744   22136661.8214
 96  4  6  4 28  0.0000000  0  8G23G26G22G 6G16G21G28G17
 -20919934.34444 -16301234.24244  21110139.5034   21110139.3494
  -8650463.67644  -6740614.65344  22134501.8224   22134500.9004
    -29690.51244    -23134.60444  23365622.5984   23365621.6504
 -18505909.69244 -14420179.95244  20676852.0774   20676851.5424
   6795727.36144   5295383.52044  24740248.3574   24740250.5064
  -5112802.15144  -3984000.09844  24104301.6434   24104304.8064
  -1058503.708 4   -824807.530 4  25151855.666    25151857.265
 -22142170.56044 -17253621.58344  20820681.7264   20820681.2014
 96  4  6  4 28 30.0000000  0  8G23G26G22G 6G16G21G28G17
 -20966189.62444 -16337277.30444  21101337.4354   21101337.1114
  -8661268.81444  -6749034.22744  22132445.6524   22132445.1004
    -38532.33944    -30024.36244  23363940.3634   23363939.8464
 -18457702.10844 -14382615.62344  20686026.0194   20686025.4774
   6898001.65544   5375077.74744  24759709.8174   24759709.6924
  -5203360.50844  -4054565.02644  24087069.4504   24087069.1744
  -1164409.401 4   -907331.422 4  25131699.328    25131702.519
 -22163410.71744 -17270172.34544  20816639.9994   20816639.5214
 96  4  6  4 29  0.0000000  0  8G23G26G22G 6G16G21G28G17
 -21012042.99944 -16373007.18544  21092611.6354   21092611.3964
  -8671513.75444  -6757017.26344  22130495.9134   22130495.5274
    -46844.22844    -36501.17044  23362358.1614   23362358.1864
 -18409012.00544 -14344675.31144  20695291.1924   20695290.6544
   7000292.93444   5454785.16244  24779172.9734   24779174.8014
  -5293734.52844  -4124986.35044  24069872.4454   24069873.9274
  -1270316.370 4   -989856.317 4  25111546.141    25111554.960
 -22184468.60144 -17286581.08044  20812632.8004   20812632.1804
 96  4  6  4 29 30.0000000  0  8G23G26G22G 6G16G21G28G17
 -21057482.15944 -16408414.30344  21083965.0194   21083964.6464
  -8681193.48744  -6764559.89144  22128653.3494   22128652.5114
    -54643.68944    -42578.68444  23360873.5564   23360873.4204
 -18359822.25144 -14306345.66044  20704651.9234   20704651.1474
   7102632.25044   5534530.01344  24798649.1914   24798647.6584
  -5383925.68744  -4195265.18644  24052710.5684   24052710.2744
  -1376217.490 4  -1072376.612 4  25091395.232    25091400.734
 -22205330.93944 -17302837.43844  20808662.5534   20808662.3704
 96  4  6  4 30  0.0000000  0  8G23G26G22G 6G16G21G28G17
 -21102504.47544 -16443496.60944  21075397.6034   21075397.3674
  -8690311.53544  -6771664.84244  22126919.0414   22126917.9744
    -61945.66244    -48268.56844  23359483.4364   23359483.8504
 -18310118.84944 -14267615.77044  20714109.8254   20714109.3214
   7205022.25844   5614314.48644  24818133.8274   24818136.5874
  -5473922.28944  -4265392.38144  24035584.4374   24035584.2344
  -1482112.253 4  -1154891.986 4  25071242.753    25071244.083
 -22225994.73544 -17318939.08244  20804730.6914   20804730.2884
 96  4  6  4 30 30.0000000  0  7G23G26G22G16G21G 6G17
 -21147120.77244 -16478262.53844  21066907.4344   21066907.2884
  -8698864.17844  -6778329.22044  22125291.0734   22125290.5244
    -68761.34244    -53579.51344  23358186.1474   23358186.7024
   7307470.25544   5694144.04744  24837627.6114
  -5563727.03644  -4335370.10544  24018496.3714   24018495.8674
 -18259906.49844 -14228489.28344  20723665.3274   20723664.6694
 -22246481.47244 -17334902.76244  20800832.0364   20800831.4524
 96  4  6  4 31  0.0000000  0  7G23G26G22G16G21G 6G17
 -21191353.95944 -16512729.93544  21058490.0174   21058489.6284
  -8706873.36344  -6784570.11444  22123767.1054   22123765.6334
    -75107.45644    -58524.55944  23356978.8384   23356979.3524
   7409951.65544   5773999.55844  24857131.3594   24857134.1604
  -5653373.10344  -4405224.20944  24001436.9674   24001437.4954
 -18209215.97544 -14188990.18444  20733311.4424   20733310.8614
 -22266814.66144 -17350746.80744  20796962.4484   20796961.9754
 96  4  6  4 31 30.0000000  0  7G23G26G22G16G21G 6G17
 -21235194.24344 -16546891.16544  21050147.3334   21050147.1664
  -8714322.46744  -6790374.59044  22122349.6034   22122348.8654
    -80967.37744    -63090.74044  23355864.1824   23355864.1694
   7512456.55144   5853873.41044  24876637.4044   24876637.4734
  -5742860.33444  -4474954.50844  23984407.6564   23984407.0954
 -18158060.90744 -14149129.11244  20743045.6724   20743045.0774
 -22286971.97244 -17366453.80344  20793126.7744   20793126.3984
 96  4  6  4 32  0.0000000  0  7G23G26G22G16G21G 6G17
 -21278646.57244 -16580750.09544  21041878.5644   21041878.2734
  -8721203.95344  -6795736.76344  22121039.7284   22121039.4074
    -86329.80244    -67269.27544  23354844.8744   23354843.1484
   7614960.02744                  24896142.8664
  -5832179.26244  -4544553.65644  23967410.8684   23967412.3414
 -18106467.78344 -14108926.71844  20752863.5174   20752862.9744
 -22306939.44844 -17382012.86944  20789326.9144   20789326.7524
 96  4  6  4 32 30.0000000  0  7G23G26G22G16G21G 6G17
 -21321692.35744 -16614292.24144  21033687.2224   21033687.2054
  -8727504.37544  -6800646.16244  22119840.6694   22119840.3284
    -91161.51744    -71034.26744  23353924.4764   23353924.1044
   7717461.90444                  24915646.2324
  -5921320.28944  -4614014.17644  23950447.6574   23950449.1854
 -18054431.09944 -14068378.68744  20762766.0104   20762765.4914
 -22326687.18444 -17397400.71344  20785569.2594   20785568.7844
 96  4  6  4 33  0.0000000  0  7G23G26G22G16G21G 6G17
 -21364315.41044 -16647504.98544  21025576.3094   21025575.9374
  -8733196.64644  -6805081.66144  22118757.6884   22118756.8344
    -95438.01244    -74366.62644  23353110.4824   23353109.3764
   7819962.98544   6093488.85144  24935154.4904   24935154.9764
  -6010270.39444  -4683325.96744  23933522.6864   23933522.4674
 -18001931.64744 -14027470.04544  20772756.2234   20772755.7984
 -22346178.59244 -17412588.82544  20781860.1164   20781859.7414
 96  4  6  4 33 30.0000000  0  7G23G26G22G 6G16G21G17
 -21406545.18544 -16680411.28344  21017540.1484   21017539.9964
  -8738308.04344  -6809064.54444  22117785.3834   22117784.0064
    -99203.61044    -77300.87144  23352393.6884   23352394.0834
 -17948991.04244 -13986217.65644  20782830.7114   20782830.1914
   7922422.66244   6173327.48244  24954652.5044   24954653.9964
  -6099057.56944  -4752510.80344  23916626.2694   23916627.6164
 -22365455.09144 -17427609.47044  20778192.1254   20778191.5924
 96  4  6  4 34  0.0000000  0  8G23G26G22G 6G16G21G28G17
 -21448378.67244 -16713008.78444  21009579.4654   21009579.3684
  -8742864.57144  -6812615.05744  22116918.4994   22116917.2764
   -102473.27044    -79848.68944  23351772.7064   23351773.1064
 -17895593.49444 -13944609.20544  20792991.9244   20792991.3734
   8024829.67244   6253125.20144  24974140.3784   24974139.1424
  -6187691.31044  -4821576.03744  23899758.4534   23899760.8694
        -0.28014        -0.84514  24910052.719    24910055.013
 -22384543.86744 -17442483.83044  20774559.5224   20774559.0794
 96  4  6  4 34 30.0000000  0  7G23G26G22G21G28G 6G17
 -21489798.94744 -16745284.29244  21001697.3574   21001697.1764
  -8746857.86744  -6815726.70844  22116158.0314   22116157.3024
   -105233.62744    -81999.63844  23351247.5494   23351246.0784
  -6276154.41544  -4890508.31144  23882924.7964   23882926.5104
   -105854.543 4    -82484.692 4  24889909.431    24889923.003
 -17841692.85644 -13902608.73844  20803248.4834   20803248.1304
 -22403453.56444 -17457218.65044  20770961.0684   20770960.8704
 96  4  6  4 35  0.0000000  0  7G23G26G22G 6G21G28G17
 -21530780.74044 -16777218.12844  20993898.8884   20993898.6664
  -8750259.29244  -6818377.15144  22115511.2054   22115510.1684
   -107479.30444    -83749.52344  23350820.3454   23350818.8014
 -17787261.41144 -13860194.64444  20813606.6174   20813606.0174
  -6364418.85944  -4959285.83644  23866128.6454   23866128.7604
   -211671.037 4   -164938.913 4  24869773.982    24869784.469
 -22422175.90544 -17471807.47744  20767398.6134   20767397.9514
 96  4  6  4 35 30.0000000  0  8G26G22G 6G16G21G28G23G17
  -8753089.38344  -6820582.39144  22114972.6024   22114972.0314
   -109210.28344    -85098.35944  23350490.0314   23350490.2664
 -17732305.75844 -13817372.07344  20824064.5264   20824063.7864
        -0.70654                  25032585.0034
  -6452476.39844  -5027902.09044  23849371.7654   23849371.8874
   -317452.452 4   -247365.922 4  24849645.115    24849648.227
 -21571317.97344 -16808805.55344  20986184.9954   20986184.9584
 -22440728.05144 -17486263.68744  20763868.2644   20763867.6404
 96  4  6  4 36  0.0000000  0  8G26G22G 6G16G21G28G23G17
  -8755362.20144  -6822353.39544  22114540.0564   22114538.9454
   -110420.62444    -86041.52444  23350259.7354   23350260.2134
 -17676852.41844 -13774161.69544  20834616.7514   20834616.4414
    102379.81444                  25052069.3234
  -6540333.22744  -5096361.95844  23832652.7884   23832654.1894
   -423200.509 4   -329767.026 4  24829522.950    24829525.270
 -21611433.38044 -16840064.27844  20978551.1204   20978551.0454
 -22459106.20244 -17500584.32044  20760371.0754   20760370.4434
 96  4  6  4 36 30.0000000  0  7G26G22G21G28G 6G23G17
  -8757057.79644  -6823674.61344  22114217.1884   22114216.0894
   -111119.60144    -86586.20944  23350126.8504   23350127.2734
  -6627978.85844  -5164657.25944  23815972.8504   23815974.8944
   -528916.644 4   -412143.237 4  24809404.025    24809407.297
 -17620929.30744 -13730585.28144  20845258.7934   20845258.4324
 -21651141.16344 -16871005.37944  20970995.0284   20970994.7054
 -22477304.89544 -17514765.10944  20756907.7324   20756907.3494
 96  4  6  4 37  0.0000000  0  7G26G22G21G28G 6G23G17
  -8758177.89744  -6824547.37944  22114004.3744   22114003.2354
   -111313.41044    -86737.24944  23350090.0924   23350090.6084
  -6715422.18044  -5232794.87144  23799331.5684   23799334.3364
   -634607.864 4   -494499.962 4  24789289.613    24789291.904
 -17564566.66644 -13686666.35244  20855984.2114   20855983.6024
 -21690445.91644 -16901632.44244  20963515.7164   20963515.2954
 -22495310.96244 -17528795.80444  20753481.1554   20753480.5824
 96  4  6  4 37 30.0000000  0  7G26G22G21G28G 6G23G17
  -8758734.25244  -6824980.88144  22113898.1124   22113896.6734
   -110999.33244    -86492.53744  23350149.4934   23350149.6484
  -6802661.17644  -5300773.30744  23782732.0684   23782735.1464
   -740275.642 4   -576838.432 4  24769180.152    24769182.907
 -17507773.43444 -13642411.90444  20866791.6244   20866791.2064
 -21729360.87244 -16931955.77144  20956110.2544   20956110.1564
 -22513123.59244 -17542675.76944  20750091.4664   20750091.0514
 96  4  6  4 38  0.0000000  0  6G26G22G21G 6G23G17
  -8758705.45844  -6824958.41944  22113903.6844   22113902.7704
   -110192.49644    -85863.84344  23350302.4544   23350304.3074
  -6889694.22844  -5368591.25044  23766171.3034   23766172.2564
 -17450540.25144 -13597814.64644  20877682.3604   20877681.8904
 -21767893.08944 -16961980.85944  20948778.1924   20948777.8044
 -22530730.64744 -17556395.54844  20746740.8544   20746740.4954
 96  4  6  4 38 30.0000000  0  7G26G22G21G28G 6G23G17
  -8758101.81944  -6824488.01844  22114018.7464   22114017.2054
   -108915.31944    -84868.63644  23350546.3124   23350548.3554
  -6976531.20344  -5436256.41744  23749648.1594   23749647.4754
        -0.36514        -0.74114  24728980.980    24728980.945
 -17392864.35244 -13552872.41544  20888657.9614   20888657.5074
 -21806041.35644 -16991706.75344  20941518.5734   20941518.1944
 -22548146.89744 -17569966.65244  20743426.9334   20743426.4484
 96  4  6  4 39  0.0000000  0  6G26G22G21G 6G23G17
  -8756932.68144  -6823576.98644  22114240.6874   22114239.5724
   -107148.23444    -83491.72744  23350882.4784   23350883.7764
  -7063177.10644  -5503772.71244  23733159.6584   23733159.2144
 -17334715.85244 -13507561.92844  20899723.3304   20899722.8234
 -21843792.90144 -17021123.52344  20934334.7594   20934334.3364
 -22565362.89644 -17583381.71044  20740150.9314   20740150.3844
 96  4  6  4 39 30.0000000  0  6G26G22G21G 6G23G17
  -8755203.60144  -6822229.62644  22114569.8524   22114568.8054
   -104902.25844    -81741.63944  23351309.9564   23351310.5544
  -7149646.66644  -5571151.58144  23716704.8624   23716706.3284
 -17276091.09444 -13461880.32844  20910879.4694   20910879.1114
 -21881161.40244 -17050241.81744  20927223.8754   20927223.4484
 -22582398.61344 -17596656.29644  20736909.0044   20736908.5054
 96  4  6  4 40  0.0000000  0  6G26G22G21G 6G23G17
  -8752908.59744  -6820441.29044  22115006.7334   22115005.7204
   -102170.50244    -79613.03244  23351830.2204   23351830.6774
  -7235945.17844  -5638397.17344  23700282.7734   23700282.3264
 -17216985.57244 -13415824.10344  20922126.6194   20922126.2064
 -21918121.86544 -17079042.15944  20920190.4684   20920190.0694
 -22599247.74644 -17609785.48044  20733702.6844   20733702.0934
 96  4  6  4 40 30.0000000  0  7G26G22G21G28G 6G23G17
  -8750034.84044  -6818201.99344  22115553.7184   22115552.6964
    -98917.30544    -77078.09944  23352449.6674   23352449.3504
  -7322058.24644  -5705498.27544  23683896.5614   23683895.9494
        -0.47214        -0.05214  24648641.075    24648641.942
 -17157384.22044 -13369381.51944  20933468.6324   20933468.2684
 -21954636.50844 -17107495.10944  20913241.9534   20913241.5774
 -22615891.25844 -17622754.43444  20730535.4624   20730534.9434
 96  4  6  4 41  0.0000000  0  6G26G22G21G 6G23G17
  -8746578.56744  -6815508.76144  22116211.6434   22116210.4474
    -95139.35944    -74134.29544  23353167.8984   23353168.9594
  -7407979.17244  -5772449.61244  23667547.1394   23667546.3414
 -17097294.67944 -13322558.53544  20944903.0844   20944902.7744
 -21990695.46644 -17135592.98344  20906380.2274   20906379.8064
 -22632323.40544 -17635558.70044  20727408.5924   20727408.2134
 96  4  6  4 41 30.0000000  0  6G26G22G21G 6G23G17
  -8742558.57544  -6812376.28144  22116975.6674   22116974.5364
    -90856.13244    -70796.74344  23353983.0344   23353982.6424
  -7493710.13644  -5839252.96044  23651233.1374   23651232.3324
 -17036757.63044 -13275386.83744  20956422.9494   20956422.7534
 -22026318.60744 -17163351.26044  20899601.2724   20899601.0144
 -22648568.86844 -17648217.50344  20724316.8734   20724316.4564
 96  4  6  4 42  0.0000000  0  7G26G22G28G21G 6G23G17
  -8737966.50444  -6808798.02644  22117850.2514   22117849.2524
    -86065.41344    -67063.73644  23354894.8974   23354894.9584
        -0.57414        -0.44114  24588471.186    24588473.411
  -7579228.62444  -5905890.73644  23634958.7024   23634958.1414
 -16975774.58844 -13227867.62144  20968027.6994   20968027.6804
 -22061499.11044 -17190764.62544  20892906.4464   20892906.1694
 -22664621.73344 -17660726.22044  20721262.1804   20721261.7734
 96  4  6  4 42 30.0000000  0  7G 6G26G22G28G21G23G17
 -16914302.08444 -13179967.00544  20979725.7444   20979724.8904
  -8732745.98344  -6804730.06144  22118843.2644   22118842.2454
    -80726.79044    -62903.78444  23355910.5654   23355912.3824
   -105255.434 4    -82017.161 4  24568443.441    24568444.327
  -7664476.03844  -5972317.27144  23618735.9834   23618734.7314
 -22096212.73344 -17217814.18644  20886300.7304   20886300.5054
 -22680436.92844 -17673049.74644  20718252.6694   20718252.1704
 96  4  6  4 43  0.0000000  0  7G 6G26G22G28G21G23G17
 -16852379.57244 -13131715.73144  20991508.8564   20991508.6824
  -8726934.19744  -6800201.40444  22119949.6084   22119948.9744
    -74881.65644    -58349.12744  23357022.6444   23357022.3794
   -210441.241 4   -163979.946 4  24548428.331    24548427.077
  -7749479.94544  -6038554.05144  23602558.8814   23602560.7814
 -22130514.29344 -17244542.65044  20879773.4144   20879772.9914
 -22696050.74044 -17685216.35144  20715281.6744   20715281.0754
 96  4  6  4 43 30.0000000  0  7G 6G26G22G28G21G23G17
 -16790014.87444 -13083119.88444  21003376.6874   21003376.4814
  -8720532.49344  -6795213.02644  22121167.3584   22121166.2834
    -68544.18944    -53410.96044  23358228.8254   23358230.3084
   -315571.108 4   -245899.258 4  24528422.203    24528421.815
  -7834262.45944  -6104618.33144  23586425.2044   23586426.8494
 -22164435.12544 -17270974.44244  20873318.4034   20873318.1894
 -22711476.98844 -17697236.79944  20712345.9654   20712345.4324
 96  4  6  4 44  0.0000000  0  7G 6G26G22G28G21G23G17
 -16727190.69744 -13034166.01844  21015331.8144   21015331.4544
  -8713519.38644  -6789748.24244  22122502.2614   22122501.0914
    -61713.07444    -48088.03944  23359529.0954   23359529.4574
   -420639.365 4   -327770.706 4  24508428.174    24508426.970
  -7918828.10844  -6170513.63344  23570332.5084   23570333.4934
 -22197967.63444 -17297103.65344  20866937.4974   20866937.0294
 -22726696.26644 -17709095.96944  20709450.0634   20709449.5644
 96  4  6  4 44 30.0000000  0  7G 6G26G22G28G21G23G17
 -16663901.28444 -12984849.63444  21027375.5824   21027375.3524
  -8705902.40144  -6783812.91744  22123951.0774   22123950.5874
    -54372.68344    -42368.28344  23360925.5674   23360925.7904
   -525641.368 4   -409590.383 4  24488447.804    24488447.342
  -8003196.15544  -6236254.96644  23554278.9624   23554280.0374
 -22231106.63444 -17322926.24744  20860631.3114   20860630.9364
 -22741695.11944 -17720783.37844  20706595.7674   20706595.3694
 96  4  6  4 45  0.0000000  0  7G 6G26G22G28G21G23G17
 -16600161.20044 -12935182.05744  21039504.9074   21039504.5674
  -8697698.62544  -6777420.35644  22125512.5904   22125511.4284
    -46532.48944    -36259.06044  23362417.8264   23362418.1904
   -630588.393 4   -491367.205 4  24468476.303    24468476.824
  -8087387.34144  -6301858.46944  23538258.7104   23538259.1034
 -22263862.28144 -17348450.12444  20854398.0274   20854397.5444
 -22756492.36444 -17732313.69744  20703779.9764   20703779.3344
 96  4  6  4 45 30.0000000  0  7G 6G26G22G28G21G23G17
 -16535992.81344 -12885180.76244  21051715.5914   21051715.1944
  -8688925.52144  -6770584.14444  22127182.0704   22127181.3854
    -38220.55244    -29782.23844  23363999.3034   23363999.4154
   -735500.117 4   -573116.613 4  24448510.304    24448512.520
  -8171422.73544  -6367340.60344  23522266.9804   23522267.7154
 -22296247.52244 -17373685.37344  20848235.3314   20848234.8724
 -22771114.28844 -17743707.40944  20700997.2544   20700996.9394
 96  4  6  4 46  0.0000000  0  7G 6G26G22G28G21G23G17
 -16471381.23244 -12834834.11744  21064011.0744   21064010.6484
  -8679582.78444  -6763304.07744  22128960.0824   22128959.1224
    -29422.45644    -22926.61144  23365673.9624   23365674.1474
   -840352.396 4   -654819.675 4  24428557.433    24428558.791
  -8255269.92344  -6432676.07944  23506310.8854   23506313.2654
 -22328234.13344 -17398610.00244  20842148.4064   20842147.8664
 -22785546.79144 -17754953.51944  20698250.9604   20698250.4594
 96  4  6  4 46 30.0000000  0  6G 6G26G22G21G23G17
 -16406321.79044 -12784138.49944  21076391.2054   21076391.0894
  -8669663.28244  -6755574.58344  22130847.6684   22130846.4974
    -20136.71944    -15691.01744  23367440.9044   23367441.3934
  -8338907.93844  -6497848.52344  23490394.5324   23490397.5954
 -22359802.87744 -17423209.01144  20836141.1714   20836140.8634
 -22799785.46244 -17766048.58944  20695541.4744   20695540.9264
 96  4  6  4 47  0.0000000  0  6G 6G26G22G21G23G17
 -16340839.86944 -12733113.65944  21088851.8164   21088851.8584
  -8659181.30944  -6747406.79044  22132841.7914   22132841.2004
    -10409.05044     -8111.05544  23369292.1064   23369292.6974
  -8422340.48744  -6562860.88544  23474518.2634   23474520.3604
 -22390966.85444 -17447492.61044  20830210.7934   20830210.4864
 -22813852.54744 -17777009.95144  20692864.5974   20692864.1234
 96  4  6  4 47 30.0000000  0  7G 6G26G22G28G21G23G17
 -16274922.44744 -12681749.46644  21101395.7544   21101395.6064
  -8648146.85844  -6738808.51244  22134941.7654   22134941.4054
      -231.35144      -180.42044  23371227.7424   23371228.9664
         0.22714         0.19514  24368777.804    24368779.176
  -8505560.88844  -6627707.93844  23458683.4234   23458683.9804
 -22421723.64844 -17471458.93144  20824357.8944   20824357.6184
 -22827735.67844 -17787827.97644  20690222.8544   20690222.5014
 96  4  6  4 48  0.0000000  0  6G 6G26G22G21G23G17
 -16208549.83744 -12630030.58444  21114025.8254   21114025.7114
  -8636548.08644  -6729770.48444  22137149.1484   22137147.9854
     10431.77244      8128.49244  23373258.0554   23373257.6614
  -8588559.47444  -6692382.14444  23442889.1644   23442890.0614
 -22452048.69744 -17495088.82844  20818587.4474   20818586.8624
 -22841419.02544 -17798490.32544  20687618.9794   20687618.6774
 96  4  6  4 48 30.0000000  0  6G 6G26G22G21G23G17
 -16141698.40944 -12577938.61144  21126747.9024   21126747.8254
  -8624353.31844  -6720268.05144  22139469.4594   22139468.3514
     21609.42444     16838.32044  23375385.6344   23375385.3224
  -8671334.12744  -6756881.83144  23427136.9104   23427138.4304
 -22481922.00744 -17518366.72844  20812902.7764   20812902.6434
 -22854874.01844 -17808974.73544  20685058.4814   20685058.0084
 96  4  6  4 49  0.0000000  0  7G 6G22G28G21G26G23G17
 -16074340.84144 -12525452.23244  21139565.6264   21139565.1734
     33338.55944     25977.87844  23377617.2014   23377616.0054
         0.21814         0.04314  24309150.159    24309151.750
  -8753868.52744  -6821194.32444  23411430.8794   23411432.1594
  -8611549.91044  -6710291.35944  22141906.4534   22141904.8264
 -22511353.05144 -17541299.99044  20807302.3494   20807301.7664
 -22868090.62344 -17819273.38844  20682543.1814   20682542.8874
 96  4  6  4 49 30.0000000  0  6G 6G22G21G26G23G17
 -16006519.87244 -12472604.75644  21152471.3284   21152471.0944
     45591.14744     35525.31044  23379949.1504   23379948.1204
  -8836203.94144  -6885351.76944  23395762.5614   23395764.5664
  -8598176.61744  -6699870.60144  22144451.2764   22144449.9234
 -22540396.68944 -17563931.37144  20801775.2964   20801774.8244
 -22881127.94044 -17829432.33044  20680062.4394   20680061.9004
 96  4  6  4 50  0.0000000  0  7G 6G22G28G21G26G23G17
 -15938264.01744 -12419418.41044  21165459.8954   21165459.4874
     58340.96944     45460.21744  23382374.9584   23382373.2494
        -0.38914         0.35014  24269485.728    24269487.135
  -8918345.66644  -6949358.28444  23380132.6664   23380133.1304
  -8584220.83244  -6688995.95344  22147106.4884   22147105.8524
 -22569062.19544 -17586268.10244  20796320.1694   20796319.6734
 -22893994.26844 -17839458.03544  20677614.3674   20677613.7314
 96  4  6  4 50 30.0000000  0  7G 6G22G28G21G26G23G17
 -15869559.40344 -12365882.39444  21178534.3464   21178534.0714
     71599.19644     55791.27744  23384897.8684   23384897.3524
   -104093.238 4    -81110.904 4  24249677.583    24249679.575
  -9000258.44244  -7013186.40044  23364545.0724   23364544.8244
  -8569656.07344  -6677646.77844  22149878.1244   22149876.5404
 -22597340.13644 -17608302.84644  20790939.0634   20790938.9084
 -22906655.79844 -17849324.16044  20675204.7944   20675204.4554
